<?xml version="1.0" encoding="UTF-8" standalone="no" ?>
<gpx xmlns="http://www.topografix.com/GPX/1/1" xmlns:xsi="http://www.w3.org/2001/XMLSchema-instance" xsi:schemaLocation="http://www.topografix.com/GPX/1/1 http://www.topografix.com/GPX/1/1/gpx.xsd" version="1.1" creator="VisuGPX - https://www.visugpx.com">
  <metadata>
    <name>VTT-Col-Saint-Jean-35-700</name>
    <desc><![CDATA[Parcours VTT du samedi 18 mai 2019 - Col de Saint-Jean - 35 km - D+ : 700 m]]></desc>
  </metadata>
  <trk>
    <name><![CDATA[Col-St-Jean]]></name>
    <trkseg>
      <trkpt lat="46.08896" lon="6.50757">
        <ele>476.565002</ele>
        <time>2018-09-08T12:07:07Z</time>
      </trkpt>
      <trkpt lat="46.08905" lon="6.50768">
        <ele>476.774994</ele>
        <time>2018-09-08T12:07:15Z</time>
      </trkpt>
      <trkpt lat="46.08906" lon="6.50771">
        <ele>476.790009</ele>
        <time>2018-09-08T12:07:16Z</time>
      </trkpt>
      <trkpt lat="46.08907" lon="6.50774">
        <ele>476.809998</ele>
        <time>2018-09-08T12:07:17Z</time>
      </trkpt>
      <trkpt lat="46.08908" lon="6.50777">
        <ele>476.829987</ele>
        <time>2018-09-08T12:07:18Z</time>
      </trkpt>
      <trkpt lat="46.08918" lon="6.50792">
        <ele>477</ele>
        <time>2018-09-08T12:07:24Z</time>
      </trkpt>
      <trkpt lat="46.08921" lon="6.50793">
        <ele>477</ele>
        <time>2018-09-08T12:07:25Z</time>
      </trkpt>
      <trkpt lat="46.08923" lon="6.50794">
        <ele>477</ele>
        <time>2018-09-08T12:07:26Z</time>
      </trkpt>
      <trkpt lat="46.08924" lon="6.50797">
        <ele>477</ele>
        <time>2018-09-08T12:07:27Z</time>
      </trkpt>
      <trkpt lat="46.08925" lon="6.50801">
        <ele>477</ele>
        <time>2018-09-08T12:07:28Z</time>
      </trkpt>
      <trkpt lat="46.08925" lon="6.50805">
        <ele>477</ele>
        <time>2018-09-08T12:07:29Z</time>
      </trkpt>
      <trkpt lat="46.08927" lon="6.50808">
        <ele>477</ele>
        <time>2018-09-08T12:07:30Z</time>
      </trkpt>
      <trkpt lat="46.0893" lon="6.50809">
        <ele>477</ele>
        <time>2018-09-08T12:07:31Z</time>
      </trkpt>
      <trkpt lat="46.08933" lon="6.50811">
        <ele>477</ele>
        <time>2018-09-08T12:07:32Z</time>
      </trkpt>
      <trkpt lat="46.08972" lon="6.50833">
        <ele>477.309998</ele>
        <time>2018-09-08T12:07:46Z</time>
      </trkpt>
      <trkpt lat="46.09004" lon="6.50836">
        <ele>478</ele>
        <time>2018-09-08T12:07:55Z</time>
      </trkpt>
      <trkpt lat="46.09019" lon="6.50824">
        <ele>478</ele>
        <time>2018-09-08T12:07:59Z</time>
      </trkpt>
      <trkpt lat="46.09022" lon="6.5082">
        <ele>478</ele>
        <time>2018-09-08T12:08:00Z</time>
      </trkpt>
      <trkpt lat="46.09026" lon="6.50816">
        <ele>478</ele>
        <time>2018-09-08T12:08:01Z</time>
      </trkpt>
      <trkpt lat="46.09079" lon="6.50773">
        <ele>478.367188</ele>
        <time>2018-09-08T12:08:15Z</time>
      </trkpt>
      <trkpt lat="46.09094" lon="6.50764">
        <ele>478.70929</ele>
        <time>2018-09-08T12:08:19Z</time>
      </trkpt>
      <trkpt lat="46.09098" lon="6.50764">
        <ele>478.779724</ele>
        <time>2018-09-08T12:08:20Z</time>
      </trkpt>
      <trkpt lat="46.09102" lon="6.50763">
        <ele>478.827209</ele>
        <time>2018-09-08T12:08:21Z</time>
      </trkpt>
      <trkpt lat="46.09106" lon="6.50764">
        <ele>478.868378</ele>
        <time>2018-09-08T12:08:22Z</time>
      </trkpt>
      <trkpt lat="46.0911" lon="6.50765">
        <ele>478.905182</ele>
        <time>2018-09-08T12:08:23Z</time>
      </trkpt>
      <trkpt lat="46.09114" lon="6.50767">
        <ele>478.941193</ele>
        <time>2018-09-08T12:08:24Z</time>
      </trkpt>
      <trkpt lat="46.09117" lon="6.50769">
        <ele>478.978577</ele>
        <time>2018-09-08T12:08:25Z</time>
      </trkpt>
      <trkpt lat="46.09127" lon="6.50777">
        <ele>479.160065</ele>
        <time>2018-09-08T12:08:30Z</time>
      </trkpt>
      <trkpt lat="46.09137" lon="6.50774">
        <ele>479.300873</ele>
        <time>2018-09-08T12:08:33Z</time>
      </trkpt>
      <trkpt lat="46.0914" lon="6.5077">
        <ele>479.292206</ele>
        <time>2018-09-08T12:08:34Z</time>
      </trkpt>
      <trkpt lat="46.09142" lon="6.50765">
        <ele>479.253906</ele>
        <time>2018-09-08T12:08:35Z</time>
      </trkpt>
      <trkpt lat="46.09172" lon="6.50704">
        <ele>478.389801</ele>
        <time>2018-09-08T12:08:47Z</time>
      </trkpt>
      <trkpt lat="46.09176" lon="6.50701">
        <ele>478.338318</ele>
        <time>2018-09-08T12:08:48Z</time>
      </trkpt>
      <trkpt lat="46.09181" lon="6.507">
        <ele>478.320251</ele>
        <time>2018-09-08T12:08:49Z</time>
      </trkpt>
      <trkpt lat="46.09185" lon="6.507">
        <ele>478.33136</ele>
        <time>2018-09-08T12:08:50Z</time>
      </trkpt>
      <trkpt lat="46.0919" lon="6.50701">
        <ele>478.32251</ele>
        <time>2018-09-08T12:08:51Z</time>
      </trkpt>
      <trkpt lat="46.0931" lon="6.50723">
        <ele>477.559052</ele>
        <time>2018-09-08T12:09:15Z</time>
      </trkpt>
      <trkpt lat="46.09333" lon="6.50726">
        <ele>477.513062</ele>
        <time>2018-09-08T12:09:20Z</time>
      </trkpt>
      <trkpt lat="46.09337" lon="6.50726">
        <ele>477.485504</ele>
        <time>2018-09-08T12:09:21Z</time>
      </trkpt>
      <trkpt lat="46.09374" lon="6.50733">
        <ele>476.952515</ele>
        <time>2018-09-08T12:09:34Z</time>
      </trkpt>
      <trkpt lat="46.09383" lon="6.50736">
        <ele>476.690002</ele>
        <time>2018-09-08T12:09:48Z</time>
      </trkpt>
      <trkpt lat="46.09389" lon="6.50735">
        <ele>476.587494</ele>
        <time>2018-09-08T12:09:52Z</time>
      </trkpt>
      <trkpt lat="46.09391" lon="6.50732">
        <ele>476.649994</ele>
        <time>2018-09-08T12:09:53Z</time>
      </trkpt>
      <trkpt lat="46.09393" lon="6.50728">
        <ele>476.73999</ele>
        <time>2018-09-08T12:09:54Z</time>
      </trkpt>
      <trkpt lat="46.09406" lon="6.50672">
        <ele>481.684387</ele>
        <time>2018-09-08T12:10:05Z</time>
      </trkpt>
      <trkpt lat="46.09408" lon="6.50666">
        <ele>482.656708</ele>
        <time>2018-09-08T12:10:06Z</time>
      </trkpt>
      <trkpt lat="46.09412" lon="6.50661">
        <ele>483.6315</ele>
        <time>2018-09-08T12:10:07Z</time>
      </trkpt>
      <trkpt lat="46.09416" lon="6.50659">
        <ele>484.518463</ele>
        <time>2018-09-08T12:10:08Z</time>
      </trkpt>
      <trkpt lat="46.09421" lon="6.50658">
        <ele>485.075012</ele>
        <time>2018-09-08T12:10:09Z</time>
      </trkpt>
      <trkpt lat="46.09425" lon="6.50659">
        <ele>485.371552</ele>
        <time>2018-09-08T12:10:10Z</time>
      </trkpt>
      <trkpt lat="46.0943" lon="6.5066">
        <ele>485.631561</ele>
        <time>2018-09-08T12:10:11Z</time>
      </trkpt>
      <trkpt lat="46.09464" lon="6.50664">
        <ele>488.21048</ele>
        <time>2018-09-08T12:10:19Z</time>
      </trkpt>
      <trkpt lat="46.09495" lon="6.50668">
        <ele>490.250427</ele>
        <time>2018-09-08T12:10:32Z</time>
      </trkpt>
      <trkpt lat="46.09519" lon="6.50672">
        <ele>491.858429</ele>
        <time>2018-09-08T12:10:47Z</time>
      </trkpt>
      <trkpt lat="46.09546" lon="6.50679">
        <ele>493.199249</ele>
        <time>2018-09-08T12:11:05Z</time>
      </trkpt>
      <trkpt lat="46.09552" lon="6.50681">
        <ele>493.259399</ele>
        <time>2018-09-08T12:11:10Z</time>
      </trkpt>
      <trkpt lat="46.09572" lon="6.50683">
        <ele>494.26001</ele>
        <time>2018-09-08T12:11:24Z</time>
      </trkpt>
      <trkpt lat="46.09575" lon="6.50684">
        <ele>494.462311</ele>
        <time>2018-09-08T12:11:26Z</time>
      </trkpt>
      <trkpt lat="46.09576" lon="6.50685">
        <ele>494.283539</ele>
        <time>2018-09-08T12:11:27Z</time>
      </trkpt>
      <trkpt lat="46.09579" lon="6.50688">
        <ele>493.634399</ele>
        <time>2018-09-08T12:11:30Z</time>
      </trkpt>
      <trkpt lat="46.0958" lon="6.50689">
        <ele>493.730713</ele>
        <time>2018-09-08T12:11:31Z</time>
      </trkpt>
      <trkpt lat="46.09595" lon="6.50688">
        <ele>495.157257</ele>
        <time>2018-09-08T12:11:43Z</time>
      </trkpt>
      <trkpt lat="46.09596" lon="6.50689">
        <ele>495.193512</ele>
        <time>2018-09-08T12:11:44Z</time>
      </trkpt>
      <trkpt lat="46.09597" lon="6.50689">
        <ele>495.248901</ele>
        <time>2018-09-08T12:11:45Z</time>
      </trkpt>
      <trkpt lat="46.09599" lon="6.50689">
        <ele>495.494751</ele>
        <time>2018-09-08T12:11:46Z</time>
      </trkpt>
      <trkpt lat="46.096" lon="6.50689">
        <ele>495.773743</ele>
        <time>2018-09-08T12:11:47Z</time>
      </trkpt>
      <trkpt lat="46.09623" lon="6.50693">
        <ele>498.97226</ele>
        <time>2018-09-08T12:12:02Z</time>
      </trkpt>
      <trkpt lat="46.0964" lon="6.50696">
        <ele>501.5</ele>
        <time>2018-09-08T12:12:13Z</time>
      </trkpt>
      <trkpt lat="46.09665" lon="6.50702">
        <ele>505.375</ele>
        <time>2018-09-08T12:12:29Z</time>
      </trkpt>
      <trkpt lat="46.09669" lon="6.50701">
        <ele>506.339996</ele>
        <time>2018-09-08T12:12:33Z</time>
      </trkpt>
      <trkpt lat="46.09671" lon="6.507">
        <ele>506.692505</ele>
        <time>2018-09-08T12:12:34Z</time>
      </trkpt>
      <trkpt lat="46.09678" lon="6.50695">
        <ele>508.792511</ele>
        <time>2018-09-08T12:12:40Z</time>
      </trkpt>
      <trkpt lat="46.09678" lon="6.50694">
        <ele>509.122498</ele>
        <time>2018-09-08T12:12:41Z</time>
      </trkpt>
      <trkpt lat="46.09679" lon="6.50692">
        <ele>509.440002</ele>
        <time>2018-09-08T12:12:42Z</time>
      </trkpt>
      <trkpt lat="46.09679" lon="6.5069">
        <ele>509.769989</ele>
        <time>2018-09-08T12:12:43Z</time>
      </trkpt>
      <trkpt lat="46.0968" lon="6.50688">
        <ele>510.227509</ele>
        <time>2018-09-08T12:12:44Z</time>
      </trkpt>
      <trkpt lat="46.0968" lon="6.50686">
        <ele>510.617493</ele>
        <time>2018-09-08T12:12:45Z</time>
      </trkpt>
      <trkpt lat="46.0968" lon="6.50684">
        <ele>510.940002</ele>
        <time>2018-09-08T12:12:46Z</time>
      </trkpt>
      <trkpt lat="46.0968" lon="6.50682">
        <ele>511.172516</ele>
        <time>2018-09-08T12:12:47Z</time>
      </trkpt>
      <trkpt lat="46.09679" lon="6.5068">
        <ele>511.36499</ele>
        <time>2018-09-08T12:12:48Z</time>
      </trkpt>
      <trkpt lat="46.09669" lon="6.50665">
        <ele>511.567505</ele>
        <time>2018-09-08T12:12:59Z</time>
      </trkpt>
      <trkpt lat="46.09667" lon="6.50665">
        <ele>511.315002</ele>
        <time>2018-09-08T12:13:00Z</time>
      </trkpt>
      <trkpt lat="46.09666" lon="6.50665">
        <ele>511.100006</ele>
        <time>2018-09-08T12:13:01Z</time>
      </trkpt>
      <trkpt lat="46.09665" lon="6.50664">
        <ele>510.957489</ele>
        <time>2018-09-08T12:13:02Z</time>
      </trkpt>
      <trkpt lat="46.09663" lon="6.50662">
        <ele>510.945007</ele>
        <time>2018-09-08T12:13:03Z</time>
      </trkpt>
      <trkpt lat="46.09662" lon="6.50661">
        <ele>511.010681</ele>
        <time>2018-09-08T12:13:04Z</time>
      </trkpt>
      <trkpt lat="46.09662" lon="6.50659">
        <ele>511.253906</ele>
        <time>2018-09-08T12:13:05Z</time>
      </trkpt>
      <trkpt lat="46.09661" lon="6.50657">
        <ele>511.555756</ele>
        <time>2018-09-08T12:13:06Z</time>
      </trkpt>
      <trkpt lat="46.09661" lon="6.50656">
        <ele>511.760773</ele>
        <time>2018-09-08T12:13:07Z</time>
      </trkpt>
      <trkpt lat="46.0966" lon="6.50654">
        <ele>511.930389</ele>
        <time>2018-09-08T12:13:08Z</time>
      </trkpt>
      <trkpt lat="46.09659" lon="6.50653">
        <ele>512.025024</ele>
        <time>2018-09-08T12:13:09Z</time>
      </trkpt>
      <trkpt lat="46.09658" lon="6.50651">
        <ele>512.120605</ele>
        <time>2018-09-08T12:13:10Z</time>
      </trkpt>
      <trkpt lat="46.09656" lon="6.5065">
        <ele>512.217224</ele>
        <time>2018-09-08T12:13:11Z</time>
      </trkpt>
      <trkpt lat="46.09633" lon="6.50628">
        <ele>513.421875</ele>
        <time>2018-09-08T12:13:29Z</time>
      </trkpt>
      <trkpt lat="46.09622" lon="6.50616">
        <ele>515.682007</ele>
        <time>2018-09-08T12:13:38Z</time>
      </trkpt>
      <trkpt lat="46.09622" lon="6.50614">
        <ele>516.196777</ele>
        <time>2018-09-08T12:13:39Z</time>
      </trkpt>
      <trkpt lat="46.0963" lon="6.50606">
        <ele>518.778076</ele>
        <time>2018-09-08T12:13:46Z</time>
      </trkpt>
      <trkpt lat="46.09631" lon="6.50606">
        <ele>518.801331</ele>
        <time>2018-09-08T12:13:47Z</time>
      </trkpt>
      <trkpt lat="46.09654" lon="6.5061">
        <ele>520.448242</ele>
        <time>2018-09-08T12:14:03Z</time>
      </trkpt>
      <trkpt lat="46.09655" lon="6.5061">
        <ele>520.794495</ele>
        <time>2018-09-08T12:14:04Z</time>
      </trkpt>
      <trkpt lat="46.09663" lon="6.50605">
        <ele>523.239624</ele>
        <time>2018-09-08T12:14:10Z</time>
      </trkpt>
      <trkpt lat="46.09692" lon="6.50604">
        <ele>529.221313</ele>
        <time>2018-09-08T12:14:29Z</time>
      </trkpt>
      <trkpt lat="46.09712" lon="6.50627">
        <ele>529.982117</ele>
        <time>2018-09-08T12:14:43Z</time>
      </trkpt>
      <trkpt lat="46.09717" lon="6.50644">
        <ele>527.453369</ele>
        <time>2018-09-08T12:14:51Z</time>
      </trkpt>
      <trkpt lat="46.0974" lon="6.50666">
        <ele>527.582825</ele>
        <time>2018-09-08T12:15:09Z</time>
      </trkpt>
      <trkpt lat="46.09749" lon="6.50663">
        <ele>529.939026</ele>
        <time>2018-09-08T12:15:15Z</time>
      </trkpt>
      <trkpt lat="46.0975" lon="6.50661">
        <ele>530.665222</ele>
        <time>2018-09-08T12:15:16Z</time>
      </trkpt>
      <trkpt lat="46.09751" lon="6.50659">
        <ele>531.441406</ele>
        <time>2018-09-08T12:15:17Z</time>
      </trkpt>
      <trkpt lat="46.09772" lon="6.50644">
        <ele>540.834778</ele>
        <time>2018-09-08T12:15:33Z</time>
      </trkpt>
      <trkpt lat="46.09794" lon="6.50639">
        <ele>544.981323</ele>
        <time>2018-09-08T12:15:46Z</time>
      </trkpt>
      <trkpt lat="46.09815" lon="6.5064">
        <ele>546.680664</ele>
        <time>2018-09-08T12:15:59Z</time>
      </trkpt>
      <trkpt lat="46.09832" lon="6.50646">
        <ele>544.993408</ele>
        <time>2018-09-08T12:16:09Z</time>
      </trkpt>
      <trkpt lat="46.09855" lon="6.50653">
        <ele>543.85907</ele>
        <time>2018-09-08T12:16:23Z</time>
      </trkpt>
      <trkpt lat="46.09871" lon="6.50655">
        <ele>543.814331</ele>
        <time>2018-09-08T12:16:34Z</time>
      </trkpt>
      <trkpt lat="46.09884" lon="6.50649">
        <ele>545.927002</ele>
        <time>2018-09-08T12:16:45Z</time>
      </trkpt>
      <trkpt lat="46.09886" lon="6.50647">
        <ele>546.338623</ele>
        <time>2018-09-08T12:16:46Z</time>
      </trkpt>
      <trkpt lat="46.09887" lon="6.50646">
        <ele>546.638489</ele>
        <time>2018-09-08T12:16:47Z</time>
      </trkpt>
      <trkpt lat="46.09888" lon="6.50645">
        <ele>547.169983</ele>
        <time>2018-09-08T12:16:48Z</time>
      </trkpt>
      <trkpt lat="46.0989" lon="6.50644">
        <ele>547.482605</ele>
        <time>2018-09-08T12:16:49Z</time>
      </trkpt>
      <trkpt lat="46.09891" lon="6.50642">
        <ele>548.13501</ele>
        <time>2018-09-08T12:16:50Z</time>
      </trkpt>
      <trkpt lat="46.09893" lon="6.50639">
        <ele>549.023499</ele>
        <time>2018-09-08T12:16:52Z</time>
      </trkpt>
      <trkpt lat="46.09895" lon="6.50637">
        <ele>549.465027</ele>
        <time>2018-09-08T12:16:53Z</time>
      </trkpt>
      <trkpt lat="46.09917" lon="6.50622">
        <ele>553.085876</ele>
        <time>2018-09-08T12:17:07Z</time>
      </trkpt>
      <trkpt lat="46.09919" lon="6.50622">
        <ele>553.057434</ele>
        <time>2018-09-08T12:17:08Z</time>
      </trkpt>
      <trkpt lat="46.09925" lon="6.50622">
        <ele>553.233154</ele>
        <time>2018-09-08T12:17:20Z</time>
      </trkpt>
      <trkpt lat="46.09928" lon="6.50621">
        <ele>553.299866</ele>
        <time>2018-09-08T12:17:52Z</time>
      </trkpt>
      <trkpt lat="46.09929" lon="6.5062">
        <ele>553.722717</ele>
        <time>2018-09-08T12:17:54Z</time>
      </trkpt>
      <trkpt lat="46.09931" lon="6.50619">
        <ele>553.919189</ele>
        <time>2018-09-08T12:17:55Z</time>
      </trkpt>
      <trkpt lat="46.09932" lon="6.50619">
        <ele>554.091309</ele>
        <time>2018-09-08T12:17:56Z</time>
      </trkpt>
      <trkpt lat="46.09934" lon="6.50618">
        <ele>554.256592</ele>
        <time>2018-09-08T12:17:57Z</time>
      </trkpt>
      <trkpt lat="46.09935" lon="6.50617">
        <ele>554.518127</ele>
        <time>2018-09-08T12:17:58Z</time>
      </trkpt>
      <trkpt lat="46.09944" lon="6.50614">
        <ele>555.267517</ele>
        <time>2018-09-08T12:18:05Z</time>
      </trkpt>
      <trkpt lat="46.09946" lon="6.50614">
        <ele>555.332825</ele>
        <time>2018-09-08T12:18:06Z</time>
      </trkpt>
      <trkpt lat="46.09947" lon="6.50614">
        <ele>555.445374</ele>
        <time>2018-09-08T12:18:07Z</time>
      </trkpt>
      <trkpt lat="46.09969" lon="6.50605">
        <ele>558.808777</ele>
        <time>2018-09-08T12:18:22Z</time>
      </trkpt>
      <trkpt lat="46.09976" lon="6.506">
        <ele>560.693726</ele>
        <time>2018-09-08T12:18:28Z</time>
      </trkpt>
      <trkpt lat="46.09977" lon="6.506">
        <ele>560.848755</ele>
        <time>2018-09-08T12:18:29Z</time>
      </trkpt>
      <trkpt lat="46.09978" lon="6.506">
        <ele>561.017517</ele>
        <time>2018-09-08T12:18:30Z</time>
      </trkpt>
      <trkpt lat="46.0998" lon="6.50599">
        <ele>561.287476</ele>
        <time>2018-09-08T12:18:31Z</time>
      </trkpt>
      <trkpt lat="46.09981" lon="6.50598">
        <ele>561.547485</ele>
        <time>2018-09-08T12:18:32Z</time>
      </trkpt>
      <trkpt lat="46.10004" lon="6.50594">
        <ele>564.491272</ele>
        <time>2018-09-08T12:18:47Z</time>
      </trkpt>
      <trkpt lat="46.10015" lon="6.50594">
        <ele>565.51123</ele>
        <time>2018-09-08T12:18:53Z</time>
      </trkpt>
      <trkpt lat="46.1004" lon="6.50597">
        <ele>567.596252</ele>
        <time>2018-09-08T12:19:07Z</time>
      </trkpt>
      <trkpt lat="46.10053" lon="6.50602">
        <ele>567.550659</ele>
        <time>2018-09-08T12:19:16Z</time>
      </trkpt>
      <trkpt lat="46.10054" lon="6.50603">
        <ele>567.31012</ele>
        <time>2018-09-08T12:19:17Z</time>
      </trkpt>
      <trkpt lat="46.10058" lon="6.50608">
        <ele>566.363953</ele>
        <time>2018-09-08T12:19:21Z</time>
      </trkpt>
      <trkpt lat="46.1006" lon="6.50608">
        <ele>566.370605</ele>
        <time>2018-09-08T12:19:22Z</time>
      </trkpt>
      <trkpt lat="46.10061" lon="6.50609">
        <ele>566.39502</ele>
        <time>2018-09-08T12:19:23Z</time>
      </trkpt>
      <trkpt lat="46.10062" lon="6.5061">
        <ele>566.3573</ele>
        <time>2018-09-08T12:19:24Z</time>
      </trkpt>
      <trkpt lat="46.10064" lon="6.5061">
        <ele>566.255859</ele>
        <time>2018-09-08T12:19:25Z</time>
      </trkpt>
      <trkpt lat="46.10065" lon="6.50611">
        <ele>566.15741</ele>
        <time>2018-09-08T12:19:26Z</time>
      </trkpt>
      <trkpt lat="46.10066" lon="6.50612">
        <ele>566.105225</ele>
        <time>2018-09-08T12:19:27Z</time>
      </trkpt>
      <trkpt lat="46.10087" lon="6.5062">
        <ele>566.451111</ele>
        <time>2018-09-08T12:19:40Z</time>
      </trkpt>
      <trkpt lat="46.10117" lon="6.50607">
        <ele>570.233643</ele>
        <time>2018-09-08T12:19:54Z</time>
      </trkpt>
      <trkpt lat="46.10144" lon="6.50575">
        <ele>576.078308</ele>
        <time>2018-09-08T12:20:09Z</time>
      </trkpt>
      <trkpt lat="46.10167" lon="6.50543">
        <ele>577.844482</ele>
        <time>2018-09-08T12:20:24Z</time>
      </trkpt>
      <trkpt lat="46.10176" lon="6.50532">
        <ele>578.308838</ele>
        <time>2018-09-08T12:20:30Z</time>
      </trkpt>
      <trkpt lat="46.10204" lon="6.50503">
        <ele>580.859985</ele>
        <time>2018-09-08T12:20:47Z</time>
      </trkpt>
      <trkpt lat="46.1023" lon="6.50487">
        <ele>581.940002</ele>
        <time>2018-09-08T12:21:01Z</time>
      </trkpt>
      <trkpt lat="46.1026" lon="6.50456">
        <ele>584.424988</ele>
        <time>2018-09-08T12:21:19Z</time>
      </trkpt>
      <trkpt lat="46.10285" lon="6.50417">
        <ele>588.150879</ele>
        <time>2018-09-08T12:21:36Z</time>
      </trkpt>
      <trkpt lat="46.10319" lon="6.50368">
        <ele>591.55188</ele>
        <time>2018-09-08T12:21:59Z</time>
      </trkpt>
      <trkpt lat="46.10344" lon="6.50337">
        <ele>593.753235</ele>
        <time>2018-09-08T12:22:16Z</time>
      </trkpt>
      <trkpt lat="46.10351" lon="6.50324">
        <ele>595.100403</ele>
        <time>2018-09-08T12:22:22Z</time>
      </trkpt>
      <trkpt lat="46.10353" lon="6.50322">
        <ele>595.239197</ele>
        <time>2018-09-08T12:22:23Z</time>
      </trkpt>
      <trkpt lat="46.10377" lon="6.50289">
        <ele>598.012146</ele>
        <time>2018-09-08T12:22:40Z</time>
      </trkpt>
      <trkpt lat="46.10401" lon="6.50255">
        <ele>601.22699</ele>
        <time>2018-09-08T12:22:57Z</time>
      </trkpt>
      <trkpt lat="46.10433" lon="6.50209">
        <ele>604.285583</ele>
        <time>2018-09-08T12:23:20Z</time>
      </trkpt>
      <trkpt lat="46.10463" lon="6.5016">
        <ele>607.163208</ele>
        <time>2018-09-08T12:23:44Z</time>
      </trkpt>
      <trkpt lat="46.1049" lon="6.50119">
        <ele>608.033569</ele>
        <time>2018-09-08T12:24:04Z</time>
      </trkpt>
      <trkpt lat="46.10514" lon="6.50081">
        <ele>609.967773</ele>
        <time>2018-09-08T12:24:22Z</time>
      </trkpt>
      <trkpt lat="46.10537" lon="6.50051">
        <ele>612.095215</ele>
        <time>2018-09-08T12:24:39Z</time>
      </trkpt>
      <trkpt lat="46.10553" lon="6.50037">
        <ele>612.983215</ele>
        <time>2018-09-08T12:24:50Z</time>
      </trkpt>
      <trkpt lat="46.10555" lon="6.50037">
        <ele>612.965576</ele>
        <time>2018-09-08T12:24:51Z</time>
      </trkpt>
      <trkpt lat="46.10557" lon="6.50036">
        <ele>612.849976</ele>
        <time>2018-09-08T12:24:52Z</time>
      </trkpt>
      <trkpt lat="46.10559" lon="6.50036">
        <ele>612.807007</ele>
        <time>2018-09-08T12:24:53Z</time>
      </trkpt>
      <trkpt lat="46.10561" lon="6.50035">
        <ele>612.842773</ele>
        <time>2018-09-08T12:24:54Z</time>
      </trkpt>
      <trkpt lat="46.10563" lon="6.50033">
        <ele>612.913574</ele>
        <time>2018-09-08T12:24:55Z</time>
      </trkpt>
      <trkpt lat="46.10564" lon="6.50031">
        <ele>613.069824</ele>
        <time>2018-09-08T12:24:56Z</time>
      </trkpt>
      <trkpt lat="46.10566" lon="6.5003">
        <ele>612.946533</ele>
        <time>2018-09-08T12:24:57Z</time>
      </trkpt>
      <trkpt lat="46.10567" lon="6.50029">
        <ele>612.560303</ele>
        <time>2018-09-08T12:24:58Z</time>
      </trkpt>
      <trkpt lat="46.10569" lon="6.50028">
        <ele>612.234985</ele>
        <time>2018-09-08T12:24:59Z</time>
      </trkpt>
      <trkpt lat="46.1057" lon="6.50026">
        <ele>611.981689</ele>
        <time>2018-09-08T12:25:00Z</time>
      </trkpt>
      <trkpt lat="46.10584" lon="6.50017">
        <ele>609.542297</ele>
        <time>2018-09-08T12:25:16Z</time>
      </trkpt>
      <trkpt lat="46.10585" lon="6.50018">
        <ele>608.98822</ele>
        <time>2018-09-08T12:25:31Z</time>
      </trkpt>
      <trkpt lat="46.10585" lon="6.50016">
        <ele>609.215088</ele>
        <time>2018-09-08T12:25:52Z</time>
      </trkpt>
      <trkpt lat="46.10586" lon="6.50015">
        <ele>609.147888</ele>
        <time>2018-09-08T12:25:53Z</time>
      </trkpt>
      <trkpt lat="46.10587" lon="6.50013">
        <ele>609.150452</ele>
        <time>2018-09-08T12:25:54Z</time>
      </trkpt>
      <trkpt lat="46.106" lon="6.49956">
        <ele>615.156311</ele>
        <time>2018-09-08T12:26:10Z</time>
      </trkpt>
      <trkpt lat="46.10611" lon="6.49905">
        <ele>622.804504</ele>
        <time>2018-09-08T12:26:25Z</time>
      </trkpt>
      <trkpt lat="46.10642" lon="6.4991">
        <ele>623.164734</ele>
        <time>2018-09-08T12:26:37Z</time>
      </trkpt>
      <trkpt lat="46.10683" lon="6.49958">
        <ele>617.809143</ele>
        <time>2018-09-08T12:26:53Z</time>
      </trkpt>
      <trkpt lat="46.10731" lon="6.49918">
        <ele>621.441772</ele>
        <time>2018-09-08T12:27:07Z</time>
      </trkpt>
      <trkpt lat="46.108" lon="6.49852">
        <ele>619.807617</ele>
        <time>2018-09-08T12:27:24Z</time>
      </trkpt>
      <trkpt lat="46.10817" lon="6.49838">
        <ele>618.734985</ele>
        <time>2018-09-08T12:27:27Z</time>
      </trkpt>
      <trkpt lat="46.10861" lon="6.49797">
        <ele>616.688171</ele>
        <time>2018-09-08T12:27:34Z</time>
      </trkpt>
      <trkpt lat="46.10888" lon="6.49773">
        <ele>615.186829</ele>
        <time>2018-09-08T12:27:38Z</time>
      </trkpt>
      <trkpt lat="46.10984" lon="6.49713">
        <ele>612.721924</ele>
        <time>2018-09-08T12:27:52Z</time>
      </trkpt>
      <trkpt lat="46.11031" lon="6.49702">
        <ele>610.94458</ele>
        <time>2018-09-08T12:27:59Z</time>
      </trkpt>
      <trkpt lat="46.11082" lon="6.49671">
        <ele>607.307495</ele>
        <time>2018-09-08T12:28:07Z</time>
      </trkpt>
      <trkpt lat="46.11131" lon="6.4964">
        <ele>603.87262</ele>
        <time>2018-09-08T12:28:14Z</time>
      </trkpt>
      <trkpt lat="46.11199" lon="6.49595">
        <ele>600.958801</ele>
        <time>2018-09-08T12:28:23Z</time>
      </trkpt>
      <trkpt lat="46.11291" lon="6.4957">
        <ele>595.377625</ele>
        <time>2018-09-08T12:28:35Z</time>
      </trkpt>
      <trkpt lat="46.11372" lon="6.49538">
        <ele>592.998413</ele>
        <time>2018-09-08T12:28:45Z</time>
      </trkpt>
      <trkpt lat="46.11468" lon="6.49471">
        <ele>589.17157</ele>
        <time>2018-09-08T12:28:58Z</time>
      </trkpt>
      <trkpt lat="46.11486" lon="6.49452">
        <ele>588.021301</ele>
        <time>2018-09-08T12:29:01Z</time>
      </trkpt>
      <trkpt lat="46.11491" lon="6.49445">
        <ele>588.041382</ele>
        <time>2018-09-08T12:29:02Z</time>
      </trkpt>
      <trkpt lat="46.11524" lon="6.49395">
        <ele>586.284607</ele>
        <time>2018-09-08T12:29:08Z</time>
      </trkpt>
      <trkpt lat="46.11531" lon="6.49388">
        <ele>585.675903</ele>
        <time>2018-09-08T12:29:09Z</time>
      </trkpt>
      <trkpt lat="46.11537" lon="6.49382">
        <ele>584.981689</ele>
        <time>2018-09-08T12:29:10Z</time>
      </trkpt>
      <trkpt lat="46.11617" lon="6.49323">
        <ele>585.230042</ele>
        <time>2018-09-08T12:29:23Z</time>
      </trkpt>
      <trkpt lat="46.1168" lon="6.49257">
        <ele>586.428711</ele>
        <time>2018-09-08T12:29:37Z</time>
      </trkpt>
      <trkpt lat="46.11748" lon="6.49174">
        <ele>588.832397</ele>
        <time>2018-09-08T12:29:55Z</time>
      </trkpt>
      <trkpt lat="46.11777" lon="6.49147">
        <ele>586.229675</ele>
        <time>2018-09-08T12:30:02Z</time>
      </trkpt>
      <trkpt lat="46.11781" lon="6.49142">
        <ele>585.866699</ele>
        <time>2018-09-08T12:30:03Z</time>
      </trkpt>
      <trkpt lat="46.11783" lon="6.49137">
        <ele>585.664307</ele>
        <time>2018-09-08T12:30:04Z</time>
      </trkpt>
      <trkpt lat="46.11785" lon="6.49131">
        <ele>585.625977</ele>
        <time>2018-09-08T12:30:05Z</time>
      </trkpt>
      <trkpt lat="46.11787" lon="6.49124">
        <ele>585.753723</ele>
        <time>2018-09-08T12:30:06Z</time>
      </trkpt>
      <trkpt lat="46.11789" lon="6.49117">
        <ele>585.890198</ele>
        <time>2018-09-08T12:30:07Z</time>
      </trkpt>
      <trkpt lat="46.11807" lon="6.49059">
        <ele>587.591675</ele>
        <time>2018-09-08T12:30:15Z</time>
      </trkpt>
      <trkpt lat="46.11811" lon="6.49052">
        <ele>587.70282</ele>
        <time>2018-09-08T12:30:16Z</time>
      </trkpt>
      <trkpt lat="46.11816" lon="6.49046">
        <ele>587.579956</ele>
        <time>2018-09-08T12:30:17Z</time>
      </trkpt>
      <trkpt lat="46.11821" lon="6.4904">
        <ele>587.65863</ele>
        <time>2018-09-08T12:30:18Z</time>
      </trkpt>
      <trkpt lat="46.11826" lon="6.49034">
        <ele>587.664795</ele>
        <time>2018-09-08T12:30:19Z</time>
      </trkpt>
      <trkpt lat="46.11858" lon="6.49003">
        <ele>585.865784</ele>
        <time>2018-09-08T12:30:25Z</time>
      </trkpt>
      <trkpt lat="46.11865" lon="6.49">
        <ele>585.030518</ele>
        <time>2018-09-08T12:30:26Z</time>
      </trkpt>
      <trkpt lat="46.11872" lon="6.49">
        <ele>585.41571</ele>
        <time>2018-09-08T12:30:27Z</time>
      </trkpt>
      <trkpt lat="46.11879" lon="6.49002">
        <ele>585.463989</ele>
        <time>2018-09-08T12:30:28Z</time>
      </trkpt>
      <trkpt lat="46.11886" lon="6.49004">
        <ele>585.406555</ele>
        <time>2018-09-08T12:30:29Z</time>
      </trkpt>
      <trkpt lat="46.11915" lon="6.49017">
        <ele>585.078125</ele>
        <time>2018-09-08T12:30:34Z</time>
      </trkpt>
      <trkpt lat="46.1192" lon="6.49018">
        <ele>584.89502</ele>
        <time>2018-09-08T12:30:35Z</time>
      </trkpt>
      <trkpt lat="46.11925" lon="6.49018">
        <ele>584.809082</ele>
        <time>2018-09-08T12:30:36Z</time>
      </trkpt>
      <trkpt lat="46.1193" lon="6.49018">
        <ele>584.823853</ele>
        <time>2018-09-08T12:30:37Z</time>
      </trkpt>
      <trkpt lat="46.11935" lon="6.49017">
        <ele>584.911011</ele>
        <time>2018-09-08T12:30:38Z</time>
      </trkpt>
      <trkpt lat="46.11976" lon="6.49">
        <ele>586.609314</ele>
        <time>2018-09-08T12:30:49Z</time>
      </trkpt>
      <trkpt lat="46.12035" lon="6.48964">
        <ele>588.602295</ele>
        <time>2018-09-08T12:31:08Z</time>
      </trkpt>
      <trkpt lat="46.12098" lon="6.48917">
        <ele>586.901306</ele>
        <time>2018-09-08T12:31:27Z</time>
      </trkpt>
      <trkpt lat="46.12174" lon="6.48845">
        <ele>581.952209</ele>
        <time>2018-09-08T12:31:43Z</time>
      </trkpt>
      <trkpt lat="46.12214" lon="6.48738">
        <ele>582.123535</ele>
        <time>2018-09-08T12:31:59Z</time>
      </trkpt>
      <trkpt lat="46.12236" lon="6.4865">
        <ele>582.599731</ele>
        <time>2018-09-08T12:32:10Z</time>
      </trkpt>
      <trkpt lat="46.12256" lon="6.48601">
        <ele>584.139954</ele>
        <time>2018-09-08T12:32:16Z</time>
      </trkpt>
      <trkpt lat="46.12261" lon="6.48595">
        <ele>584.278015</ele>
        <time>2018-09-08T12:32:17Z</time>
      </trkpt>
      <trkpt lat="46.12265" lon="6.4859">
        <ele>584.344971</ele>
        <time>2018-09-08T12:32:18Z</time>
      </trkpt>
      <trkpt lat="46.12309" lon="6.48545">
        <ele>586.074646</ele>
        <time>2018-09-08T12:32:30Z</time>
      </trkpt>
      <trkpt lat="46.1235" lon="6.485">
        <ele>588.011414</ele>
        <time>2018-09-08T12:32:43Z</time>
      </trkpt>
      <trkpt lat="46.12375" lon="6.48464">
        <ele>590.249573</ele>
        <time>2018-09-08T12:32:53Z</time>
      </trkpt>
      <trkpt lat="46.12421" lon="6.48419">
        <ele>590.47998</ele>
        <time>2018-09-08T12:33:11Z</time>
      </trkpt>
      <trkpt lat="46.12467" lon="6.48357">
        <ele>590.997498</ele>
        <time>2018-09-08T12:33:28Z</time>
      </trkpt>
      <trkpt lat="46.12499" lon="6.48287">
        <ele>594.730957</ele>
        <time>2018-09-08T12:33:46Z</time>
      </trkpt>
      <trkpt lat="46.12532" lon="6.48255">
        <ele>592.791199</ele>
        <time>2018-09-08T12:34:00Z</time>
      </trkpt>
      <trkpt lat="46.12563" lon="6.48218">
        <ele>590.107483</ele>
        <time>2018-09-08T12:34:13Z</time>
      </trkpt>
      <trkpt lat="46.12572" lon="6.48203">
        <ele>589.284363</ele>
        <time>2018-09-08T12:34:20Z</time>
      </trkpt>
      <trkpt lat="46.12574" lon="6.48201">
        <ele>589.141541</ele>
        <time>2018-09-08T12:34:21Z</time>
      </trkpt>
      <trkpt lat="46.12602" lon="6.4816">
        <ele>587.327942</ele>
        <time>2018-09-08T12:34:35Z</time>
      </trkpt>
      <trkpt lat="46.12616" lon="6.48139">
        <ele>586.4375</ele>
        <time>2018-09-08T12:34:40Z</time>
      </trkpt>
      <trkpt lat="46.12619" lon="6.48134">
        <ele>586.384644</ele>
        <time>2018-09-08T12:34:41Z</time>
      </trkpt>
      <trkpt lat="46.12621" lon="6.48128">
        <ele>586.424072</ele>
        <time>2018-09-08T12:34:42Z</time>
      </trkpt>
      <trkpt lat="46.12654" lon="6.48057">
        <ele>584.270142</ele>
        <time>2018-09-08T12:34:54Z</time>
      </trkpt>
      <trkpt lat="46.12711" lon="6.47976">
        <ele>582.5</ele>
        <time>2018-09-08T12:35:07Z</time>
      </trkpt>
      <trkpt lat="46.12745" lon="6.4793">
        <ele>580.401855</ele>
        <time>2018-09-08T12:35:13Z</time>
      </trkpt>
      <trkpt lat="46.12793" lon="6.47865">
        <ele>578.971497</ele>
        <time>2018-09-08T12:35:21Z</time>
      </trkpt>
      <trkpt lat="46.12799" lon="6.47859">
        <ele>578.868469</ele>
        <time>2018-09-08T12:35:22Z</time>
      </trkpt>
      <trkpt lat="46.12804" lon="6.47853">
        <ele>579.043945</ele>
        <time>2018-09-08T12:35:23Z</time>
      </trkpt>
      <trkpt lat="46.12825" lon="6.4783">
        <ele>580.664978</ele>
        <time>2018-09-08T12:35:28Z</time>
      </trkpt>
      <trkpt lat="46.12828" lon="6.47827">
        <ele>580.991272</ele>
        <time>2018-09-08T12:35:29Z</time>
      </trkpt>
      <trkpt lat="46.1286" lon="6.47791">
        <ele>584.169678</ele>
        <time>2018-09-08T12:35:41Z</time>
      </trkpt>
      <trkpt lat="46.129" lon="6.47746">
        <ele>586.559998</ele>
        <time>2018-09-08T12:35:57Z</time>
      </trkpt>
      <trkpt lat="46.12955" lon="6.47676">
        <ele>589.172546</ele>
        <time>2018-09-08T12:36:19Z</time>
      </trkpt>
      <trkpt lat="46.13009" lon="6.4761">
        <ele>592.455017</ele>
        <time>2018-09-08T12:36:39Z</time>
      </trkpt>
      <trkpt lat="46.13061" lon="6.47593">
        <ele>592.47998</ele>
        <time>2018-09-08T12:36:55Z</time>
      </trkpt>
      <trkpt lat="46.13111" lon="6.47586">
        <ele>592.607056</ele>
        <time>2018-09-08T12:37:12Z</time>
      </trkpt>
      <trkpt lat="46.13172" lon="6.47582">
        <ele>592.571777</ele>
        <time>2018-09-08T12:37:31Z</time>
      </trkpt>
      <trkpt lat="46.13246" lon="6.47575">
        <ele>589.4375</ele>
        <time>2018-09-08T12:37:46Z</time>
      </trkpt>
      <trkpt lat="46.1329" lon="6.4756">
        <ele>590.070496</ele>
        <time>2018-09-08T12:37:54Z</time>
      </trkpt>
      <trkpt lat="46.13295" lon="6.47557">
        <ele>590.808899</ele>
        <time>2018-09-08T12:37:55Z</time>
      </trkpt>
      <trkpt lat="46.133" lon="6.47553">
        <ele>591.710693</ele>
        <time>2018-09-08T12:37:56Z</time>
      </trkpt>
      <trkpt lat="46.13304" lon="6.47548">
        <ele>592.848694</ele>
        <time>2018-09-08T12:37:57Z</time>
      </trkpt>
      <trkpt lat="46.13308" lon="6.47543">
        <ele>594.141113</ele>
        <time>2018-09-08T12:37:58Z</time>
      </trkpt>
      <trkpt lat="46.13319" lon="6.47529">
        <ele>597.503662</ele>
        <time>2018-09-08T12:38:01Z</time>
      </trkpt>
      <trkpt lat="46.13324" lon="6.47526">
        <ele>598.123169</ele>
        <time>2018-09-08T12:38:02Z</time>
      </trkpt>
      <trkpt lat="46.13333" lon="6.47523">
        <ele>598.690735</ele>
        <time>2018-09-08T12:38:04Z</time>
      </trkpt>
      <trkpt lat="46.13339" lon="6.47522">
        <ele>598.434448</ele>
        <time>2018-09-08T12:38:05Z</time>
      </trkpt>
      <trkpt lat="46.13344" lon="6.47523">
        <ele>597.937134</ele>
        <time>2018-09-08T12:38:06Z</time>
      </trkpt>
      <trkpt lat="46.13349" lon="6.47524">
        <ele>597.149536</ele>
        <time>2018-09-08T12:38:07Z</time>
      </trkpt>
      <trkpt lat="46.13355" lon="6.47527">
        <ele>596.076599</ele>
        <time>2018-09-08T12:38:08Z</time>
      </trkpt>
      <trkpt lat="46.1336" lon="6.47531">
        <ele>594.335815</ele>
        <time>2018-09-08T12:38:09Z</time>
      </trkpt>
      <trkpt lat="46.13365" lon="6.47535">
        <ele>592.742981</ele>
        <time>2018-09-08T12:38:10Z</time>
      </trkpt>
      <trkpt lat="46.1337" lon="6.47539">
        <ele>591.184937</ele>
        <time>2018-09-08T12:38:11Z</time>
      </trkpt>
      <trkpt lat="46.13375" lon="6.47543">
        <ele>589.761902</ele>
        <time>2018-09-08T12:38:12Z</time>
      </trkpt>
      <trkpt lat="46.13386" lon="6.4755">
        <ele>587.247986</ele>
        <time>2018-09-08T12:38:14Z</time>
      </trkpt>
      <trkpt lat="46.13391" lon="6.47553">
        <ele>586.266174</ele>
        <time>2018-09-08T12:38:15Z</time>
      </trkpt>
      <trkpt lat="46.13397" lon="6.47555">
        <ele>585.708679</ele>
        <time>2018-09-08T12:38:16Z</time>
      </trkpt>
      <trkpt lat="46.13402" lon="6.47555">
        <ele>585.568542</ele>
        <time>2018-09-08T12:38:17Z</time>
      </trkpt>
      <trkpt lat="46.13408" lon="6.47555">
        <ele>585.408752</ele>
        <time>2018-09-08T12:38:18Z</time>
      </trkpt>
      <trkpt lat="46.13413" lon="6.47554">
        <ele>585.336243</ele>
        <time>2018-09-08T12:38:19Z</time>
      </trkpt>
      <trkpt lat="46.13418" lon="6.47552">
        <ele>585.498962</ele>
        <time>2018-09-08T12:38:20Z</time>
      </trkpt>
      <trkpt lat="46.13424" lon="6.4755">
        <ele>585.817993</ele>
        <time>2018-09-08T12:38:21Z</time>
      </trkpt>
      <trkpt lat="46.13429" lon="6.47548">
        <ele>586.34668</ele>
        <time>2018-09-08T12:38:22Z</time>
      </trkpt>
      <trkpt lat="46.13501" lon="6.47526">
        <ele>591.96582</ele>
        <time>2018-09-08T12:38:38Z</time>
      </trkpt>
      <trkpt lat="46.13506" lon="6.47527">
        <ele>591.229431</ele>
        <time>2018-09-08T12:38:39Z</time>
      </trkpt>
      <trkpt lat="46.1351" lon="6.47529">
        <ele>590.075012</ele>
        <time>2018-09-08T12:38:40Z</time>
      </trkpt>
      <trkpt lat="46.13515" lon="6.47531">
        <ele>588.832092</ele>
        <time>2018-09-08T12:38:41Z</time>
      </trkpt>
      <trkpt lat="46.1352" lon="6.47533">
        <ele>587.750427</ele>
        <time>2018-09-08T12:38:42Z</time>
      </trkpt>
      <trkpt lat="46.13525" lon="6.47533">
        <ele>587.222473</ele>
        <time>2018-09-08T12:38:43Z</time>
      </trkpt>
      <trkpt lat="46.13529" lon="6.47531">
        <ele>587.450134</ele>
        <time>2018-09-08T12:38:44Z</time>
      </trkpt>
      <trkpt lat="46.13533" lon="6.47527">
        <ele>588.532288</ele>
        <time>2018-09-08T12:38:45Z</time>
      </trkpt>
      <trkpt lat="46.13536" lon="6.4752">
        <ele>589.168335</ele>
        <time>2018-09-08T12:38:46Z</time>
      </trkpt>
      <trkpt lat="46.13536" lon="6.47512">
        <ele>588.042114</ele>
        <time>2018-09-08T12:38:47Z</time>
      </trkpt>
      <trkpt lat="46.13535" lon="6.47503">
        <ele>587.230408</ele>
        <time>2018-09-08T12:38:48Z</time>
      </trkpt>
      <trkpt lat="46.13532" lon="6.47494">
        <ele>586.58551</ele>
        <time>2018-09-08T12:38:49Z</time>
      </trkpt>
      <trkpt lat="46.13529" lon="6.47484">
        <ele>586.329529</ele>
        <time>2018-09-08T12:38:50Z</time>
      </trkpt>
      <trkpt lat="46.13526" lon="6.47473">
        <ele>586.431763</ele>
        <time>2018-09-08T12:38:51Z</time>
      </trkpt>
      <trkpt lat="46.13507" lon="6.4743">
        <ele>585.460571</ele>
        <time>2018-09-08T12:38:55Z</time>
      </trkpt>
      <trkpt lat="46.13482" lon="6.47386">
        <ele>582.343872</ele>
        <time>2018-09-08T12:38:59Z</time>
      </trkpt>
      <trkpt lat="46.13455" lon="6.4734">
        <ele>576.895203</ele>
        <time>2018-09-08T12:39:03Z</time>
      </trkpt>
      <trkpt lat="46.13447" lon="6.47332">
        <ele>576.186584</ele>
        <time>2018-09-08T12:39:04Z</time>
      </trkpt>
      <trkpt lat="46.13438" lon="6.47325">
        <ele>576.055603</ele>
        <time>2018-09-08T12:39:05Z</time>
      </trkpt>
      <trkpt lat="46.134" lon="6.47298">
        <ele>578.935608</ele>
        <time>2018-09-08T12:39:09Z</time>
      </trkpt>
      <trkpt lat="46.13391" lon="6.47289">
        <ele>579.494385</ele>
        <time>2018-09-08T12:39:10Z</time>
      </trkpt>
      <trkpt lat="46.13384" lon="6.47279">
        <ele>579.128845</ele>
        <time>2018-09-08T12:39:11Z</time>
      </trkpt>
      <trkpt lat="46.13371" lon="6.47255">
        <ele>575.824829</ele>
        <time>2018-09-08T12:39:13Z</time>
      </trkpt>
      <trkpt lat="46.13367" lon="6.47241">
        <ele>574.111145</ele>
        <time>2018-09-08T12:39:14Z</time>
      </trkpt>
      <trkpt lat="46.13365" lon="6.47225">
        <ele>572.128418</ele>
        <time>2018-09-08T12:39:15Z</time>
      </trkpt>
      <trkpt lat="46.13365" lon="6.47209">
        <ele>569.480164</ele>
        <time>2018-09-08T12:39:16Z</time>
      </trkpt>
      <trkpt lat="46.13365" lon="6.47192">
        <ele>566.193665</ele>
        <time>2018-09-08T12:39:17Z</time>
      </trkpt>
      <trkpt lat="46.13367" lon="6.47175">
        <ele>564.241272</ele>
        <time>2018-09-08T12:39:18Z</time>
      </trkpt>
      <trkpt lat="46.13369" lon="6.47158">
        <ele>563.25647</ele>
        <time>2018-09-08T12:39:19Z</time>
      </trkpt>
      <trkpt lat="46.13377" lon="6.47076">
        <ele>559.518127</ele>
        <time>2018-09-08T12:39:24Z</time>
      </trkpt>
      <trkpt lat="46.13378" lon="6.47061">
        <ele>558.972961</ele>
        <time>2018-09-08T12:39:25Z</time>
      </trkpt>
      <trkpt lat="46.1338" lon="6.47034">
        <ele>558.442078</ele>
        <time>2018-09-08T12:39:27Z</time>
      </trkpt>
      <trkpt lat="46.13388" lon="6.46959">
        <ele>558.168762</ele>
        <time>2018-09-08T12:39:34Z</time>
      </trkpt>
      <trkpt lat="46.13391" lon="6.46951">
        <ele>558.186279</ele>
        <time>2018-09-08T12:39:35Z</time>
      </trkpt>
      <trkpt lat="46.13399" lon="6.46935">
        <ele>558.128723</ele>
        <time>2018-09-08T12:39:37Z</time>
      </trkpt>
      <trkpt lat="46.13403" lon="6.46929">
        <ele>558.033203</ele>
        <time>2018-09-08T12:39:38Z</time>
      </trkpt>
      <trkpt lat="46.13408" lon="6.46924">
        <ele>557.855896</ele>
        <time>2018-09-08T12:39:39Z</time>
      </trkpt>
      <trkpt lat="46.13413" lon="6.4692">
        <ele>557.647644</ele>
        <time>2018-09-08T12:39:40Z</time>
      </trkpt>
      <trkpt lat="46.13418" lon="6.46917">
        <ele>557.431946</ele>
        <time>2018-09-08T12:39:41Z</time>
      </trkpt>
      <trkpt lat="46.13423" lon="6.46914">
        <ele>557.203064</ele>
        <time>2018-09-08T12:39:42Z</time>
      </trkpt>
      <trkpt lat="46.13427" lon="6.46913">
        <ele>556.988586</ele>
        <time>2018-09-08T12:39:43Z</time>
      </trkpt>
      <trkpt lat="46.13431" lon="6.46912">
        <ele>556.793457</ele>
        <time>2018-09-08T12:39:44Z</time>
      </trkpt>
      <trkpt lat="46.13434" lon="6.46913">
        <ele>556.64447</ele>
        <time>2018-09-08T12:39:45Z</time>
      </trkpt>
      <trkpt lat="46.13436" lon="6.46914">
        <ele>556.521729</ele>
        <time>2018-09-08T12:39:46Z</time>
      </trkpt>
      <trkpt lat="46.13439" lon="6.46916">
        <ele>556.404053</ele>
        <time>2018-09-08T12:39:47Z</time>
      </trkpt>
      <trkpt lat="46.13442" lon="6.46919">
        <ele>556.260498</ele>
        <time>2018-09-08T12:39:48Z</time>
      </trkpt>
      <trkpt lat="46.13449" lon="6.46924">
        <ele>555.909241</ele>
        <time>2018-09-08T12:39:50Z</time>
      </trkpt>
      <trkpt lat="46.13454" lon="6.46925">
        <ele>555.693909</ele>
        <time>2018-09-08T12:39:51Z</time>
      </trkpt>
      <trkpt lat="46.13459" lon="6.46925">
        <ele>555.46283</ele>
        <time>2018-09-08T12:39:52Z</time>
      </trkpt>
      <trkpt lat="46.13463" lon="6.46922">
        <ele>555.219238</ele>
        <time>2018-09-08T12:39:53Z</time>
      </trkpt>
      <trkpt lat="46.13467" lon="6.46917">
        <ele>554.985291</ele>
        <time>2018-09-08T12:39:54Z</time>
      </trkpt>
      <trkpt lat="46.13469" lon="6.46911">
        <ele>554.778076</ele>
        <time>2018-09-08T12:39:55Z</time>
      </trkpt>
      <trkpt lat="46.1347" lon="6.46904">
        <ele>554.636353</ele>
        <time>2018-09-08T12:39:56Z</time>
      </trkpt>
      <trkpt lat="46.1347" lon="6.46897">
        <ele>554.587708</ele>
        <time>2018-09-08T12:39:57Z</time>
      </trkpt>
      <trkpt lat="46.13467" lon="6.46891">
        <ele>554.648193</ele>
        <time>2018-09-08T12:39:58Z</time>
      </trkpt>
      <trkpt lat="46.13464" lon="6.46885">
        <ele>554.770447</ele>
        <time>2018-09-08T12:39:59Z</time>
      </trkpt>
      <trkpt lat="46.13461" lon="6.4688">
        <ele>554.921814</ele>
        <time>2018-09-08T12:40:00Z</time>
      </trkpt>
      <trkpt lat="46.13459" lon="6.46875">
        <ele>555.052795</ele>
        <time>2018-09-08T12:40:01Z</time>
      </trkpt>
      <trkpt lat="46.13457" lon="6.46869">
        <ele>555.14386</ele>
        <time>2018-09-08T12:40:02Z</time>
      </trkpt>
      <trkpt lat="46.13455" lon="6.46863">
        <ele>555.2453</ele>
        <time>2018-09-08T12:40:03Z</time>
      </trkpt>
      <trkpt lat="46.13455" lon="6.46857">
        <ele>555.315002</ele>
        <time>2018-09-08T12:40:04Z</time>
      </trkpt>
      <trkpt lat="46.13455" lon="6.46851">
        <ele>555.327271</ele>
        <time>2018-09-08T12:40:05Z</time>
      </trkpt>
      <trkpt lat="46.13456" lon="6.46846">
        <ele>555.280762</ele>
        <time>2018-09-08T12:40:06Z</time>
      </trkpt>
      <trkpt lat="46.13458" lon="6.46841">
        <ele>555.198303</ele>
        <time>2018-09-08T12:40:07Z</time>
      </trkpt>
      <trkpt lat="46.13464" lon="6.46825">
        <ele>555.072937</ele>
        <time>2018-09-08T12:40:10Z</time>
      </trkpt>
      <trkpt lat="46.13466" lon="6.46819">
        <ele>555.083923</ele>
        <time>2018-09-08T12:40:11Z</time>
      </trkpt>
      <trkpt lat="46.13467" lon="6.46808">
        <ele>555.158997</ele>
        <time>2018-09-08T12:40:13Z</time>
      </trkpt>
      <trkpt lat="46.13468" lon="6.46802">
        <ele>555.232483</ele>
        <time>2018-09-08T12:40:14Z</time>
      </trkpt>
      <trkpt lat="46.1347" lon="6.46696">
        <ele>557.200989</ele>
        <time>2018-09-08T12:40:33Z</time>
      </trkpt>
      <trkpt lat="46.13478" lon="6.46644">
        <ele>557.652649</ele>
        <time>2018-09-08T12:40:42Z</time>
      </trkpt>
      <trkpt lat="46.1348" lon="6.46638">
        <ele>557.674255</ele>
        <time>2018-09-08T12:40:43Z</time>
      </trkpt>
      <trkpt lat="46.13481" lon="6.46632">
        <ele>557.723328</ele>
        <time>2018-09-08T12:40:44Z</time>
      </trkpt>
      <trkpt lat="46.13507" lon="6.46525">
        <ele>558.465027</ele>
        <time>2018-09-08T12:41:04Z</time>
      </trkpt>
      <trkpt lat="46.13546" lon="6.46441">
        <ele>559.078674</ele>
        <time>2018-09-08T12:41:23Z</time>
      </trkpt>
      <trkpt lat="46.13572" lon="6.46358">
        <ele>559.773132</ele>
        <time>2018-09-08T12:41:40Z</time>
      </trkpt>
      <trkpt lat="46.13592" lon="6.46308">
        <ele>560.03302</ele>
        <time>2018-09-08T12:41:53Z</time>
      </trkpt>
      <trkpt lat="46.13619" lon="6.46255">
        <ele>560.479675</ele>
        <time>2018-09-08T12:42:11Z</time>
      </trkpt>
      <trkpt lat="46.13619" lon="6.46252">
        <ele>560.509399</ele>
        <time>2018-09-08T12:42:12Z</time>
      </trkpt>
      <trkpt lat="46.13618" lon="6.46249">
        <ele>560.531372</ele>
        <time>2018-09-08T12:42:13Z</time>
      </trkpt>
      <trkpt lat="46.13606" lon="6.4618">
        <ele>562.286865</ele>
        <time>2018-09-08T12:42:32Z</time>
      </trkpt>
      <trkpt lat="46.13605" lon="6.46134">
        <ele>564.025024</ele>
        <time>2018-09-08T12:42:43Z</time>
      </trkpt>
      <trkpt lat="46.13603" lon="6.46062">
        <ele>566.445007</ele>
        <time>2018-09-08T12:43:00Z</time>
      </trkpt>
      <trkpt lat="46.13605" lon="6.46031">
        <ele>567.420532</ele>
        <time>2018-09-08T12:43:09Z</time>
      </trkpt>
      <trkpt lat="46.13606" lon="6.46028">
        <ele>567.507935</ele>
        <time>2018-09-08T12:43:10Z</time>
      </trkpt>
      <trkpt lat="46.13608" lon="6.46027">
        <ele>567.586914</ele>
        <time>2018-09-08T12:43:11Z</time>
      </trkpt>
      <trkpt lat="46.1361" lon="6.46026">
        <ele>567.647217</ele>
        <time>2018-09-08T12:43:12Z</time>
      </trkpt>
      <trkpt lat="46.13611" lon="6.46025">
        <ele>567.697998</ele>
        <time>2018-09-08T12:43:13Z</time>
      </trkpt>
      <trkpt lat="46.13613" lon="6.46025">
        <ele>567.737976</ele>
        <time>2018-09-08T12:43:14Z</time>
      </trkpt>
      <trkpt lat="46.13615" lon="6.46025">
        <ele>567.770081</ele>
        <time>2018-09-08T12:43:15Z</time>
      </trkpt>
      <trkpt lat="46.13617" lon="6.46026">
        <ele>567.802429</ele>
        <time>2018-09-08T12:43:16Z</time>
      </trkpt>
      <trkpt lat="46.1362" lon="6.46026">
        <ele>567.834961</ele>
        <time>2018-09-08T12:43:17Z</time>
      </trkpt>
      <trkpt lat="46.13657" lon="6.46026">
        <ele>569.039978</ele>
        <time>2018-09-08T12:43:35Z</time>
      </trkpt>
      <trkpt lat="46.13687" lon="6.45997">
        <ele>570.817505</ele>
        <time>2018-09-08T12:43:53Z</time>
      </trkpt>
      <trkpt lat="46.13694" lon="6.45935">
        <ele>572.121277</ele>
        <time>2018-09-08T12:44:09Z</time>
      </trkpt>
      <trkpt lat="46.137" lon="6.45848">
        <ele>571.828003</ele>
        <time>2018-09-08T12:44:29Z</time>
      </trkpt>
      <trkpt lat="46.13708" lon="6.45735">
        <ele>572.85498</ele>
        <time>2018-09-08T12:44:53Z</time>
      </trkpt>
      <trkpt lat="46.13717" lon="6.45638">
        <ele>574.683777</ele>
        <time>2018-09-08T12:45:12Z</time>
      </trkpt>
      <trkpt lat="46.13725" lon="6.45537">
        <ele>575.928772</ele>
        <time>2018-09-08T12:45:33Z</time>
      </trkpt>
      <trkpt lat="46.13733" lon="6.45443">
        <ele>576.125977</ele>
        <time>2018-09-08T12:45:53Z</time>
      </trkpt>
      <trkpt lat="46.13742" lon="6.45354">
        <ele>576.44397</ele>
        <time>2018-09-08T12:46:13Z</time>
      </trkpt>
      <trkpt lat="46.13745" lon="6.45352">
        <ele>576.348022</ele>
        <time>2018-09-08T12:46:14Z</time>
      </trkpt>
      <trkpt lat="46.1378" lon="6.45332">
        <ele>578.391235</ele>
        <time>2018-09-08T12:46:29Z</time>
      </trkpt>
      <trkpt lat="46.13784" lon="6.45329">
        <ele>578.690552</ele>
        <time>2018-09-08T12:46:42Z</time>
      </trkpt>
      <trkpt lat="46.13812" lon="6.45315">
        <ele>582.431641</ele>
        <time>2018-09-08T12:46:54Z</time>
      </trkpt>
      <trkpt lat="46.13813" lon="6.45318">
        <ele>582.672668</ele>
        <time>2018-09-08T12:46:55Z</time>
      </trkpt>
      <trkpt lat="46.13814" lon="6.45321">
        <ele>582.846252</ele>
        <time>2018-09-08T12:46:56Z</time>
      </trkpt>
      <trkpt lat="46.1382" lon="6.45338">
        <ele>583.728149</ele>
        <time>2018-09-08T12:47:02Z</time>
      </trkpt>
      <trkpt lat="46.13822" lon="6.45338">
        <ele>584.080627</ele>
        <time>2018-09-08T12:47:03Z</time>
      </trkpt>
      <trkpt lat="46.13823" lon="6.45336">
        <ele>584.335632</ele>
        <time>2018-09-08T12:47:04Z</time>
      </trkpt>
      <trkpt lat="46.13823" lon="6.45333">
        <ele>584.494751</ele>
        <time>2018-09-08T12:47:05Z</time>
      </trkpt>
      <trkpt lat="46.13824" lon="6.4533">
        <ele>584.662659</ele>
        <time>2018-09-08T12:47:06Z</time>
      </trkpt>
      <trkpt lat="46.13824" lon="6.45327">
        <ele>584.875183</ele>
        <time>2018-09-08T12:47:07Z</time>
      </trkpt>
      <trkpt lat="46.13832" lon="6.45276">
        <ele>588.650757</ele>
        <time>2018-09-08T12:47:24Z</time>
      </trkpt>
      <trkpt lat="46.13833" lon="6.45235">
        <ele>593.321106</ele>
        <time>2018-09-08T12:47:38Z</time>
      </trkpt>
      <trkpt lat="46.13834" lon="6.45211">
        <ele>596.008667</ele>
        <time>2018-09-08T12:47:48Z</time>
      </trkpt>
      <trkpt lat="46.13834" lon="6.45208">
        <ele>596.367188</ele>
        <time>2018-09-08T12:47:49Z</time>
      </trkpt>
      <trkpt lat="46.13834" lon="6.45205">
        <ele>596.779724</ele>
        <time>2018-09-08T12:47:50Z</time>
      </trkpt>
      <trkpt lat="46.13834" lon="6.45203">
        <ele>597.200684</ele>
        <time>2018-09-08T12:47:51Z</time>
      </trkpt>
      <trkpt lat="46.13834" lon="6.452">
        <ele>597.554016</ele>
        <time>2018-09-08T12:47:52Z</time>
      </trkpt>
      <trkpt lat="46.13836" lon="6.45171">
        <ele>603.618774</ele>
        <time>2018-09-08T12:48:04Z</time>
      </trkpt>
      <trkpt lat="46.1383" lon="6.45135">
        <ele>605.717529</ele>
        <time>2018-09-08T12:48:17Z</time>
      </trkpt>
      <trkpt lat="46.13814" lon="6.45097">
        <ele>602.682251</ele>
        <time>2018-09-08T12:48:32Z</time>
      </trkpt>
      <trkpt lat="46.13796" lon="6.45055">
        <ele>602.515991</ele>
        <time>2018-09-08T12:48:49Z</time>
      </trkpt>
      <trkpt lat="46.1378" lon="6.45024">
        <ele>600.645142</ele>
        <time>2018-09-08T12:49:04Z</time>
      </trkpt>
      <trkpt lat="46.1377" lon="6.44987">
        <ele>601.975403</ele>
        <time>2018-09-08T12:49:20Z</time>
      </trkpt>
      <trkpt lat="46.1376" lon="6.44948">
        <ele>604.33374</ele>
        <time>2018-09-08T12:49:37Z</time>
      </trkpt>
      <trkpt lat="46.13754" lon="6.44915">
        <ele>605.97699</ele>
        <time>2018-09-08T12:49:52Z</time>
      </trkpt>
      <trkpt lat="46.13755" lon="6.44913">
        <ele>606.575073</ele>
        <time>2018-09-08T12:49:53Z</time>
      </trkpt>
      <trkpt lat="46.13755" lon="6.44909">
        <ele>607.243347</ele>
        <time>2018-09-08T12:49:54Z</time>
      </trkpt>
      <trkpt lat="46.13755" lon="6.44906">
        <ele>607.38324</ele>
        <time>2018-09-08T12:49:55Z</time>
      </trkpt>
      <trkpt lat="46.13755" lon="6.44904">
        <ele>607.662964</ele>
        <time>2018-09-08T12:49:56Z</time>
      </trkpt>
      <trkpt lat="46.13755" lon="6.44902">
        <ele>607.842163</ele>
        <time>2018-09-08T12:49:57Z</time>
      </trkpt>
      <trkpt lat="46.13754" lon="6.449">
        <ele>607.863892</ele>
        <time>2018-09-08T12:49:58Z</time>
      </trkpt>
      <trkpt lat="46.13754" lon="6.44897">
        <ele>608.08374</ele>
        <time>2018-09-08T12:49:59Z</time>
      </trkpt>
      <trkpt lat="46.13753" lon="6.44895">
        <ele>608.112854</ele>
        <time>2018-09-08T12:50:00Z</time>
      </trkpt>
      <trkpt lat="46.13753" lon="6.44893">
        <ele>607.979553</ele>
        <time>2018-09-08T12:50:01Z</time>
      </trkpt>
      <trkpt lat="46.13752" lon="6.44892">
        <ele>607.858093</ele>
        <time>2018-09-08T12:50:02Z</time>
      </trkpt>
      <trkpt lat="46.13752" lon="6.4489">
        <ele>608.087524</ele>
        <time>2018-09-08T12:50:03Z</time>
      </trkpt>
      <trkpt lat="46.13752" lon="6.44888">
        <ele>608.267944</ele>
        <time>2018-09-08T12:50:04Z</time>
      </trkpt>
      <trkpt lat="46.13752" lon="6.44886">
        <ele>608.551514</ele>
        <time>2018-09-08T12:50:05Z</time>
      </trkpt>
      <trkpt lat="46.13752" lon="6.44884">
        <ele>608.845947</ele>
        <time>2018-09-08T12:50:06Z</time>
      </trkpt>
      <trkpt lat="46.13752" lon="6.44882">
        <ele>609.179993</ele>
        <time>2018-09-08T12:50:07Z</time>
      </trkpt>
      <trkpt lat="46.13752" lon="6.4488">
        <ele>609.147034</ele>
        <time>2018-09-08T12:50:08Z</time>
      </trkpt>
      <trkpt lat="46.13753" lon="6.44878">
        <ele>609.318665</ele>
        <time>2018-09-08T12:50:09Z</time>
      </trkpt>
      <trkpt lat="46.13753" lon="6.44876">
        <ele>609.612305</ele>
        <time>2018-09-08T12:50:10Z</time>
      </trkpt>
      <trkpt lat="46.13753" lon="6.44861">
        <ele>609.763</ele>
        <time>2018-09-08T12:50:17Z</time>
      </trkpt>
      <trkpt lat="46.13752" lon="6.44859">
        <ele>609.466492</ele>
        <time>2018-09-08T12:50:18Z</time>
      </trkpt>
      <trkpt lat="46.13751" lon="6.44857">
        <ele>609.299194</ele>
        <time>2018-09-08T12:50:19Z</time>
      </trkpt>
      <trkpt lat="46.13751" lon="6.44854">
        <ele>609.144775</ele>
        <time>2018-09-08T12:50:20Z</time>
      </trkpt>
      <trkpt lat="46.13748" lon="6.44844">
        <ele>608.413513</ele>
        <time>2018-09-08T12:50:25Z</time>
      </trkpt>
      <trkpt lat="46.13737" lon="6.44803">
        <ele>607.436279</ele>
        <time>2018-09-08T12:50:41Z</time>
      </trkpt>
      <trkpt lat="46.1372" lon="6.44736">
        <ele>609.260803</ele>
        <time>2018-09-08T12:51:00Z</time>
      </trkpt>
      <trkpt lat="46.13714" lon="6.44677">
        <ele>610.311218</ele>
        <time>2018-09-08T12:51:17Z</time>
      </trkpt>
      <trkpt lat="46.1371" lon="6.44625">
        <ele>613.936218</ele>
        <time>2018-09-08T12:51:34Z</time>
      </trkpt>
      <trkpt lat="46.13704" lon="6.44597">
        <ele>614.296692</ele>
        <time>2018-09-08T12:51:45Z</time>
      </trkpt>
      <trkpt lat="46.13704" lon="6.44594">
        <ele>614.342407</ele>
        <time>2018-09-08T12:51:46Z</time>
      </trkpt>
      <trkpt lat="46.13701" lon="6.44533">
        <ele>614.068176</ele>
        <time>2018-09-08T12:52:01Z</time>
      </trkpt>
      <trkpt lat="46.1371" lon="6.44465">
        <ele>613.280884</ele>
        <time>2018-09-08T12:52:13Z</time>
      </trkpt>
      <trkpt lat="46.13711" lon="6.44459">
        <ele>613.295105</ele>
        <time>2018-09-08T12:52:14Z</time>
      </trkpt>
      <trkpt lat="46.1372" lon="6.44351">
        <ele>611.481445</ele>
        <time>2018-09-08T12:52:32Z</time>
      </trkpt>
      <trkpt lat="46.13702" lon="6.44286">
        <ele>609.359497</ele>
        <time>2018-09-08T12:52:46Z</time>
      </trkpt>
      <trkpt lat="46.13664" lon="6.44188">
        <ele>610.48645</ele>
        <time>2018-09-08T12:53:08Z</time>
      </trkpt>
      <trkpt lat="46.13642" lon="6.44112">
        <ele>611.050049</ele>
        <time>2018-09-08T12:53:26Z</time>
      </trkpt>
      <trkpt lat="46.13665" lon="6.441">
        <ele>613.926392</ele>
        <time>2018-09-08T12:53:35Z</time>
      </trkpt>
      <trkpt lat="46.13699" lon="6.44093">
        <ele>616.972168</ele>
        <time>2018-09-08T12:53:51Z</time>
      </trkpt>
      <trkpt lat="46.13698" lon="6.44092">
        <ele>616.925232</ele>
        <time>2018-09-08T12:53:52Z</time>
      </trkpt>
      <trkpt lat="46.13697" lon="6.44091">
        <ele>616.796509</ele>
        <time>2018-09-08T12:53:53Z</time>
      </trkpt>
      <trkpt lat="46.13695" lon="6.44089">
        <ele>616.641479</ele>
        <time>2018-09-08T12:53:54Z</time>
      </trkpt>
      <trkpt lat="46.13695" lon="6.44085">
        <ele>616.581665</ele>
        <time>2018-09-08T12:53:55Z</time>
      </trkpt>
      <trkpt lat="46.13695" lon="6.44081">
        <ele>616.581421</ele>
        <time>2018-09-08T12:53:56Z</time>
      </trkpt>
      <trkpt lat="46.13697" lon="6.44004">
        <ele>615.367737</ele>
        <time>2018-09-08T12:54:08Z</time>
      </trkpt>
      <trkpt lat="46.13697" lon="6.43927">
        <ele>614.280029</ele>
        <time>2018-09-08T12:54:19Z</time>
      </trkpt>
      <trkpt lat="46.13696" lon="6.43921">
        <ele>614.23999</ele>
        <time>2018-09-08T12:54:20Z</time>
      </trkpt>
      <trkpt lat="46.13696" lon="6.43914">
        <ele>614.23999</ele>
        <time>2018-09-08T12:54:21Z</time>
      </trkpt>
      <trkpt lat="46.13697" lon="6.43879">
        <ele>614.179993</ele>
        <time>2018-09-08T12:54:27Z</time>
      </trkpt>
      <trkpt lat="46.13702" lon="6.43843">
        <ele>614.5</ele>
        <time>2018-09-08T12:54:33Z</time>
      </trkpt>
      <trkpt lat="46.13703" lon="6.43838">
        <ele>614.538757</ele>
        <time>2018-09-08T12:54:34Z</time>
      </trkpt>
      <trkpt lat="46.13727" lon="6.43761">
        <ele>615.496155</ele>
        <time>2018-09-08T12:54:50Z</time>
      </trkpt>
      <trkpt lat="46.1374" lon="6.43718">
        <ele>616.477356</ele>
        <time>2018-09-08T12:55:05Z</time>
      </trkpt>
      <trkpt lat="46.13758" lon="6.43675">
        <ele>618.57251</ele>
        <time>2018-09-08T12:55:19Z</time>
      </trkpt>
      <trkpt lat="46.13776" lon="6.436">
        <ele>619.262512</ele>
        <time>2018-09-08T12:55:37Z</time>
      </trkpt>
      <trkpt lat="46.13774" lon="6.43566">
        <ele>618.308655</ele>
        <time>2018-09-08T12:55:49Z</time>
      </trkpt>
      <trkpt lat="46.13775" lon="6.43562">
        <ele>618.221619</ele>
        <time>2018-09-08T12:55:50Z</time>
      </trkpt>
      <trkpt lat="46.13776" lon="6.43559">
        <ele>618.145203</ele>
        <time>2018-09-08T12:55:51Z</time>
      </trkpt>
      <trkpt lat="46.13794" lon="6.43526">
        <ele>617.066284</ele>
        <time>2018-09-08T12:56:00Z</time>
      </trkpt>
      <trkpt lat="46.13794" lon="6.43521">
        <ele>616.784973</ele>
        <time>2018-09-08T12:56:01Z</time>
      </trkpt>
      <trkpt lat="46.13792" lon="6.43516">
        <ele>616.48999</ele>
        <time>2018-09-08T12:56:02Z</time>
      </trkpt>
      <trkpt lat="46.1379" lon="6.43512">
        <ele>616.26001</ele>
        <time>2018-09-08T12:56:03Z</time>
      </trkpt>
      <trkpt lat="46.13788" lon="6.43509">
        <ele>616.054993</ele>
        <time>2018-09-08T12:56:04Z</time>
      </trkpt>
      <trkpt lat="46.13785" lon="6.43505">
        <ele>615.859985</ele>
        <time>2018-09-08T12:56:05Z</time>
      </trkpt>
      <trkpt lat="46.13759" lon="6.43464">
        <ele>616.168274</ele>
        <time>2018-09-08T12:56:20Z</time>
      </trkpt>
      <trkpt lat="46.1373" lon="6.43409">
        <ele>615.067566</ele>
        <time>2018-09-08T12:56:40Z</time>
      </trkpt>
      <trkpt lat="46.13694" lon="6.43365">
        <ele>619.25415</ele>
        <time>2018-09-08T12:56:58Z</time>
      </trkpt>
      <trkpt lat="46.1365" lon="6.43369">
        <ele>624.837646</ele>
        <time>2018-09-08T12:57:15Z</time>
      </trkpt>
      <trkpt lat="46.13604" lon="6.43396">
        <ele>626.41217</ele>
        <time>2018-09-08T12:57:34Z</time>
      </trkpt>
      <trkpt lat="46.13563" lon="6.43404">
        <ele>628.491516</ele>
        <time>2018-09-08T12:57:51Z</time>
      </trkpt>
      <trkpt lat="46.13515" lon="6.43398">
        <ele>631.3396</ele>
        <time>2018-09-08T12:58:10Z</time>
      </trkpt>
      <trkpt lat="46.13467" lon="6.43392">
        <ele>632.004272</ele>
        <time>2018-09-08T12:58:29Z</time>
      </trkpt>
      <trkpt lat="46.13411" lon="6.43397">
        <ele>634.016785</ele>
        <time>2018-09-08T12:58:49Z</time>
      </trkpt>
      <trkpt lat="46.13357" lon="6.43369">
        <ele>635.95929</ele>
        <time>2018-09-08T12:59:07Z</time>
      </trkpt>
      <trkpt lat="46.1333" lon="6.43341">
        <ele>636.421326</ele>
        <time>2018-09-08T12:59:19Z</time>
      </trkpt>
      <trkpt lat="46.13329" lon="6.43342">
        <ele>636.196472</ele>
        <time>2018-09-08T12:59:20Z</time>
      </trkpt>
      <trkpt lat="46.13327" lon="6.43344">
        <ele>635.963989</ele>
        <time>2018-09-08T12:59:21Z</time>
      </trkpt>
      <trkpt lat="46.13326" lon="6.43346">
        <ele>635.783386</ele>
        <time>2018-09-08T12:59:22Z</time>
      </trkpt>
      <trkpt lat="46.13326" lon="6.43347">
        <ele>635.687988</ele>
        <time>2018-09-08T12:59:37Z</time>
      </trkpt>
      <trkpt lat="46.13325" lon="6.43347">
        <ele>635.610413</ele>
        <time>2018-09-08T13:00:28Z</time>
      </trkpt>
      <trkpt lat="46.13324" lon="6.43348">
        <ele>635.492981</ele>
        <time>2018-09-08T13:00:29Z</time>
      </trkpt>
      <trkpt lat="46.13323" lon="6.4335">
        <ele>635.301208</ele>
        <time>2018-09-08T13:00:30Z</time>
      </trkpt>
      <trkpt lat="46.13323" lon="6.43353">
        <ele>635.065247</ele>
        <time>2018-09-08T13:00:31Z</time>
      </trkpt>
      <trkpt lat="46.13298" lon="6.43402">
        <ele>632.921265</ele>
        <time>2018-09-08T13:00:44Z</time>
      </trkpt>
      <trkpt lat="46.13239" lon="6.43389">
        <ele>633.161926</ele>
        <time>2018-09-08T13:01:01Z</time>
      </trkpt>
      <trkpt lat="46.13203" lon="6.43356">
        <ele>639.052307</ele>
        <time>2018-09-08T13:01:16Z</time>
      </trkpt>
      <trkpt lat="46.13189" lon="6.43332">
        <ele>642.878113</ele>
        <time>2018-09-08T13:01:26Z</time>
      </trkpt>
      <trkpt lat="46.13177" lon="6.43312">
        <ele>646.425598</ele>
        <time>2018-09-08T13:01:35Z</time>
      </trkpt>
      <trkpt lat="46.13166" lon="6.43286">
        <ele>647.904236</ele>
        <time>2018-09-08T13:01:46Z</time>
      </trkpt>
      <trkpt lat="46.13161" lon="6.43247">
        <ele>646.011902</ele>
        <time>2018-09-08T13:02:04Z</time>
      </trkpt>
      <trkpt lat="46.13161" lon="6.43217">
        <ele>643.471436</ele>
        <time>2018-09-08T13:02:19Z</time>
      </trkpt>
      <trkpt lat="46.13154" lon="6.43166">
        <ele>643.30072</ele>
        <time>2018-09-08T13:02:33Z</time>
      </trkpt>
      <trkpt lat="46.1315" lon="6.43134">
        <ele>640.48877</ele>
        <time>2018-09-08T13:02:38Z</time>
      </trkpt>
      <trkpt lat="46.13147" lon="6.43109">
        <ele>637.62854</ele>
        <time>2018-09-08T13:02:41Z</time>
      </trkpt>
      <trkpt lat="46.13147" lon="6.43101">
        <ele>636.838074</ele>
        <time>2018-09-08T13:02:42Z</time>
      </trkpt>
      <trkpt lat="46.13148" lon="6.43093">
        <ele>636.253357</ele>
        <time>2018-09-08T13:02:43Z</time>
      </trkpt>
      <trkpt lat="46.1315" lon="6.43086">
        <ele>635.793762</ele>
        <time>2018-09-08T13:02:44Z</time>
      </trkpt>
      <trkpt lat="46.13153" lon="6.43079">
        <ele>635.418884</ele>
        <time>2018-09-08T13:02:45Z</time>
      </trkpt>
      <trkpt lat="46.13157" lon="6.43074">
        <ele>635.330994</ele>
        <time>2018-09-08T13:02:46Z</time>
      </trkpt>
      <trkpt lat="46.13162" lon="6.4307">
        <ele>635.356628</ele>
        <time>2018-09-08T13:02:47Z</time>
      </trkpt>
      <trkpt lat="46.13167" lon="6.43067">
        <ele>634.276855</ele>
        <time>2018-09-08T13:02:48Z</time>
      </trkpt>
      <trkpt lat="46.13172" lon="6.43066">
        <ele>633.419006</ele>
        <time>2018-09-08T13:02:49Z</time>
      </trkpt>
      <trkpt lat="46.13176" lon="6.43066">
        <ele>632.745239</ele>
        <time>2018-09-08T13:02:50Z</time>
      </trkpt>
      <trkpt lat="46.13179" lon="6.43066">
        <ele>632.276917</ele>
        <time>2018-09-08T13:02:51Z</time>
      </trkpt>
      <trkpt lat="46.13182" lon="6.43066">
        <ele>631.935181</ele>
        <time>2018-09-08T13:02:52Z</time>
      </trkpt>
      <trkpt lat="46.13186" lon="6.43065">
        <ele>631.326477</ele>
        <time>2018-09-08T13:02:54Z</time>
      </trkpt>
      <trkpt lat="46.13187" lon="6.43061">
        <ele>630.985779</ele>
        <time>2018-09-08T13:02:55Z</time>
      </trkpt>
      <trkpt lat="46.13185" lon="6.43057">
        <ele>630.833435</ele>
        <time>2018-09-08T13:02:56Z</time>
      </trkpt>
      <trkpt lat="46.13183" lon="6.43053">
        <ele>630.793518</ele>
        <time>2018-09-08T13:02:57Z</time>
      </trkpt>
      <trkpt lat="46.13181" lon="6.4305">
        <ele>630.793091</ele>
        <time>2018-09-08T13:02:58Z</time>
      </trkpt>
      <trkpt lat="46.13178" lon="6.43047">
        <ele>630.773499</ele>
        <time>2018-09-08T13:02:59Z</time>
      </trkpt>
      <trkpt lat="46.13123" lon="6.42977">
        <ele>626.373779</ele>
        <time>2018-09-08T13:03:15Z</time>
      </trkpt>
      <trkpt lat="46.13064" lon="6.42915">
        <ele>626.397705</ele>
        <time>2018-09-08T13:03:30Z</time>
      </trkpt>
      <trkpt lat="46.1298" lon="6.42854">
        <ele>624.869995</ele>
        <time>2018-09-08T13:03:49Z</time>
      </trkpt>
      <trkpt lat="46.12976" lon="6.42849">
        <ele>624.944458</ele>
        <time>2018-09-08T13:03:50Z</time>
      </trkpt>
      <trkpt lat="46.12937" lon="6.42759">
        <ele>626.974731</ele>
        <time>2018-09-08T13:04:05Z</time>
      </trkpt>
      <trkpt lat="46.12908" lon="6.42669">
        <ele>627.299805</ele>
        <time>2018-09-08T13:04:21Z</time>
      </trkpt>
      <trkpt lat="46.12883" lon="6.42572">
        <ele>629.764832</ele>
        <time>2018-09-08T13:04:39Z</time>
      </trkpt>
      <trkpt lat="46.12862" lon="6.42488">
        <ele>627.944336</ele>
        <time>2018-09-08T13:04:56Z</time>
      </trkpt>
      <trkpt lat="46.12839" lon="6.4245">
        <ele>629.627625</ele>
        <time>2018-09-08T13:05:06Z</time>
      </trkpt>
      <trkpt lat="46.12806" lon="6.42379">
        <ele>631.523499</ele>
        <time>2018-09-08T13:05:24Z</time>
      </trkpt>
      <trkpt lat="46.12777" lon="6.42314">
        <ele>634.157837</ele>
        <time>2018-09-08T13:05:41Z</time>
      </trkpt>
      <trkpt lat="46.12775" lon="6.4231">
        <ele>634.385498</ele>
        <time>2018-09-08T13:05:42Z</time>
      </trkpt>
      <trkpt lat="46.1274" lon="6.42238">
        <ele>638.125</ele>
        <time>2018-09-08T13:06:02Z</time>
      </trkpt>
      <trkpt lat="46.12713" lon="6.42189">
        <ele>641.325012</ele>
        <time>2018-09-08T13:06:17Z</time>
      </trkpt>
      <trkpt lat="46.12684" lon="6.42135">
        <ele>645.013916</ele>
        <time>2018-09-08T13:06:36Z</time>
      </trkpt>
      <trkpt lat="46.1266" lon="6.4209">
        <ele>647.779907</ele>
        <time>2018-09-08T13:06:53Z</time>
      </trkpt>
      <trkpt lat="46.12631" lon="6.42038">
        <ele>650.687927</ele>
        <time>2018-09-08T13:07:14Z</time>
      </trkpt>
      <trkpt lat="46.12605" lon="6.41991">
        <ele>652.772522</ele>
        <time>2018-09-08T13:07:32Z</time>
      </trkpt>
      <trkpt lat="46.12575" lon="6.41946">
        <ele>655.632507</ele>
        <time>2018-09-08T13:07:52Z</time>
      </trkpt>
      <trkpt lat="46.12538" lon="6.41892">
        <ele>659.265015</ele>
        <time>2018-09-08T13:08:16Z</time>
      </trkpt>
      <trkpt lat="46.12508" lon="6.41848">
        <ele>661.777527</ele>
        <time>2018-09-08T13:08:36Z</time>
      </trkpt>
      <trkpt lat="46.12477" lon="6.41796">
        <ele>664.176453</ele>
        <time>2018-09-08T13:08:57Z</time>
      </trkpt>
      <trkpt lat="46.12459" lon="6.4173">
        <ele>664.86499</ele>
        <time>2018-09-08T13:09:19Z</time>
      </trkpt>
      <trkpt lat="46.12448" lon="6.41685">
        <ele>665.799988</ele>
        <time>2018-09-08T13:09:35Z</time>
      </trkpt>
      <trkpt lat="46.12435" lon="6.41632">
        <ele>666.429993</ele>
        <time>2018-09-08T13:09:55Z</time>
      </trkpt>
      <trkpt lat="46.12429" lon="6.41615">
        <ele>666.765015</ele>
        <time>2018-09-08T13:10:02Z</time>
      </trkpt>
      <trkpt lat="46.12428" lon="6.41612">
        <ele>666.80249</ele>
        <time>2018-09-08T13:10:03Z</time>
      </trkpt>
      <trkpt lat="46.12427" lon="6.4161">
        <ele>666.844971</ele>
        <time>2018-09-08T13:10:04Z</time>
      </trkpt>
      <trkpt lat="46.12408" lon="6.41559">
        <ele>668.212463</ele>
        <time>2018-09-08T13:10:24Z</time>
      </trkpt>
      <trkpt lat="46.12388" lon="6.41518">
        <ele>669.835022</ele>
        <time>2018-09-08T13:10:41Z</time>
      </trkpt>
      <trkpt lat="46.12371" lon="6.41481">
        <ele>671.085022</ele>
        <time>2018-09-08T13:10:56Z</time>
      </trkpt>
      <trkpt lat="46.12348" lon="6.4144">
        <ele>673.337036</ele>
        <time>2018-09-08T13:11:15Z</time>
      </trkpt>
      <trkpt lat="46.12322" lon="6.41405">
        <ele>675.82373</ele>
        <time>2018-09-08T13:11:34Z</time>
      </trkpt>
      <trkpt lat="46.12298" lon="6.41365">
        <ele>677.372498</ele>
        <time>2018-09-08T13:11:51Z</time>
      </trkpt>
      <trkpt lat="46.12276" lon="6.41324">
        <ele>678.830139</ele>
        <time>2018-09-08T13:12:09Z</time>
      </trkpt>
      <trkpt lat="46.12264" lon="6.41257">
        <ele>679.196228</ele>
        <time>2018-09-08T13:12:31Z</time>
      </trkpt>
      <trkpt lat="46.12253" lon="6.41206">
        <ele>682.408386</ele>
        <time>2018-09-08T13:12:48Z</time>
      </trkpt>
      <trkpt lat="46.12242" lon="6.41171">
        <ele>685.545776</ele>
        <time>2018-09-08T13:13:04Z</time>
      </trkpt>
      <trkpt lat="46.12236" lon="6.41123">
        <ele>688.428284</ele>
        <time>2018-09-08T13:13:25Z</time>
      </trkpt>
      <trkpt lat="46.12225" lon="6.41096">
        <ele>691.14386</ele>
        <time>2018-09-08T13:13:39Z</time>
      </trkpt>
      <trkpt lat="46.12222" lon="6.41091">
        <ele>691.755432</ele>
        <time>2018-09-08T13:13:42Z</time>
      </trkpt>
      <trkpt lat="46.12221" lon="6.4109">
        <ele>691.992859</ele>
        <time>2018-09-08T13:13:43Z</time>
      </trkpt>
      <trkpt lat="46.1222" lon="6.41089">
        <ele>692.232727</ele>
        <time>2018-09-08T13:13:44Z</time>
      </trkpt>
      <trkpt lat="46.12219" lon="6.41088">
        <ele>692.439575</ele>
        <time>2018-09-08T13:13:45Z</time>
      </trkpt>
      <trkpt lat="46.12218" lon="6.41086">
        <ele>692.609802</ele>
        <time>2018-09-08T13:13:46Z</time>
      </trkpt>
      <trkpt lat="46.12208" lon="6.41077">
        <ele>694.255615</ele>
        <time>2018-09-08T13:13:54Z</time>
      </trkpt>
      <trkpt lat="46.12207" lon="6.41076">
        <ele>694.44458</ele>
        <time>2018-09-08T13:13:55Z</time>
      </trkpt>
      <trkpt lat="46.12207" lon="6.41074">
        <ele>694.596497</ele>
        <time>2018-09-08T13:13:56Z</time>
      </trkpt>
      <trkpt lat="46.12206" lon="6.41072">
        <ele>694.820007</ele>
        <time>2018-09-08T13:13:57Z</time>
      </trkpt>
      <trkpt lat="46.12204" lon="6.41071">
        <ele>695.078735</ele>
        <time>2018-09-08T13:13:58Z</time>
      </trkpt>
      <trkpt lat="46.12203" lon="6.4107">
        <ele>695.349976</ele>
        <time>2018-09-08T13:13:59Z</time>
      </trkpt>
      <trkpt lat="46.12201" lon="6.4107">
        <ele>695.602478</ele>
        <time>2018-09-08T13:14:00Z</time>
      </trkpt>
      <trkpt lat="46.12185" lon="6.41058">
        <ele>698.799438</ele>
        <time>2018-09-08T13:14:12Z</time>
      </trkpt>
      <trkpt lat="46.1217" lon="6.41038">
        <ele>701.955811</ele>
        <time>2018-09-08T13:14:26Z</time>
      </trkpt>
      <trkpt lat="46.12163" lon="6.40999">
        <ele>704.146179</ele>
        <time>2018-09-08T13:14:47Z</time>
      </trkpt>
      <trkpt lat="46.12167" lon="6.40968">
        <ele>704.872314</ele>
        <time>2018-09-08T13:15:05Z</time>
      </trkpt>
      <trkpt lat="46.1217" lon="6.40935">
        <ele>705.719971</ele>
        <time>2018-09-08T13:15:22Z</time>
      </trkpt>
      <trkpt lat="46.12166" lon="6.40902">
        <ele>706.901794</ele>
        <time>2018-09-08T13:15:39Z</time>
      </trkpt>
      <trkpt lat="46.12153" lon="6.4087">
        <ele>708.299988</ele>
        <time>2018-09-08T13:15:57Z</time>
      </trkpt>
      <trkpt lat="46.12152" lon="6.40868">
        <ele>708.279968</ele>
        <time>2018-09-08T13:15:58Z</time>
      </trkpt>
      <trkpt lat="46.12152" lon="6.40866">
        <ele>708.275024</ele>
        <time>2018-09-08T13:15:59Z</time>
      </trkpt>
      <trkpt lat="46.12151" lon="6.40864">
        <ele>708.282471</ele>
        <time>2018-09-08T13:16:00Z</time>
      </trkpt>
      <trkpt lat="46.1215" lon="6.40861">
        <ele>708.26001</ele>
        <time>2018-09-08T13:16:01Z</time>
      </trkpt>
      <trkpt lat="46.12149" lon="6.40858">
        <ele>708.215027</ele>
        <time>2018-09-08T13:16:02Z</time>
      </trkpt>
      <trkpt lat="46.12148" lon="6.40855">
        <ele>708.179993</ele>
        <time>2018-09-08T13:16:14Z</time>
      </trkpt>
      <trkpt lat="46.1215" lon="6.40855">
        <ele>708.097473</ele>
        <time>2018-09-08T13:16:43Z</time>
      </trkpt>
      <trkpt lat="46.1215" lon="6.40854">
        <ele>708.04248</ele>
        <time>2018-09-08T13:17:24Z</time>
      </trkpt>
      <trkpt lat="46.12151" lon="6.40855">
        <ele>708.01001</ele>
        <time>2018-09-08T13:18:07Z</time>
      </trkpt>
      <trkpt lat="46.12151" lon="6.40854">
        <ele>707.97998</ele>
        <time>2018-09-08T13:18:45Z</time>
      </trkpt>
      <trkpt lat="46.1215" lon="6.40854">
        <ele>708.022522</ele>
        <time>2018-09-08T13:19:23Z</time>
      </trkpt>
      <trkpt lat="46.1215" lon="6.40849">
        <ele>707.945007</ele>
        <time>2018-09-08T13:19:56Z</time>
      </trkpt>
      <trkpt lat="46.12149" lon="6.40847">
        <ele>707.902527</ele>
        <time>2018-09-08T13:19:57Z</time>
      </trkpt>
      <trkpt lat="46.12149" lon="6.40844">
        <ele>707.852478</ele>
        <time>2018-09-08T13:19:58Z</time>
      </trkpt>
      <trkpt lat="46.12148" lon="6.40841">
        <ele>707.794983</ele>
        <time>2018-09-08T13:19:59Z</time>
      </trkpt>
      <trkpt lat="46.12147" lon="6.40838">
        <ele>707.775024</ele>
        <time>2018-09-08T13:20:00Z</time>
      </trkpt>
      <trkpt lat="46.12146" lon="6.40835">
        <ele>707.777527</ele>
        <time>2018-09-08T13:20:01Z</time>
      </trkpt>
      <trkpt lat="46.12103" lon="6.40766">
        <ele>706.74585</ele>
        <time>2018-09-08T13:20:19Z</time>
      </trkpt>
      <trkpt lat="46.12068" lon="6.40698">
        <ele>708.874817</ele>
        <time>2018-09-08T13:20:37Z</time>
      </trkpt>
      <trkpt lat="46.12045" lon="6.40642">
        <ele>712.737488</ele>
        <time>2018-09-08T13:20:52Z</time>
      </trkpt>
      <trkpt lat="46.1202" lon="6.40584">
        <ele>715.820496</ele>
        <time>2018-09-08T13:21:08Z</time>
      </trkpt>
      <trkpt lat="46.1198" lon="6.40509">
        <ele>716.436462</ele>
        <time>2018-09-08T13:21:32Z</time>
      </trkpt>
      <trkpt lat="46.11952" lon="6.40499">
        <ele>717.162903</ele>
        <time>2018-09-08T13:21:41Z</time>
      </trkpt>
      <trkpt lat="46.11948" lon="6.405">
        <ele>717.539978</ele>
        <time>2018-09-08T13:21:42Z</time>
      </trkpt>
      <trkpt lat="46.11943" lon="6.40502">
        <ele>717.22998</ele>
        <time>2018-09-08T13:21:43Z</time>
      </trkpt>
      <trkpt lat="46.11938" lon="6.40505">
        <ele>717.091309</ele>
        <time>2018-09-08T13:21:44Z</time>
      </trkpt>
      <trkpt lat="46.11933" lon="6.40509">
        <ele>717.061584</ele>
        <time>2018-09-08T13:21:45Z</time>
      </trkpt>
      <trkpt lat="46.11905" lon="6.40534">
        <ele>717.592896</ele>
        <time>2018-09-08T13:21:50Z</time>
      </trkpt>
      <trkpt lat="46.11899" lon="6.40539">
        <ele>717.483643</ele>
        <time>2018-09-08T13:21:51Z</time>
      </trkpt>
      <trkpt lat="46.11826" lon="6.40571">
        <ele>714.896118</ele>
        <time>2018-09-08T13:22:05Z</time>
      </trkpt>
      <trkpt lat="46.11757" lon="6.40588">
        <ele>719.200012</ele>
        <time>2018-09-08T13:22:21Z</time>
      </trkpt>
      <trkpt lat="46.11702" lon="6.40603">
        <ele>722.207947</ele>
        <time>2018-09-08T13:22:36Z</time>
      </trkpt>
      <trkpt lat="46.11699" lon="6.40559">
        <ele>720.250183</ele>
        <time>2018-09-08T13:22:46Z</time>
      </trkpt>
      <trkpt lat="46.11713" lon="6.40496">
        <ele>719.984009</ele>
        <time>2018-09-08T13:23:01Z</time>
      </trkpt>
      <trkpt lat="46.11687" lon="6.40448">
        <ele>724.050415</ele>
        <time>2018-09-08T13:23:16Z</time>
      </trkpt>
      <trkpt lat="46.11656" lon="6.40461">
        <ele>726.516724</ele>
        <time>2018-09-08T13:23:28Z</time>
      </trkpt>
      <trkpt lat="46.11637" lon="6.40481">
        <ele>728.173462</ele>
        <time>2018-09-08T13:23:37Z</time>
      </trkpt>
      <trkpt lat="46.11601" lon="6.40523">
        <ele>732.116638</ele>
        <time>2018-09-08T13:23:55Z</time>
      </trkpt>
      <trkpt lat="46.11575" lon="6.4058">
        <ele>734.40094</ele>
        <time>2018-09-08T13:24:14Z</time>
      </trkpt>
      <trkpt lat="46.11542" lon="6.40583">
        <ele>738.680359</ele>
        <time>2018-09-08T13:24:29Z</time>
      </trkpt>
      <trkpt lat="46.1153" lon="6.40547">
        <ele>740.623962</ele>
        <time>2018-09-08T13:24:43Z</time>
      </trkpt>
      <trkpt lat="46.11519" lon="6.40499">
        <ele>741.824829</ele>
        <time>2018-09-08T13:24:58Z</time>
      </trkpt>
      <trkpt lat="46.11488" lon="6.40464">
        <ele>743.315002</ele>
        <time>2018-09-08T13:25:15Z</time>
      </trkpt>
      <trkpt lat="46.11476" lon="6.40451">
        <ele>744.51001</ele>
        <time>2018-09-08T13:25:28Z</time>
      </trkpt>
      <trkpt lat="46.11475" lon="6.40451">
        <ele>744.655029</ele>
        <time>2018-09-08T13:26:19Z</time>
      </trkpt>
      <trkpt lat="46.11473" lon="6.40455">
        <ele>745.27002</ele>
        <time>2018-09-08T13:26:52Z</time>
      </trkpt>
      <trkpt lat="46.11444" lon="6.40445">
        <ele>749.37561</ele>
        <time>2018-09-08T13:27:08Z</time>
      </trkpt>
      <trkpt lat="46.11414" lon="6.40432">
        <ele>753.420227</ele>
        <time>2018-09-08T13:27:24Z</time>
      </trkpt>
      <trkpt lat="46.1139" lon="6.40406">
        <ele>757.116699</ele>
        <time>2018-09-08T13:27:41Z</time>
      </trkpt>
      <trkpt lat="46.11391" lon="6.40367">
        <ele>756.838196</ele>
        <time>2018-09-08T13:27:53Z</time>
      </trkpt>
      <trkpt lat="46.11392" lon="6.40364">
        <ele>756.810181</ele>
        <time>2018-09-08T13:27:54Z</time>
      </trkpt>
      <trkpt lat="46.11395" lon="6.40316">
        <ele>759.946777</ele>
        <time>2018-09-08T13:28:11Z</time>
      </trkpt>
      <trkpt lat="46.1138" lon="6.40264">
        <ele>765.255005</ele>
        <time>2018-09-08T13:28:32Z</time>
      </trkpt>
      <trkpt lat="46.1137" lon="6.40218">
        <ele>768.896179</ele>
        <time>2018-09-08T13:28:52Z</time>
      </trkpt>
      <trkpt lat="46.11364" lon="6.40172">
        <ele>771.657349</ele>
        <time>2018-09-08T13:29:11Z</time>
      </trkpt>
      <trkpt lat="46.11363" lon="6.40126">
        <ele>772.97876</ele>
        <time>2018-09-08T13:29:29Z</time>
      </trkpt>
      <trkpt lat="46.1136" lon="6.40079">
        <ele>773.628174</ele>
        <time>2018-09-08T13:29:48Z</time>
      </trkpt>
      <trkpt lat="46.11344" lon="6.40037">
        <ele>775.342896</ele>
        <time>2018-09-08T13:30:08Z</time>
      </trkpt>
      <trkpt lat="46.11341" lon="6.40029">
        <ele>775.512756</ele>
        <time>2018-09-08T13:30:23Z</time>
      </trkpt>
      <trkpt lat="46.11338" lon="6.40016">
        <ele>775.146423</ele>
        <time>2018-09-08T13:30:32Z</time>
      </trkpt>
      <trkpt lat="46.11337" lon="6.40013">
        <ele>775.196899</ele>
        <time>2018-09-08T13:30:33Z</time>
      </trkpt>
      <trkpt lat="46.11335" lon="6.4001">
        <ele>775.317078</ele>
        <time>2018-09-08T13:30:34Z</time>
      </trkpt>
      <trkpt lat="46.11334" lon="6.40008">
        <ele>775.455017</ele>
        <time>2018-09-08T13:30:35Z</time>
      </trkpt>
      <trkpt lat="46.11332" lon="6.40005">
        <ele>775.559998</ele>
        <time>2018-09-08T13:30:36Z</time>
      </trkpt>
      <trkpt lat="46.1133" lon="6.40003">
        <ele>775.724976</ele>
        <time>2018-09-08T13:30:37Z</time>
      </trkpt>
      <trkpt lat="46.11328" lon="6.40002">
        <ele>775.960022</ele>
        <time>2018-09-08T13:30:38Z</time>
      </trkpt>
      <trkpt lat="46.11326" lon="6.40001">
        <ele>776.174988</ele>
        <time>2018-09-08T13:30:39Z</time>
      </trkpt>
      <trkpt lat="46.11325" lon="6.39999">
        <ele>776.404968</ele>
        <time>2018-09-08T13:30:40Z</time>
      </trkpt>
      <trkpt lat="46.11323" lon="6.39998">
        <ele>776.60498</ele>
        <time>2018-09-08T13:30:41Z</time>
      </trkpt>
      <trkpt lat="46.11321" lon="6.39996">
        <ele>776.830017</ele>
        <time>2018-09-08T13:30:42Z</time>
      </trkpt>
      <trkpt lat="46.11319" lon="6.39995">
        <ele>777.065002</ele>
        <time>2018-09-08T13:30:43Z</time>
      </trkpt>
      <trkpt lat="46.11317" lon="6.39993">
        <ele>777.304993</ele>
        <time>2018-09-08T13:30:44Z</time>
      </trkpt>
      <trkpt lat="46.11315" lon="6.39992">
        <ele>777.494995</ele>
        <time>2018-09-08T13:30:45Z</time>
      </trkpt>
      <trkpt lat="46.11313" lon="6.3999">
        <ele>777.674988</ele>
        <time>2018-09-08T13:30:46Z</time>
      </trkpt>
      <trkpt lat="46.11284" lon="6.39967">
        <ele>781.044983</ele>
        <time>2018-09-08T13:31:01Z</time>
      </trkpt>
      <trkpt lat="46.11256" lon="6.39939">
        <ele>783.964966</ele>
        <time>2018-09-08T13:31:18Z</time>
      </trkpt>
      <trkpt lat="46.11222" lon="6.39917">
        <ele>787.383301</ele>
        <time>2018-09-08T13:31:37Z</time>
      </trkpt>
      <trkpt lat="46.11197" lon="6.39902">
        <ele>790.068787</ele>
        <time>2018-09-08T13:31:52Z</time>
      </trkpt>
      <trkpt lat="46.11185" lon="6.39892">
        <ele>791.272034</ele>
        <time>2018-09-08T13:32:01Z</time>
      </trkpt>
      <trkpt lat="46.11162" lon="6.39867">
        <ele>793.888977</ele>
        <time>2018-09-08T13:32:19Z</time>
      </trkpt>
      <trkpt lat="46.11145" lon="6.39852">
        <ele>796.919983</ele>
        <time>2018-09-08T13:32:32Z</time>
      </trkpt>
      <trkpt lat="46.11128" lon="6.39822">
        <ele>800.557495</ele>
        <time>2018-09-08T13:32:50Z</time>
      </trkpt>
      <trkpt lat="46.11121" lon="6.39787">
        <ele>803.58252</ele>
        <time>2018-09-08T13:33:08Z</time>
      </trkpt>
      <trkpt lat="46.11119" lon="6.39786">
        <ele>803.910034</ele>
        <time>2018-09-08T13:33:09Z</time>
      </trkpt>
      <trkpt lat="46.11118" lon="6.39785">
        <ele>804.27002</ele>
        <time>2018-09-08T13:33:10Z</time>
      </trkpt>
      <trkpt lat="46.11116" lon="6.39785">
        <ele>804.578918</ele>
        <time>2018-09-08T13:33:11Z</time>
      </trkpt>
      <trkpt lat="46.11115" lon="6.39786">
        <ele>804.930298</ele>
        <time>2018-09-08T13:33:12Z</time>
      </trkpt>
      <trkpt lat="46.11114" lon="6.39787">
        <ele>805.164429</ele>
        <time>2018-09-08T13:33:13Z</time>
      </trkpt>
      <trkpt lat="46.11113" lon="6.39788">
        <ele>805.387268</ele>
        <time>2018-09-08T13:33:14Z</time>
      </trkpt>
      <trkpt lat="46.11111" lon="6.39789">
        <ele>805.601074</ele>
        <time>2018-09-08T13:33:15Z</time>
      </trkpt>
      <trkpt lat="46.1111" lon="6.39791">
        <ele>805.824524</ele>
        <time>2018-09-08T13:33:16Z</time>
      </trkpt>
      <trkpt lat="46.11103" lon="6.39809">
        <ele>806.788696</ele>
        <time>2018-09-08T13:33:30Z</time>
      </trkpt>
      <trkpt lat="46.11103" lon="6.39811">
        <ele>806.523254</ele>
        <time>2018-09-08T13:33:38Z</time>
      </trkpt>
      <trkpt lat="46.11104" lon="6.39812">
        <ele>806.224915</ele>
        <time>2018-09-08T13:33:39Z</time>
      </trkpt>
      <trkpt lat="46.11106" lon="6.39811">
        <ele>805.935486</ele>
        <time>2018-09-08T13:33:40Z</time>
      </trkpt>
      <trkpt lat="46.11107" lon="6.39809">
        <ele>805.809021</ele>
        <time>2018-09-08T13:33:41Z</time>
      </trkpt>
      <trkpt lat="46.11107" lon="6.39806">
        <ele>805.920288</ele>
        <time>2018-09-08T13:33:42Z</time>
      </trkpt>
      <trkpt lat="46.11107" lon="6.39803">
        <ele>806.091675</ele>
        <time>2018-09-08T13:33:43Z</time>
      </trkpt>
      <trkpt lat="46.11107" lon="6.39799">
        <ele>806.099121</ele>
        <time>2018-09-08T13:33:44Z</time>
      </trkpt>
      <trkpt lat="46.11108" lon="6.39796">
        <ele>806.207336</ele>
        <time>2018-09-08T13:33:45Z</time>
      </trkpt>
      <trkpt lat="46.11108" lon="6.39793">
        <ele>806.312744</ele>
        <time>2018-09-08T13:33:46Z</time>
      </trkpt>
      <trkpt lat="46.11108" lon="6.3979">
        <ele>806.365479</ele>
        <time>2018-09-08T13:33:47Z</time>
      </trkpt>
      <trkpt lat="46.11108" lon="6.39787">
        <ele>806.364746</ele>
        <time>2018-09-08T13:33:48Z</time>
      </trkpt>
      <trkpt lat="46.11109" lon="6.39784">
        <ele>806.413513</ele>
        <time>2018-09-08T13:33:49Z</time>
      </trkpt>
      <trkpt lat="46.11113" lon="6.39754">
        <ele>806.891541</ele>
        <time>2018-09-08T13:34:05Z</time>
      </trkpt>
      <trkpt lat="46.11112" lon="6.39755">
        <ele>807.119995</ele>
        <time>2018-09-08T13:34:33Z</time>
      </trkpt>
      <trkpt lat="46.11111" lon="6.39756">
        <ele>807.200256</ele>
        <time>2018-09-08T13:35:22Z</time>
      </trkpt>
      <trkpt lat="46.11112" lon="6.39756">
        <ele>807.146118</ele>
        <time>2018-09-08T13:36:06Z</time>
      </trkpt>
      <trkpt lat="46.11111" lon="6.39756">
        <ele>807.393799</ele>
        <time>2018-09-08T13:36:47Z</time>
      </trkpt>
      <trkpt lat="46.11109" lon="6.39761">
        <ele>807.315735</ele>
        <time>2018-09-08T13:37:16Z</time>
      </trkpt>
      <trkpt lat="46.11109" lon="6.39763">
        <ele>807.175049</ele>
        <time>2018-09-08T13:37:18Z</time>
      </trkpt>
      <trkpt lat="46.1111" lon="6.39765">
        <ele>807.065247</ele>
        <time>2018-09-08T13:37:19Z</time>
      </trkpt>
      <trkpt lat="46.1111" lon="6.39767">
        <ele>806.887451</ele>
        <time>2018-09-08T13:37:20Z</time>
      </trkpt>
      <trkpt lat="46.11102" lon="6.3981">
        <ele>806.807983</ele>
        <time>2018-09-08T13:37:34Z</time>
      </trkpt>
      <trkpt lat="46.11086" lon="6.39877">
        <ele>807.759644</ele>
        <time>2018-09-08T13:37:51Z</time>
      </trkpt>
      <trkpt lat="46.11069" lon="6.39953">
        <ele>808.670227</ele>
        <time>2018-09-08T13:38:10Z</time>
      </trkpt>
      <trkpt lat="46.11042" lon="6.40009">
        <ele>811.190247</ele>
        <time>2018-09-08T13:38:27Z</time>
      </trkpt>
      <trkpt lat="46.11012" lon="6.40063">
        <ele>813.904236</ele>
        <time>2018-09-08T13:38:45Z</time>
      </trkpt>
      <trkpt lat="46.10992" lon="6.40108">
        <ele>814.933838</ele>
        <time>2018-09-08T13:39:01Z</time>
      </trkpt>
      <trkpt lat="46.10978" lon="6.40163">
        <ele>814.916992</ele>
        <time>2018-09-08T13:39:18Z</time>
      </trkpt>
      <trkpt lat="46.10962" lon="6.40223">
        <ele>815.494507</ele>
        <time>2018-09-08T13:39:37Z</time>
      </trkpt>
      <trkpt lat="46.1094" lon="6.40268">
        <ele>817.796875</ele>
        <time>2018-09-08T13:39:55Z</time>
      </trkpt>
      <trkpt lat="46.10913" lon="6.403">
        <ele>820.301514</ele>
        <time>2018-09-08T13:40:12Z</time>
      </trkpt>
      <trkpt lat="46.10883" lon="6.40331">
        <ele>824.700928</ele>
        <time>2018-09-08T13:40:30Z</time>
      </trkpt>
      <trkpt lat="46.10848" lon="6.40365">
        <ele>830.277039</ele>
        <time>2018-09-08T13:40:50Z</time>
      </trkpt>
      <trkpt lat="46.10818" lon="6.40397">
        <ele>834.126404</ele>
        <time>2018-09-08T13:41:09Z</time>
      </trkpt>
      <trkpt lat="46.10809" lon="6.40412">
        <ele>835.271301</ele>
        <time>2018-09-08T13:41:16Z</time>
      </trkpt>
      <trkpt lat="46.10807" lon="6.40414">
        <ele>835.433533</ele>
        <time>2018-09-08T13:41:17Z</time>
      </trkpt>
      <trkpt lat="46.10806" lon="6.40415">
        <ele>835.592224</ele>
        <time>2018-09-08T13:41:18Z</time>
      </trkpt>
      <trkpt lat="46.10804" lon="6.40417">
        <ele>835.748474</ele>
        <time>2018-09-08T13:41:19Z</time>
      </trkpt>
      <trkpt lat="46.10803" lon="6.40419">
        <ele>835.925598</ele>
        <time>2018-09-08T13:41:20Z</time>
      </trkpt>
      <trkpt lat="46.10781" lon="6.40456">
        <ele>838.013184</ele>
        <time>2018-09-08T13:41:37Z</time>
      </trkpt>
      <trkpt lat="46.10755" lon="6.40499">
        <ele>840.835022</ele>
        <time>2018-09-08T13:41:58Z</time>
      </trkpt>
      <trkpt lat="46.10737" lon="6.40545">
        <ele>843.87439</ele>
        <time>2018-09-08T13:42:17Z</time>
      </trkpt>
      <trkpt lat="46.10723" lon="6.40595">
        <ele>847.49353</ele>
        <time>2018-09-08T13:42:36Z</time>
      </trkpt>
      <trkpt lat="46.10712" lon="6.40635">
        <ele>849.908875</ele>
        <time>2018-09-08T13:42:52Z</time>
      </trkpt>
      <trkpt lat="46.107" lon="6.40677">
        <ele>852.019226</ele>
        <time>2018-09-08T13:43:09Z</time>
      </trkpt>
      <trkpt lat="46.10693" lon="6.40722">
        <ele>855.010742</ele>
        <time>2018-09-08T13:43:29Z</time>
      </trkpt>
      <trkpt lat="46.10696" lon="6.40729">
        <ele>856.057312</ele>
        <time>2018-09-08T13:43:44Z</time>
      </trkpt>
      <trkpt lat="46.10696" lon="6.40728">
        <ele>856.013123</ele>
        <time>2018-09-08T13:44:14Z</time>
      </trkpt>
      <trkpt lat="46.10694" lon="6.40726">
        <ele>855.617615</ele>
        <time>2018-09-08T13:44:51Z</time>
      </trkpt>
      <trkpt lat="46.10692" lon="6.40725">
        <ele>855.35498</ele>
        <time>2018-09-08T13:45:24Z</time>
      </trkpt>
      <trkpt lat="46.10694" lon="6.40726">
        <ele>855.517517</ele>
        <time>2018-09-08T13:45:53Z</time>
      </trkpt>
      <trkpt lat="46.10692" lon="6.40726">
        <ele>855.473267</ele>
        <time>2018-09-08T13:45:59Z</time>
      </trkpt>
      <trkpt lat="46.10691" lon="6.40727">
        <ele>855.56958</ele>
        <time>2018-09-08T13:46:00Z</time>
      </trkpt>
      <trkpt lat="46.10691" lon="6.40728">
        <ele>855.721008</ele>
        <time>2018-09-08T13:46:01Z</time>
      </trkpt>
      <trkpt lat="46.10691" lon="6.4073">
        <ele>855.904724</ele>
        <time>2018-09-08T13:46:02Z</time>
      </trkpt>
      <trkpt lat="46.1069" lon="6.40732">
        <ele>856.14978</ele>
        <time>2018-09-08T13:46:03Z</time>
      </trkpt>
      <trkpt lat="46.1069" lon="6.40737">
        <ele>856.612305</ele>
        <time>2018-09-08T13:46:05Z</time>
      </trkpt>
      <trkpt lat="46.10689" lon="6.40738">
        <ele>856.730835</ele>
        <time>2018-09-08T13:46:06Z</time>
      </trkpt>
      <trkpt lat="46.10669" lon="6.40765">
        <ele>859.044983</ele>
        <time>2018-09-08T13:46:22Z</time>
      </trkpt>
      <trkpt lat="46.10649" lon="6.40788">
        <ele>862.52124</ele>
        <time>2018-09-08T13:46:37Z</time>
      </trkpt>
      <trkpt lat="46.10628" lon="6.40809">
        <ele>865.648743</ele>
        <time>2018-09-08T13:46:54Z</time>
      </trkpt>
      <trkpt lat="46.10611" lon="6.40824">
        <ele>867.86499</ele>
        <time>2018-09-08T13:47:09Z</time>
      </trkpt>
      <trkpt lat="46.10591" lon="6.40848">
        <ele>871.596008</ele>
        <time>2018-09-08T13:47:28Z</time>
      </trkpt>
      <trkpt lat="46.10568" lon="6.40873">
        <ele>876.716858</ele>
        <time>2018-09-08T13:47:49Z</time>
      </trkpt>
      <trkpt lat="46.1055" lon="6.40887">
        <ele>881.179138</ele>
        <time>2018-09-08T13:48:04Z</time>
      </trkpt>
      <trkpt lat="46.10547" lon="6.40888">
        <ele>881.82251</ele>
        <time>2018-09-08T13:48:07Z</time>
      </trkpt>
      <trkpt lat="46.10528" lon="6.40881">
        <ele>883.773621</ele>
        <time>2018-09-08T13:48:21Z</time>
      </trkpt>
      <trkpt lat="46.10522" lon="6.40876">
        <ele>884.509949</ele>
        <time>2018-09-08T13:48:27Z</time>
      </trkpt>
      <trkpt lat="46.1052" lon="6.40875">
        <ele>884.722534</ele>
        <time>2018-09-08T13:48:28Z</time>
      </trkpt>
      <trkpt lat="46.10519" lon="6.40874">
        <ele>884.862671</ele>
        <time>2018-09-08T13:48:29Z</time>
      </trkpt>
      <trkpt lat="46.10503" lon="6.40863">
        <ele>886.151978</ele>
        <time>2018-09-08T13:48:42Z</time>
      </trkpt>
      <trkpt lat="46.10481" lon="6.40858">
        <ele>887.510681</ele>
        <time>2018-09-08T13:48:58Z</time>
      </trkpt>
      <trkpt lat="46.10464" lon="6.40862">
        <ele>889.222473</ele>
        <time>2018-09-08T13:49:10Z</time>
      </trkpt>
      <trkpt lat="46.1044" lon="6.40869">
        <ele>891.005676</ele>
        <time>2018-09-08T13:49:28Z</time>
      </trkpt>
      <trkpt lat="46.10418" lon="6.40876">
        <ele>892.011414</ele>
        <time>2018-09-08T13:49:44Z</time>
      </trkpt>
      <trkpt lat="46.10417" lon="6.40877">
        <ele>892.208862</ele>
        <time>2018-09-08T13:49:45Z</time>
      </trkpt>
      <trkpt lat="46.10415" lon="6.40878">
        <ele>892.375977</ele>
        <time>2018-09-08T13:49:46Z</time>
      </trkpt>
      <trkpt lat="46.104" lon="6.40892">
        <ele>896.397461</ele>
        <time>2018-09-08T13:49:59Z</time>
      </trkpt>
      <trkpt lat="46.10399" lon="6.40893">
        <ele>896.894897</ele>
        <time>2018-09-08T13:50:00Z</time>
      </trkpt>
      <trkpt lat="46.10398" lon="6.40894">
        <ele>897.412048</ele>
        <time>2018-09-08T13:50:01Z</time>
      </trkpt>
      <trkpt lat="46.10382" lon="6.40909">
        <ele>903.337524</ele>
        <time>2018-09-08T13:50:17Z</time>
      </trkpt>
      <trkpt lat="46.10381" lon="6.4091">
        <ele>903.642578</ele>
        <time>2018-09-08T13:50:18Z</time>
      </trkpt>
      <trkpt lat="46.1038" lon="6.40911">
        <ele>903.993591</ele>
        <time>2018-09-08T13:50:19Z</time>
      </trkpt>
      <trkpt lat="46.10378" lon="6.40911">
        <ele>904.31427</ele>
        <time>2018-09-08T13:50:20Z</time>
      </trkpt>
      <trkpt lat="46.10376" lon="6.40913">
        <ele>904.998962</ele>
        <time>2018-09-08T13:50:22Z</time>
      </trkpt>
      <trkpt lat="46.10375" lon="6.40914">
        <ele>905.21405</ele>
        <time>2018-09-08T13:50:23Z</time>
      </trkpt>
      <trkpt lat="46.10368" lon="6.40918">
        <ele>907.064453</ele>
        <time>2018-09-08T13:50:29Z</time>
      </trkpt>
      <trkpt lat="46.10342" lon="6.4092">
        <ele>911.535645</ele>
        <time>2018-09-08T13:50:45Z</time>
      </trkpt>
      <trkpt lat="46.10322" lon="6.40906">
        <ele>912.473511</ele>
        <time>2018-09-08T13:51:02Z</time>
      </trkpt>
      <trkpt lat="46.10321" lon="6.40904">
        <ele>912.148621</ele>
        <time>2018-09-08T13:51:03Z</time>
      </trkpt>
      <trkpt lat="46.1032" lon="6.40902">
        <ele>911.971985</ele>
        <time>2018-09-08T13:51:04Z</time>
      </trkpt>
      <trkpt lat="46.10319" lon="6.40901">
        <ele>912.010193</ele>
        <time>2018-09-08T13:51:05Z</time>
      </trkpt>
      <trkpt lat="46.10317" lon="6.40901">
        <ele>912.156372</ele>
        <time>2018-09-08T13:51:06Z</time>
      </trkpt>
      <trkpt lat="46.10298" lon="6.40891">
        <ele>912.775085</ele>
        <time>2018-09-08T13:51:22Z</time>
      </trkpt>
      <trkpt lat="46.10279" lon="6.40889">
        <ele>914.66394</ele>
        <time>2018-09-08T13:51:37Z</time>
      </trkpt>
      <trkpt lat="46.10255" lon="6.40885">
        <ele>917.022522</ele>
        <time>2018-09-08T13:51:55Z</time>
      </trkpt>
      <trkpt lat="46.10239" lon="6.40879">
        <ele>917.727478</ele>
        <time>2018-09-08T13:52:09Z</time>
      </trkpt>
      <trkpt lat="46.10238" lon="6.40879">
        <ele>917.849976</ele>
        <time>2018-09-08T13:52:10Z</time>
      </trkpt>
      <trkpt lat="46.10233" lon="6.40878">
        <ele>918.092468</ele>
        <time>2018-09-08T13:52:14Z</time>
      </trkpt>
      <trkpt lat="46.10232" lon="6.40877">
        <ele>918.272461</ele>
        <time>2018-09-08T13:52:15Z</time>
      </trkpt>
      <trkpt lat="46.1023" lon="6.40877">
        <ele>918.342468</ele>
        <time>2018-09-08T13:52:16Z</time>
      </trkpt>
      <trkpt lat="46.10229" lon="6.40876">
        <ele>918.30249</ele>
        <time>2018-09-08T13:52:17Z</time>
      </trkpt>
      <trkpt lat="46.10228" lon="6.40876">
        <ele>918.232483</ele>
        <time>2018-09-08T13:52:18Z</time>
      </trkpt>
      <trkpt lat="46.10205" lon="6.4087">
        <ele>919.224976</ele>
        <time>2018-09-08T13:52:36Z</time>
      </trkpt>
      <trkpt lat="46.10181" lon="6.40867">
        <ele>921.274719</ele>
        <time>2018-09-08T13:52:56Z</time>
      </trkpt>
      <trkpt lat="46.1016" lon="6.40865">
        <ele>922.266968</ele>
        <time>2018-09-08T13:53:13Z</time>
      </trkpt>
      <trkpt lat="46.10159" lon="6.40865">
        <ele>922.376099</ele>
        <time>2018-09-08T13:53:29Z</time>
      </trkpt>
      <trkpt lat="46.10159" lon="6.40861">
        <ele>921.321594</ele>
        <time>2018-09-08T13:53:44Z</time>
      </trkpt>
      <trkpt lat="46.10159" lon="6.40856">
        <ele>920.254578</ele>
        <time>2018-09-08T13:53:45Z</time>
      </trkpt>
      <trkpt lat="46.10159" lon="6.4085">
        <ele>919.764038</ele>
        <time>2018-09-08T13:53:46Z</time>
      </trkpt>
      <trkpt lat="46.1016" lon="6.40844">
        <ele>919.225647</ele>
        <time>2018-09-08T13:53:47Z</time>
      </trkpt>
      <trkpt lat="46.10161" lon="6.40839">
        <ele>918.72998</ele>
        <time>2018-09-08T13:53:48Z</time>
      </trkpt>
      <trkpt lat="46.10171" lon="6.40806">
        <ele>914.172241</ele>
        <time>2018-09-08T13:53:59Z</time>
      </trkpt>
      <trkpt lat="46.10197" lon="6.40774">
        <ele>915.315979</ele>
        <time>2018-09-08T13:54:08Z</time>
      </trkpt>
      <trkpt lat="46.10201" lon="6.40771">
        <ele>915.955688</ele>
        <time>2018-09-08T13:54:09Z</time>
      </trkpt>
      <trkpt lat="46.10238" lon="6.40753">
        <ele>918.83374</ele>
        <time>2018-09-08T13:54:21Z</time>
      </trkpt>
      <trkpt lat="46.10279" lon="6.40739">
        <ele>920.8125</ele>
        <time>2018-09-08T13:54:35Z</time>
      </trkpt>
      <trkpt lat="46.10326" lon="6.40724">
        <ele>922.515808</ele>
        <time>2018-09-08T13:54:52Z</time>
      </trkpt>
      <trkpt lat="46.10362" lon="6.40695">
        <ele>925.622375</ele>
        <time>2018-09-08T13:55:07Z</time>
      </trkpt>
      <trkpt lat="46.10366" lon="6.4068">
        <ele>928.490479</ele>
        <time>2018-09-08T13:55:10Z</time>
      </trkpt>
      <trkpt lat="46.10366" lon="6.40674">
        <ele>929.197754</ele>
        <time>2018-09-08T13:55:11Z</time>
      </trkpt>
      <trkpt lat="46.10366" lon="6.40667">
        <ele>929.017029</ele>
        <time>2018-09-08T13:55:12Z</time>
      </trkpt>
      <trkpt lat="46.10358" lon="6.40623">
        <ele>930.007324</ele>
        <time>2018-09-08T13:55:17Z</time>
      </trkpt>
      <trkpt lat="46.10356" lon="6.40612">
        <ele>930.898682</ele>
        <time>2018-09-08T13:55:18Z</time>
      </trkpt>
      <trkpt lat="46.10347" lon="6.40559">
        <ele>930.563721</ele>
        <time>2018-09-08T13:55:24Z</time>
      </trkpt>
      <trkpt lat="46.10348" lon="6.40551">
        <ele>929.662476</ele>
        <time>2018-09-08T13:55:25Z</time>
      </trkpt>
      <trkpt lat="46.10349" lon="6.40542">
        <ele>928.488892</ele>
        <time>2018-09-08T13:55:26Z</time>
      </trkpt>
      <trkpt lat="46.10349" lon="6.40533">
        <ele>927.552979</ele>
        <time>2018-09-08T13:55:27Z</time>
      </trkpt>
      <trkpt lat="46.10349" lon="6.40524">
        <ele>927.204895</ele>
        <time>2018-09-08T13:55:28Z</time>
      </trkpt>
      <trkpt lat="46.10348" lon="6.40516">
        <ele>927.537476</ele>
        <time>2018-09-08T13:55:29Z</time>
      </trkpt>
      <trkpt lat="46.10346" lon="6.4051">
        <ele>927.94812</ele>
        <time>2018-09-08T13:55:30Z</time>
      </trkpt>
      <trkpt lat="46.10344" lon="6.40505">
        <ele>928.484985</ele>
        <time>2018-09-08T13:55:31Z</time>
      </trkpt>
      <trkpt lat="46.10343" lon="6.40458">
        <ele>927.274841</ele>
        <time>2018-09-08T13:55:42Z</time>
      </trkpt>
      <trkpt lat="46.10364" lon="6.40429">
        <ele>917.813721</ele>
        <time>2018-09-08T13:55:53Z</time>
      </trkpt>
      <trkpt lat="46.10396" lon="6.40415">
        <ele>909.333923</ele>
        <time>2018-09-08T13:56:03Z</time>
      </trkpt>
      <trkpt lat="46.10412" lon="6.40398">
        <ele>907.337524</ele>
        <time>2018-09-08T13:56:07Z</time>
      </trkpt>
      <trkpt lat="46.10427" lon="6.40378">
        <ele>906.245789</ele>
        <time>2018-09-08T13:56:11Z</time>
      </trkpt>
      <trkpt lat="46.1043" lon="6.40374">
        <ele>906.047241</ele>
        <time>2018-09-08T13:56:12Z</time>
      </trkpt>
      <trkpt lat="46.10433" lon="6.4037">
        <ele>905.861389</ele>
        <time>2018-09-08T13:56:13Z</time>
      </trkpt>
      <trkpt lat="46.10435" lon="6.40366">
        <ele>905.72876</ele>
        <time>2018-09-08T13:56:14Z</time>
      </trkpt>
      <trkpt lat="46.10438" lon="6.40362">
        <ele>905.667786</ele>
        <time>2018-09-08T13:56:15Z</time>
      </trkpt>
      <trkpt lat="46.10465" lon="6.40311">
        <ele>904.575256</ele>
        <time>2018-09-08T13:56:28Z</time>
      </trkpt>
      <trkpt lat="46.10485" lon="6.40282">
        <ele>902.982239</ele>
        <time>2018-09-08T13:56:34Z</time>
      </trkpt>
      <trkpt lat="46.10489" lon="6.40277">
        <ele>902.526489</ele>
        <time>2018-09-08T13:56:35Z</time>
      </trkpt>
      <trkpt lat="46.10518" lon="6.4023">
        <ele>899.377319</ele>
        <time>2018-09-08T13:56:43Z</time>
      </trkpt>
      <trkpt lat="46.10521" lon="6.40222">
        <ele>898.38501</ele>
        <time>2018-09-08T13:56:44Z</time>
      </trkpt>
      <trkpt lat="46.10524" lon="6.40214">
        <ele>897.585388</ele>
        <time>2018-09-08T13:56:45Z</time>
      </trkpt>
      <trkpt lat="46.10525" lon="6.40204">
        <ele>897.019897</ele>
        <time>2018-09-08T13:56:46Z</time>
      </trkpt>
      <trkpt lat="46.10526" lon="6.40178">
        <ele>895.891479</ele>
        <time>2018-09-08T13:56:49Z</time>
      </trkpt>
      <trkpt lat="46.10527" lon="6.40169">
        <ele>895.418884</ele>
        <time>2018-09-08T13:56:50Z</time>
      </trkpt>
      <trkpt lat="46.10528" lon="6.40159">
        <ele>894.952026</ele>
        <time>2018-09-08T13:56:51Z</time>
      </trkpt>
      <trkpt lat="46.10534" lon="6.40133">
        <ele>893.483765</ele>
        <time>2018-09-08T13:56:54Z</time>
      </trkpt>
      <trkpt lat="46.10542" lon="6.40101">
        <ele>891.314148</ele>
        <time>2018-09-08T13:56:58Z</time>
      </trkpt>
      <trkpt lat="46.10545" lon="6.40088">
        <ele>890.149902</ele>
        <time>2018-09-08T13:57:00Z</time>
      </trkpt>
      <trkpt lat="46.10547" lon="6.40082">
        <ele>889.566772</ele>
        <time>2018-09-08T13:57:01Z</time>
      </trkpt>
      <trkpt lat="46.10552" lon="6.40062">
        <ele>887.711792</ele>
        <time>2018-09-08T13:57:04Z</time>
      </trkpt>
      <trkpt lat="46.10553" lon="6.40053">
        <ele>887.092285</ele>
        <time>2018-09-08T13:57:05Z</time>
      </trkpt>
      <trkpt lat="46.10554" lon="6.40043">
        <ele>886.472717</ele>
        <time>2018-09-08T13:57:06Z</time>
      </trkpt>
      <trkpt lat="46.10553" lon="6.40032">
        <ele>885.698914</ele>
        <time>2018-09-08T13:57:07Z</time>
      </trkpt>
      <trkpt lat="46.10551" lon="6.40021">
        <ele>884.999023</ele>
        <time>2018-09-08T13:57:08Z</time>
      </trkpt>
      <trkpt lat="46.10545" lon="6.39976">
        <ele>881.520386</ele>
        <time>2018-09-08T13:57:12Z</time>
      </trkpt>
      <trkpt lat="46.10541" lon="6.39935">
        <ele>878.986328</ele>
        <time>2018-09-08T13:57:16Z</time>
      </trkpt>
      <trkpt lat="46.10539" lon="6.39916">
        <ele>877.739136</ele>
        <time>2018-09-08T13:57:18Z</time>
      </trkpt>
      <trkpt lat="46.1054" lon="6.39889">
        <ele>877.020935</ele>
        <time>2018-09-08T13:57:21Z</time>
      </trkpt>
      <trkpt lat="46.10539" lon="6.39883">
        <ele>876.966492</ele>
        <time>2018-09-08T13:57:22Z</time>
      </trkpt>
      <trkpt lat="46.10537" lon="6.39878">
        <ele>877.003418</ele>
        <time>2018-09-08T13:57:23Z</time>
      </trkpt>
      <trkpt lat="46.10535" lon="6.39876">
        <ele>877.108582</ele>
        <time>2018-09-08T13:57:24Z</time>
      </trkpt>
      <trkpt lat="46.10532" lon="6.39876">
        <ele>877.263489</ele>
        <time>2018-09-08T13:57:25Z</time>
      </trkpt>
      <trkpt lat="46.1053" lon="6.39878">
        <ele>877.418152</ele>
        <time>2018-09-08T13:57:26Z</time>
      </trkpt>
      <trkpt lat="46.10528" lon="6.3988">
        <ele>877.604736</ele>
        <time>2018-09-08T13:57:27Z</time>
      </trkpt>
      <trkpt lat="46.10526" lon="6.39882">
        <ele>877.819763</ele>
        <time>2018-09-08T13:57:28Z</time>
      </trkpt>
      <trkpt lat="46.10496" lon="6.39912">
        <ele>880.226013</ele>
        <time>2018-09-08T13:57:42Z</time>
      </trkpt>
      <trkpt lat="46.10477" lon="6.39927">
        <ele>882.586609</ele>
        <time>2018-09-08T13:57:51Z</time>
      </trkpt>
      <trkpt lat="46.10448" lon="6.3995">
        <ele>887.189209</ele>
        <time>2018-09-08T13:58:08Z</time>
      </trkpt>
      <trkpt lat="46.10429" lon="6.39974">
        <ele>890.231506</ele>
        <time>2018-09-08T13:58:23Z</time>
      </trkpt>
      <trkpt lat="46.10407" lon="6.39997">
        <ele>894.112488</ele>
        <time>2018-09-08T13:58:42Z</time>
      </trkpt>
      <trkpt lat="46.1039" lon="6.40008">
        <ele>895.962341</ele>
        <time>2018-09-08T13:58:56Z</time>
      </trkpt>
      <trkpt lat="46.10388" lon="6.40009">
        <ele>896.085327</ele>
        <time>2018-09-08T13:58:57Z</time>
      </trkpt>
      <trkpt lat="46.10387" lon="6.4001">
        <ele>896.2547</ele>
        <time>2018-09-08T13:58:58Z</time>
      </trkpt>
      <trkpt lat="46.10362" lon="6.40027">
        <ele>898.909485</ele>
        <time>2018-09-08T13:59:17Z</time>
      </trkpt>
      <trkpt lat="46.10338" lon="6.40044">
        <ele>902.717651</ele>
        <time>2018-09-08T13:59:36Z</time>
      </trkpt>
      <trkpt lat="46.1032" lon="6.40056">
        <ele>907.053955</ele>
        <time>2018-09-08T13:59:49Z</time>
      </trkpt>
      <trkpt lat="46.10305" lon="6.40056">
        <ele>910.393616</ele>
        <time>2018-09-08T14:00:02Z</time>
      </trkpt>
      <trkpt lat="46.10292" lon="6.40054">
        <ele>913.664978</ele>
        <time>2018-09-08T14:00:13Z</time>
      </trkpt>
      <trkpt lat="46.10278" lon="6.40034">
        <ele>917.309998</ele>
        <time>2018-09-08T14:00:29Z</time>
      </trkpt>
      <trkpt lat="46.10275" lon="6.40026">
        <ele>918.10498</ele>
        <time>2018-09-08T14:00:34Z</time>
      </trkpt>
      <trkpt lat="46.10274" lon="6.40024">
        <ele>918.13501</ele>
        <time>2018-09-08T14:00:35Z</time>
      </trkpt>
      <trkpt lat="46.1027" lon="6.40018">
        <ele>919.827515</ele>
        <time>2018-09-08T14:00:56Z</time>
      </trkpt>
      <trkpt lat="46.1027" lon="6.40018">
        <ele>919.756714</ele>
        <time>2018-09-08T14:01:15Z</time>
      </trkpt>
      <trkpt lat="46.10273" lon="6.40021">
        <ele>918.612488</ele>
        <time>2018-09-08T14:02:21Z</time>
      </trkpt>
      <trkpt lat="46.10273" lon="6.40019">
        <ele>918.896912</ele>
        <time>2018-09-08T14:02:43Z</time>
      </trkpt>
      <trkpt lat="46.10272" lon="6.40015">
        <ele>919.409485</ele>
        <time>2018-09-08T14:02:52Z</time>
      </trkpt>
      <trkpt lat="46.10272" lon="6.40013">
        <ele>919.611206</ele>
        <time>2018-09-08T14:02:53Z</time>
      </trkpt>
      <trkpt lat="46.10271" lon="6.4001">
        <ele>919.822388</ele>
        <time>2018-09-08T14:02:54Z</time>
      </trkpt>
      <trkpt lat="46.10271" lon="6.40008">
        <ele>920.119019</ele>
        <time>2018-09-08T14:02:55Z</time>
      </trkpt>
      <trkpt lat="46.10271" lon="6.40005">
        <ele>920.349243</ele>
        <time>2018-09-08T14:02:56Z</time>
      </trkpt>
      <trkpt lat="46.10271" lon="6.40002">
        <ele>920.611633</ele>
        <time>2018-09-08T14:02:57Z</time>
      </trkpt>
      <trkpt lat="46.10269" lon="6.39958">
        <ele>924.355347</ele>
        <time>2018-09-08T14:03:11Z</time>
      </trkpt>
      <trkpt lat="46.10274" lon="6.39922">
        <ele>924.58844</ele>
        <time>2018-09-08T14:03:23Z</time>
      </trkpt>
      <trkpt lat="46.10278" lon="6.39891">
        <ele>925.223328</ele>
        <time>2018-09-08T14:03:35Z</time>
      </trkpt>
      <trkpt lat="46.10282" lon="6.39874">
        <ele>926.213989</ele>
        <time>2018-09-08T14:03:42Z</time>
      </trkpt>
      <trkpt lat="46.10286" lon="6.39864">
        <ele>926.400452</ele>
        <time>2018-09-08T14:03:50Z</time>
      </trkpt>
      <trkpt lat="46.103" lon="6.39843">
        <ele>922.857605</ele>
        <time>2018-09-08T14:04:05Z</time>
      </trkpt>
      <trkpt lat="46.10303" lon="6.39835">
        <ele>922.565918</ele>
        <time>2018-09-08T14:04:09Z</time>
      </trkpt>
      <trkpt lat="46.10304" lon="6.39833">
        <ele>922.574341</ele>
        <time>2018-09-08T14:04:10Z</time>
      </trkpt>
      <trkpt lat="46.10304" lon="6.3983">
        <ele>922.757568</ele>
        <time>2018-09-08T14:04:11Z</time>
      </trkpt>
      <trkpt lat="46.10305" lon="6.39828">
        <ele>923.080811</ele>
        <time>2018-09-08T14:04:12Z</time>
      </trkpt>
      <trkpt lat="46.10305" lon="6.39826">
        <ele>923.301636</ele>
        <time>2018-09-08T14:04:13Z</time>
      </trkpt>
      <trkpt lat="46.10306" lon="6.39823">
        <ele>923.620789</ele>
        <time>2018-09-08T14:04:14Z</time>
      </trkpt>
      <trkpt lat="46.10306" lon="6.39821">
        <ele>924.182739</ele>
        <time>2018-09-08T14:04:15Z</time>
      </trkpt>
      <trkpt lat="46.10306" lon="6.39819">
        <ele>924.60907</ele>
        <time>2018-09-08T14:04:16Z</time>
      </trkpt>
      <trkpt lat="46.10307" lon="6.39814">
        <ele>925.730713</ele>
        <time>2018-09-08T14:04:18Z</time>
      </trkpt>
      <trkpt lat="46.10307" lon="6.39812">
        <ele>926.25415</ele>
        <time>2018-09-08T14:04:19Z</time>
      </trkpt>
      <trkpt lat="46.10307" lon="6.39809">
        <ele>926.833618</ele>
        <time>2018-09-08T14:04:20Z</time>
      </trkpt>
      <trkpt lat="46.1031" lon="6.39777">
        <ele>933.46167</ele>
        <time>2018-09-08T14:04:34Z</time>
      </trkpt>
      <trkpt lat="46.10311" lon="6.39768">
        <ele>935.338257</ele>
        <time>2018-09-08T14:04:38Z</time>
      </trkpt>
      <trkpt lat="46.10311" lon="6.39766">
        <ele>935.781555</ele>
        <time>2018-09-08T14:04:39Z</time>
      </trkpt>
      <trkpt lat="46.10311" lon="6.39764">
        <ele>936.027222</ele>
        <time>2018-09-08T14:04:40Z</time>
      </trkpt>
      <trkpt lat="46.10312" lon="6.39747">
        <ele>938.728027</ele>
        <time>2018-09-08T14:04:48Z</time>
      </trkpt>
      <trkpt lat="46.10312" lon="6.39745">
        <ele>939.073608</ele>
        <time>2018-09-08T14:04:49Z</time>
      </trkpt>
      <trkpt lat="46.10315" lon="6.39704">
        <ele>945.116272</ele>
        <time>2018-09-08T14:05:06Z</time>
      </trkpt>
      <trkpt lat="46.10321" lon="6.39667">
        <ele>945.573059</ele>
        <time>2018-09-08T14:05:20Z</time>
      </trkpt>
      <trkpt lat="46.10321" lon="6.39665">
        <ele>945.672852</ele>
        <time>2018-09-08T14:05:21Z</time>
      </trkpt>
      <trkpt lat="46.10321" lon="6.39662">
        <ele>945.785889</ele>
        <time>2018-09-08T14:05:22Z</time>
      </trkpt>
      <trkpt lat="46.10322" lon="6.3966">
        <ele>945.771973</ele>
        <time>2018-09-08T14:05:23Z</time>
      </trkpt>
      <trkpt lat="46.10322" lon="6.39658">
        <ele>945.75</ele>
        <time>2018-09-08T14:05:24Z</time>
      </trkpt>
      <trkpt lat="46.10323" lon="6.39656">
        <ele>945.78418</ele>
        <time>2018-09-08T14:05:25Z</time>
      </trkpt>
      <trkpt lat="46.10323" lon="6.39654">
        <ele>945.873108</ele>
        <time>2018-09-08T14:05:26Z</time>
      </trkpt>
      <trkpt lat="46.10323" lon="6.39652">
        <ele>946.018616</ele>
        <time>2018-09-08T14:05:27Z</time>
      </trkpt>
      <trkpt lat="46.10323" lon="6.39649">
        <ele>946.163086</ele>
        <time>2018-09-08T14:05:28Z</time>
      </trkpt>
      <trkpt lat="46.10323" lon="6.39647">
        <ele>946.251038</ele>
        <time>2018-09-08T14:05:29Z</time>
      </trkpt>
      <trkpt lat="46.10323" lon="6.39645">
        <ele>946.342285</ele>
        <time>2018-09-08T14:05:30Z</time>
      </trkpt>
      <trkpt lat="46.10318" lon="6.39599">
        <ele>944.621277</ele>
        <time>2018-09-08T14:05:53Z</time>
      </trkpt>
      <trkpt lat="46.10317" lon="6.39573">
        <ele>943.0802</ele>
        <time>2018-09-08T14:06:07Z</time>
      </trkpt>
      <trkpt lat="46.10316" lon="6.39532">
        <ele>944.101929</ele>
        <time>2018-09-08T14:06:22Z</time>
      </trkpt>
      <trkpt lat="46.10317" lon="6.39515">
        <ele>943.911072</ele>
        <time>2018-09-08T14:06:29Z</time>
      </trkpt>
      <trkpt lat="46.10317" lon="6.39513">
        <ele>943.910767</ele>
        <time>2018-09-08T14:06:30Z</time>
      </trkpt>
      <trkpt lat="46.10318" lon="6.3951">
        <ele>943.731262</ele>
        <time>2018-09-08T14:06:31Z</time>
      </trkpt>
      <trkpt lat="46.10329" lon="6.39475">
        <ele>941.33197</ele>
        <time>2018-09-08T14:06:49Z</time>
      </trkpt>
      <trkpt lat="46.1033" lon="6.39459">
        <ele>942.081299</ele>
        <time>2018-09-08T14:07:05Z</time>
      </trkpt>
      <trkpt lat="46.10327" lon="6.3945">
        <ele>943.4375</ele>
        <time>2018-09-08T14:07:15Z</time>
      </trkpt>
      <trkpt lat="46.10326" lon="6.3944">
        <ele>943.828003</ele>
        <time>2018-09-08T14:07:17Z</time>
      </trkpt>
      <trkpt lat="46.10326" lon="6.39434">
        <ele>943.603394</ele>
        <time>2018-09-08T14:07:18Z</time>
      </trkpt>
      <trkpt lat="46.1032" lon="6.3935">
        <ele>941.538269</ele>
        <time>2018-09-08T14:07:31Z</time>
      </trkpt>
      <trkpt lat="46.10321" lon="6.39304">
        <ele>939.581421</ele>
        <time>2018-09-08T14:07:43Z</time>
      </trkpt>
      <trkpt lat="46.10313" lon="6.3926">
        <ele>939.982971</ele>
        <time>2018-09-08T14:07:57Z</time>
      </trkpt>
      <trkpt lat="46.10289" lon="6.39217">
        <ele>942.437927</ele>
        <time>2018-09-08T14:08:10Z</time>
      </trkpt>
      <trkpt lat="46.10275" lon="6.3921">
        <ele>945.092285</ele>
        <time>2018-09-08T14:08:19Z</time>
      </trkpt>
      <trkpt lat="46.10275" lon="6.39204">
        <ele>944.139648</ele>
        <time>2018-09-08T14:08:22Z</time>
      </trkpt>
      <trkpt lat="46.10277" lon="6.39201">
        <ele>943.315796</ele>
        <time>2018-09-08T14:08:30Z</time>
      </trkpt>
      <trkpt lat="46.10276" lon="6.39199">
        <ele>943.299194</ele>
        <time>2018-09-08T14:08:44Z</time>
      </trkpt>
      <trkpt lat="46.10277" lon="6.39199">
        <ele>943.124573</ele>
        <time>2018-09-08T14:09:22Z</time>
      </trkpt>
      <trkpt lat="46.10277" lon="6.39197">
        <ele>942.601257</ele>
        <time>2018-09-08T14:09:59Z</time>
      </trkpt>
      <trkpt lat="46.1028" lon="6.39197">
        <ele>941.961975</ele>
        <time>2018-09-08T14:10:38Z</time>
      </trkpt>
      <trkpt lat="46.10281" lon="6.39194">
        <ele>941.290283</ele>
        <time>2018-09-08T14:10:40Z</time>
      </trkpt>
      <trkpt lat="46.10283" lon="6.39189">
        <ele>940.248535</ele>
        <time>2018-09-08T14:10:41Z</time>
      </trkpt>
      <trkpt lat="46.10285" lon="6.39185">
        <ele>939.187012</ele>
        <time>2018-09-08T14:10:42Z</time>
      </trkpt>
      <trkpt lat="46.10289" lon="6.39181">
        <ele>938.273621</ele>
        <time>2018-09-08T14:10:43Z</time>
      </trkpt>
      <trkpt lat="46.10292" lon="6.39178">
        <ele>937.724182</ele>
        <time>2018-09-08T14:10:44Z</time>
      </trkpt>
      <trkpt lat="46.10297" lon="6.39172">
        <ele>937.004272</ele>
        <time>2018-09-08T14:10:47Z</time>
      </trkpt>
      <trkpt lat="46.10297" lon="6.39169">
        <ele>936.961243</ele>
        <time>2018-09-08T14:10:48Z</time>
      </trkpt>
      <trkpt lat="46.10296" lon="6.39167">
        <ele>937.051697</ele>
        <time>2018-09-08T14:10:49Z</time>
      </trkpt>
      <trkpt lat="46.10294" lon="6.39165">
        <ele>937.207092</ele>
        <time>2018-09-08T14:10:50Z</time>
      </trkpt>
      <trkpt lat="46.10292" lon="6.39164">
        <ele>937.388733</ele>
        <time>2018-09-08T14:10:51Z</time>
      </trkpt>
      <trkpt lat="46.10266" lon="6.39153">
        <ele>940.79657</ele>
        <time>2018-09-08T14:11:02Z</time>
      </trkpt>
      <trkpt lat="46.10243" lon="6.39131">
        <ele>942.064697</ele>
        <time>2018-09-08T14:11:11Z</time>
      </trkpt>
      <trkpt lat="46.1023" lon="6.39099">
        <ele>940.727478</ele>
        <time>2018-09-08T14:11:21Z</time>
      </trkpt>
      <trkpt lat="46.10211" lon="6.39071">
        <ele>940.01062</ele>
        <time>2018-09-08T14:11:28Z</time>
      </trkpt>
      <trkpt lat="46.10198" lon="6.3905">
        <ele>937.92627</ele>
        <time>2018-09-08T14:11:35Z</time>
      </trkpt>
      <trkpt lat="46.10196" lon="6.39047">
        <ele>938.062805</ele>
        <time>2018-09-08T14:11:36Z</time>
      </trkpt>
      <trkpt lat="46.10181" lon="6.39019">
        <ele>935.392395</ele>
        <time>2018-09-08T14:11:43Z</time>
      </trkpt>
      <trkpt lat="46.10175" lon="6.39005">
        <ele>932.861267</ele>
        <time>2018-09-08T14:11:47Z</time>
      </trkpt>
      <trkpt lat="46.10169" lon="6.38984">
        <ele>928.421326</ele>
        <time>2018-09-08T14:11:52Z</time>
      </trkpt>
      <trkpt lat="46.10169" lon="6.38975">
        <ele>926.297485</ele>
        <time>2018-09-08T14:12:03Z</time>
      </trkpt>
      <trkpt lat="46.10162" lon="6.3896">
        <ele>924.084839</ele>
        <time>2018-09-08T14:12:32Z</time>
      </trkpt>
      <trkpt lat="46.10159" lon="6.38947">
        <ele>921.320129</ele>
        <time>2018-09-08T14:13:10Z</time>
      </trkpt>
      <trkpt lat="46.10159" lon="6.38944">
        <ele>920.635193</ele>
        <time>2018-09-08T14:13:13Z</time>
      </trkpt>
      <trkpt lat="46.10158" lon="6.38943">
        <ele>920.274536</ele>
        <time>2018-09-08T14:13:14Z</time>
      </trkpt>
      <trkpt lat="46.10158" lon="6.38941">
        <ele>919.770081</ele>
        <time>2018-09-08T14:13:15Z</time>
      </trkpt>
      <trkpt lat="46.10148" lon="6.38927">
        <ele>917.942749</ele>
        <time>2018-09-08T14:13:20Z</time>
      </trkpt>
      <trkpt lat="46.10137" lon="6.38913">
        <ele>916.104248</ele>
        <time>2018-09-08T14:13:25Z</time>
      </trkpt>
      <trkpt lat="46.10127" lon="6.38902">
        <ele>914.721985</ele>
        <time>2018-09-08T14:13:30Z</time>
      </trkpt>
      <trkpt lat="46.10121" lon="6.38898">
        <ele>914.27356</ele>
        <time>2018-09-08T14:13:33Z</time>
      </trkpt>
      <trkpt lat="46.10113" lon="6.38894">
        <ele>913.886597</ele>
        <time>2018-09-08T14:13:38Z</time>
      </trkpt>
      <trkpt lat="46.10109" lon="6.38893">
        <ele>913.449768</ele>
        <time>2018-09-08T14:13:40Z</time>
      </trkpt>
      <trkpt lat="46.10105" lon="6.38892">
        <ele>913.132996</ele>
        <time>2018-09-08T14:13:42Z</time>
      </trkpt>
      <trkpt lat="46.10101" lon="6.38887">
        <ele>911.632507</ele>
        <time>2018-09-08T14:13:46Z</time>
      </trkpt>
      <trkpt lat="46.10093" lon="6.38874">
        <ele>906.717773</ele>
        <time>2018-09-08T14:13:51Z</time>
      </trkpt>
      <trkpt lat="46.10084" lon="6.38863">
        <ele>901.964172</ele>
        <time>2018-09-08T14:13:56Z</time>
      </trkpt>
      <trkpt lat="46.10081" lon="6.38855">
        <ele>898.41748</ele>
        <time>2018-09-08T14:14:00Z</time>
      </trkpt>
      <trkpt lat="46.10076" lon="6.38843">
        <ele>892.95343</ele>
        <time>2018-09-08T14:14:04Z</time>
      </trkpt>
      <trkpt lat="46.10074" lon="6.3884">
        <ele>891.672974</ele>
        <time>2018-09-08T14:14:05Z</time>
      </trkpt>
      <trkpt lat="46.10068" lon="6.38825">
        <ele>886.246765</ele>
        <time>2018-09-08T14:14:23Z</time>
      </trkpt>
      <trkpt lat="46.10066" lon="6.38819">
        <ele>884.517395</ele>
        <time>2018-09-08T14:14:31Z</time>
      </trkpt>
      <trkpt lat="46.10054" lon="6.38809">
        <ele>881.028198</ele>
        <time>2018-09-08T14:14:36Z</time>
      </trkpt>
      <trkpt lat="46.10052" lon="6.38806">
        <ele>880.001221</ele>
        <time>2018-09-08T14:14:37Z</time>
      </trkpt>
      <trkpt lat="46.10042" lon="6.38793">
        <ele>874.39325</ele>
        <time>2018-09-08T14:14:41Z</time>
      </trkpt>
      <trkpt lat="46.10029" lon="6.38786">
        <ele>870.638611</ele>
        <time>2018-09-08T14:14:45Z</time>
      </trkpt>
      <trkpt lat="46.10016" lon="6.3878">
        <ele>867.203125</ele>
        <time>2018-09-08T14:14:49Z</time>
      </trkpt>
      <trkpt lat="46.10007" lon="6.38774">
        <ele>863.755005</ele>
        <time>2018-09-08T14:14:52Z</time>
      </trkpt>
      <trkpt lat="46.10001" lon="6.38769">
        <ele>861.226501</ele>
        <time>2018-09-08T14:14:54Z</time>
      </trkpt>
      <trkpt lat="46.09994" lon="6.38763">
        <ele>858.630371</ele>
        <time>2018-09-08T14:14:57Z</time>
      </trkpt>
      <trkpt lat="46.09988" lon="6.38756">
        <ele>856.273743</ele>
        <time>2018-09-08T14:15:00Z</time>
      </trkpt>
      <trkpt lat="46.09979" lon="6.38751">
        <ele>854.147278</ele>
        <time>2018-09-08T14:15:03Z</time>
      </trkpt>
      <trkpt lat="46.09972" lon="6.38742">
        <ele>851.51947</ele>
        <time>2018-09-08T14:15:06Z</time>
      </trkpt>
      <trkpt lat="46.09959" lon="6.38731">
        <ele>847.643494</ele>
        <time>2018-09-08T14:15:11Z</time>
      </trkpt>
      <trkpt lat="46.09948" lon="6.38724">
        <ele>844.934326</ele>
        <time>2018-09-08T14:15:15Z</time>
      </trkpt>
      <trkpt lat="46.09935" lon="6.38717">
        <ele>842.470459</ele>
        <time>2018-09-08T14:15:19Z</time>
      </trkpt>
      <trkpt lat="46.09924" lon="6.38706">
        <ele>838.127991</ele>
        <time>2018-09-08T14:15:24Z</time>
      </trkpt>
      <trkpt lat="46.09919" lon="6.38697">
        <ele>835.110168</ele>
        <time>2018-09-08T14:15:27Z</time>
      </trkpt>
      <trkpt lat="46.09918" lon="6.38693">
        <ele>834.350098</ele>
        <time>2018-09-08T14:15:28Z</time>
      </trkpt>
      <trkpt lat="46.09908" lon="6.3868">
        <ele>830.938416</ele>
        <time>2018-09-08T14:15:33Z</time>
      </trkpt>
      <trkpt lat="46.09889" lon="6.38667">
        <ele>827.527527</ele>
        <time>2018-09-08T14:15:38Z</time>
      </trkpt>
      <trkpt lat="46.09879" lon="6.38661">
        <ele>826.169067</ele>
        <time>2018-09-08T14:15:41Z</time>
      </trkpt>
      <trkpt lat="46.09862" lon="6.38645">
        <ele>821.345154</ele>
        <time>2018-09-08T14:15:53Z</time>
      </trkpt>
      <trkpt lat="46.09856" lon="6.38637">
        <ele>818.161499</ele>
        <time>2018-09-08T14:16:01Z</time>
      </trkpt>
      <trkpt lat="46.09849" lon="6.38625">
        <ele>815.02002</ele>
        <time>2018-09-08T14:16:09Z</time>
      </trkpt>
      <trkpt lat="46.09839" lon="6.38609">
        <ele>811.949585</ele>
        <time>2018-09-08T14:16:35Z</time>
      </trkpt>
      <trkpt lat="46.09832" lon="6.38602">
        <ele>810.697205</ele>
        <time>2018-09-08T14:16:50Z</time>
      </trkpt>
      <trkpt lat="46.09828" lon="6.38599">
        <ele>810.151001</ele>
        <time>2018-09-08T14:16:52Z</time>
      </trkpt>
      <trkpt lat="46.09818" lon="6.38585">
        <ele>806.417786</ele>
        <time>2018-09-08T14:16:57Z</time>
      </trkpt>
      <trkpt lat="46.09811" lon="6.38575">
        <ele>803.177002</ele>
        <time>2018-09-08T14:17:01Z</time>
      </trkpt>
      <trkpt lat="46.09799" lon="6.38563">
        <ele>800.039978</ele>
        <time>2018-09-08T14:17:05Z</time>
      </trkpt>
      <trkpt lat="46.09794" lon="6.38558">
        <ele>799.84259</ele>
        <time>2018-09-08T14:17:07Z</time>
      </trkpt>
      <trkpt lat="46.09784" lon="6.38541">
        <ele>797.999268</ele>
        <time>2018-09-08T14:17:11Z</time>
      </trkpt>
      <trkpt lat="46.0978" lon="6.38536">
        <ele>797.306152</ele>
        <time>2018-09-08T14:17:12Z</time>
      </trkpt>
      <trkpt lat="46.09761" lon="6.38512">
        <ele>793.288574</ele>
        <time>2018-09-08T14:17:21Z</time>
      </trkpt>
      <trkpt lat="46.09758" lon="6.38506">
        <ele>792.27002</ele>
        <time>2018-09-08T14:17:23Z</time>
      </trkpt>
      <trkpt lat="46.09747" lon="6.38487">
        <ele>789.7995</ele>
        <time>2018-09-08T14:17:38Z</time>
      </trkpt>
      <trkpt lat="46.09748" lon="6.38462">
        <ele>785.578735</ele>
        <time>2018-09-08T14:17:47Z</time>
      </trkpt>
      <trkpt lat="46.09747" lon="6.3845">
        <ele>783.505981</ele>
        <time>2018-09-08T14:17:49Z</time>
      </trkpt>
      <trkpt lat="46.09746" lon="6.38446">
        <ele>782.725342</ele>
        <time>2018-09-08T14:17:50Z</time>
      </trkpt>
      <trkpt lat="46.09745" lon="6.38434">
        <ele>780.536255</ele>
        <time>2018-09-08T14:17:56Z</time>
      </trkpt>
      <trkpt lat="46.0974" lon="6.38417">
        <ele>776.983215</ele>
        <time>2018-09-08T14:18:28Z</time>
      </trkpt>
      <trkpt lat="46.09744" lon="6.38408">
        <ele>776.056396</ele>
        <time>2018-09-08T14:18:32Z</time>
      </trkpt>
      <trkpt lat="46.09757" lon="6.38352">
        <ele>772.709229</ele>
        <time>2018-09-08T14:18:44Z</time>
      </trkpt>
      <trkpt lat="46.09737" lon="6.38306">
        <ele>765.613281</ele>
        <time>2018-09-08T14:18:55Z</time>
      </trkpt>
      <trkpt lat="46.09737" lon="6.38265">
        <ele>760.516235</ele>
        <time>2018-09-08T14:19:06Z</time>
      </trkpt>
      <trkpt lat="46.0974" lon="6.38256">
        <ele>760.093262</ele>
        <time>2018-09-08T14:19:08Z</time>
      </trkpt>
      <trkpt lat="46.09742" lon="6.38251">
        <ele>760.075195</ele>
        <time>2018-09-08T14:19:09Z</time>
      </trkpt>
      <trkpt lat="46.09745" lon="6.38246">
        <ele>760.146484</ele>
        <time>2018-09-08T14:19:10Z</time>
      </trkpt>
      <trkpt lat="46.09748" lon="6.38243">
        <ele>760.307983</ele>
        <time>2018-09-08T14:19:11Z</time>
      </trkpt>
      <trkpt lat="46.09751" lon="6.38239">
        <ele>760.63385</ele>
        <time>2018-09-08T14:19:12Z</time>
      </trkpt>
      <trkpt lat="46.09755" lon="6.38235">
        <ele>760.710083</ele>
        <time>2018-09-08T14:19:13Z</time>
      </trkpt>
      <trkpt lat="46.09759" lon="6.38231">
        <ele>760.583252</ele>
        <time>2018-09-08T14:19:14Z</time>
      </trkpt>
      <trkpt lat="46.09762" lon="6.38227">
        <ele>760.466431</ele>
        <time>2018-09-08T14:19:15Z</time>
      </trkpt>
      <trkpt lat="46.09767" lon="6.38223">
        <ele>760.607361</ele>
        <time>2018-09-08T14:19:16Z</time>
      </trkpt>
      <trkpt lat="46.09771" lon="6.38221">
        <ele>760.970703</ele>
        <time>2018-09-08T14:19:17Z</time>
      </trkpt>
      <trkpt lat="46.09782" lon="6.38216">
        <ele>762.38269</ele>
        <time>2018-09-08T14:19:19Z</time>
      </trkpt>
      <trkpt lat="46.09786" lon="6.38215">
        <ele>763.017944</ele>
        <time>2018-09-08T14:19:20Z</time>
      </trkpt>
      <trkpt lat="46.09792" lon="6.38213">
        <ele>763.643494</ele>
        <time>2018-09-08T14:19:21Z</time>
      </trkpt>
      <trkpt lat="46.09803" lon="6.38209">
        <ele>764.563843</ele>
        <time>2018-09-08T14:19:23Z</time>
      </trkpt>
      <trkpt lat="46.09808" lon="6.38205">
        <ele>764.145325</ele>
        <time>2018-09-08T14:19:24Z</time>
      </trkpt>
      <trkpt lat="46.09813" lon="6.38201">
        <ele>763.408875</ele>
        <time>2018-09-08T14:19:25Z</time>
      </trkpt>
      <trkpt lat="46.09817" lon="6.38196">
        <ele>762.053894</ele>
        <time>2018-09-08T14:19:26Z</time>
      </trkpt>
      <trkpt lat="46.09821" lon="6.38189">
        <ele>759.914246</ele>
        <time>2018-09-08T14:19:27Z</time>
      </trkpt>
      <trkpt lat="46.09824" lon="6.38184">
        <ele>757.929626</ele>
        <time>2018-09-08T14:19:28Z</time>
      </trkpt>
      <trkpt lat="46.09827" lon="6.3818">
        <ele>756.768738</ele>
        <time>2018-09-08T14:19:29Z</time>
      </trkpt>
      <trkpt lat="46.09831" lon="6.38177">
        <ele>755.913757</ele>
        <time>2018-09-08T14:19:30Z</time>
      </trkpt>
      <trkpt lat="46.0984" lon="6.38169">
        <ele>755.433777</ele>
        <time>2018-09-08T14:19:32Z</time>
      </trkpt>
      <trkpt lat="46.09843" lon="6.38164">
        <ele>754.811279</ele>
        <time>2018-09-08T14:19:33Z</time>
      </trkpt>
      <trkpt lat="46.09846" lon="6.38158">
        <ele>753.901245</ele>
        <time>2018-09-08T14:19:34Z</time>
      </trkpt>
      <trkpt lat="46.09848" lon="6.38151">
        <ele>752.681274</ele>
        <time>2018-09-08T14:19:35Z</time>
      </trkpt>
      <trkpt lat="46.0985" lon="6.38145">
        <ele>751.602478</ele>
        <time>2018-09-08T14:19:36Z</time>
      </trkpt>
      <trkpt lat="46.09852" lon="6.38138">
        <ele>750.41748</ele>
        <time>2018-09-08T14:19:37Z</time>
      </trkpt>
      <trkpt lat="46.09852" lon="6.38131">
        <ele>748.95752</ele>
        <time>2018-09-08T14:19:38Z</time>
      </trkpt>
      <trkpt lat="46.09853" lon="6.38117">
        <ele>746.27124</ele>
        <time>2018-09-08T14:19:40Z</time>
      </trkpt>
      <trkpt lat="46.09854" lon="6.38111">
        <ele>745.246582</ele>
        <time>2018-09-08T14:19:41Z</time>
      </trkpt>
      <trkpt lat="46.09857" lon="6.38105">
        <ele>744.444763</ele>
        <time>2018-09-08T14:19:42Z</time>
      </trkpt>
      <trkpt lat="46.09859" lon="6.381">
        <ele>743.915466</ele>
        <time>2018-09-08T14:19:43Z</time>
      </trkpt>
      <trkpt lat="46.09861" lon="6.38097">
        <ele>743.719177</ele>
        <time>2018-09-08T14:19:44Z</time>
      </trkpt>
      <trkpt lat="46.09864" lon="6.38095">
        <ele>743.649353</ele>
        <time>2018-09-08T14:19:45Z</time>
      </trkpt>
      <trkpt lat="46.09881" lon="6.38081">
        <ele>745.002258</ele>
        <time>2018-09-08T14:19:51Z</time>
      </trkpt>
      <trkpt lat="46.09904" lon="6.38063">
        <ele>747.531128</ele>
        <time>2018-09-08T14:19:56Z</time>
      </trkpt>
      <trkpt lat="46.09909" lon="6.38058">
        <ele>747.766479</ele>
        <time>2018-09-08T14:19:57Z</time>
      </trkpt>
      <trkpt lat="46.09914" lon="6.38052">
        <ele>747.748108</ele>
        <time>2018-09-08T14:19:58Z</time>
      </trkpt>
      <trkpt lat="46.09919" lon="6.38045">
        <ele>747.904358</ele>
        <time>2018-09-08T14:19:59Z</time>
      </trkpt>
      <trkpt lat="46.09922" lon="6.38038">
        <ele>747.77002</ele>
        <time>2018-09-08T14:20:00Z</time>
      </trkpt>
      <trkpt lat="46.09925" lon="6.38029">
        <ele>747.333008</ele>
        <time>2018-09-08T14:20:01Z</time>
      </trkpt>
      <trkpt lat="46.09926" lon="6.38021">
        <ele>746.350037</ele>
        <time>2018-09-08T14:20:02Z</time>
      </trkpt>
      <trkpt lat="46.09925" lon="6.38011">
        <ele>745.100952</ele>
        <time>2018-09-08T14:20:03Z</time>
      </trkpt>
      <trkpt lat="46.09924" lon="6.38002">
        <ele>743.589966</ele>
        <time>2018-09-08T14:20:04Z</time>
      </trkpt>
      <trkpt lat="46.09916" lon="6.37968">
        <ele>735.625793</ele>
        <time>2018-09-08T14:20:08Z</time>
      </trkpt>
      <trkpt lat="46.09914" lon="6.3796">
        <ele>733.805603</ele>
        <time>2018-09-08T14:20:09Z</time>
      </trkpt>
      <trkpt lat="46.09913" lon="6.37952">
        <ele>732.178955</ele>
        <time>2018-09-08T14:20:10Z</time>
      </trkpt>
      <trkpt lat="46.09913" lon="6.37944">
        <ele>730.523621</ele>
        <time>2018-09-08T14:20:11Z</time>
      </trkpt>
      <trkpt lat="46.09913" lon="6.37935">
        <ele>728.911011</ele>
        <time>2018-09-08T14:20:12Z</time>
      </trkpt>
      <trkpt lat="46.09914" lon="6.37927">
        <ele>727.475769</ele>
        <time>2018-09-08T14:20:13Z</time>
      </trkpt>
      <trkpt lat="46.09915" lon="6.37918">
        <ele>725.935547</ele>
        <time>2018-09-08T14:20:14Z</time>
      </trkpt>
      <trkpt lat="46.09918" lon="6.37909">
        <ele>724.461426</ele>
        <time>2018-09-08T14:20:15Z</time>
      </trkpt>
      <trkpt lat="46.09921" lon="6.37901">
        <ele>723.522583</ele>
        <time>2018-09-08T14:20:16Z</time>
      </trkpt>
      <trkpt lat="46.09925" lon="6.37895">
        <ele>722.925781</ele>
        <time>2018-09-08T14:20:17Z</time>
      </trkpt>
      <trkpt lat="46.09929" lon="6.37889">
        <ele>723.270203</ele>
        <time>2018-09-08T14:20:18Z</time>
      </trkpt>
      <trkpt lat="46.09934" lon="6.37884">
        <ele>724.095581</ele>
        <time>2018-09-08T14:20:19Z</time>
      </trkpt>
      <trkpt lat="46.09944" lon="6.37873">
        <ele>725.62323</ele>
        <time>2018-09-08T14:20:21Z</time>
      </trkpt>
      <trkpt lat="46.09947" lon="6.37867">
        <ele>725.57959</ele>
        <time>2018-09-08T14:20:22Z</time>
      </trkpt>
      <trkpt lat="46.09949" lon="6.3786">
        <ele>725.140991</ele>
        <time>2018-09-08T14:20:23Z</time>
      </trkpt>
      <trkpt lat="46.09951" lon="6.37853">
        <ele>724.983398</ele>
        <time>2018-09-08T14:20:24Z</time>
      </trkpt>
      <trkpt lat="46.09955" lon="6.37846">
        <ele>724.983704</ele>
        <time>2018-09-08T14:20:25Z</time>
      </trkpt>
      <trkpt lat="46.09958" lon="6.3784">
        <ele>725.412476</ele>
        <time>2018-09-08T14:20:26Z</time>
      </trkpt>
      <trkpt lat="46.09961" lon="6.37834">
        <ele>725.525696</ele>
        <time>2018-09-08T14:20:27Z</time>
      </trkpt>
      <trkpt lat="46.09963" lon="6.37828">
        <ele>725.314331</ele>
        <time>2018-09-08T14:20:28Z</time>
      </trkpt>
      <trkpt lat="46.09964" lon="6.37821">
        <ele>724.656006</ele>
        <time>2018-09-08T14:20:29Z</time>
      </trkpt>
      <trkpt lat="46.09966" lon="6.37814">
        <ele>724.243713</ele>
        <time>2018-09-08T14:20:30Z</time>
      </trkpt>
      <trkpt lat="46.09967" lon="6.37807">
        <ele>723.581177</ele>
        <time>2018-09-08T14:20:31Z</time>
      </trkpt>
      <trkpt lat="46.09968" lon="6.37799">
        <ele>722.338257</ele>
        <time>2018-09-08T14:20:32Z</time>
      </trkpt>
      <trkpt lat="46.09968" lon="6.37791">
        <ele>720.993774</ele>
        <time>2018-09-08T14:20:33Z</time>
      </trkpt>
      <trkpt lat="46.09967" lon="6.37782">
        <ele>719.156921</ele>
        <time>2018-09-08T14:20:34Z</time>
      </trkpt>
      <trkpt lat="46.09965" lon="6.37773">
        <ele>717.45282</ele>
        <time>2018-09-08T14:20:35Z</time>
      </trkpt>
      <trkpt lat="46.09964" lon="6.37765">
        <ele>715.732239</ele>
        <time>2018-09-08T14:20:36Z</time>
      </trkpt>
      <trkpt lat="46.09963" lon="6.37756">
        <ele>714.084045</ele>
        <time>2018-09-08T14:20:37Z</time>
      </trkpt>
      <trkpt lat="46.09963" lon="6.37748">
        <ele>712.871643</ele>
        <time>2018-09-08T14:20:38Z</time>
      </trkpt>
      <trkpt lat="46.09963" lon="6.37739">
        <ele>712.016724</ele>
        <time>2018-09-08T14:20:39Z</time>
      </trkpt>
      <trkpt lat="46.09969" lon="6.37712">
        <ele>711.229553</ele>
        <time>2018-09-08T14:20:42Z</time>
      </trkpt>
      <trkpt lat="46.0998" lon="6.37673">
        <ele>711.571594</ele>
        <time>2018-09-08T14:20:46Z</time>
      </trkpt>
      <trkpt lat="46.09991" lon="6.3762">
        <ele>709.851929</ele>
        <time>2018-09-08T14:20:51Z</time>
      </trkpt>
      <trkpt lat="46.09997" lon="6.37589">
        <ele>707.257568</ele>
        <time>2018-09-08T14:20:54Z</time>
      </trkpt>
      <trkpt lat="46.10001" lon="6.3757">
        <ele>705.901062</ele>
        <time>2018-09-08T14:20:56Z</time>
      </trkpt>
      <trkpt lat="46.10001" lon="6.37561">
        <ele>704.927063</ele>
        <time>2018-09-08T14:20:57Z</time>
      </trkpt>
      <trkpt lat="46.10001" lon="6.37552">
        <ele>703.55957</ele>
        <time>2018-09-08T14:20:58Z</time>
      </trkpt>
      <trkpt lat="46.09998" lon="6.37545">
        <ele>701.418396</ele>
        <time>2018-09-08T14:20:59Z</time>
      </trkpt>
      <trkpt lat="46.09993" lon="6.37539">
        <ele>698.627502</ele>
        <time>2018-09-08T14:21:00Z</time>
      </trkpt>
      <trkpt lat="46.09986" lon="6.37536">
        <ele>695.523987</ele>
        <time>2018-09-08T14:21:01Z</time>
      </trkpt>
      <trkpt lat="46.09979" lon="6.37538">
        <ele>693.287598</ele>
        <time>2018-09-08T14:21:02Z</time>
      </trkpt>
      <trkpt lat="46.09972" lon="6.37542">
        <ele>691.658447</ele>
        <time>2018-09-08T14:21:03Z</time>
      </trkpt>
      <trkpt lat="46.09966" lon="6.37547">
        <ele>690.12738</ele>
        <time>2018-09-08T14:21:04Z</time>
      </trkpt>
      <trkpt lat="46.0994" lon="6.37572">
        <ele>685.754517</ele>
        <time>2018-09-08T14:21:08Z</time>
      </trkpt>
      <trkpt lat="46.09912" lon="6.37597">
        <ele>681.620972</ele>
        <time>2018-09-08T14:21:12Z</time>
      </trkpt>
      <trkpt lat="46.0989" lon="6.37616">
        <ele>677.820679</ele>
        <time>2018-09-08T14:21:15Z</time>
      </trkpt>
      <trkpt lat="46.09885" lon="6.37623">
        <ele>676.283142</ele>
        <time>2018-09-08T14:21:16Z</time>
      </trkpt>
      <trkpt lat="46.09879" lon="6.37632">
        <ele>674.961975</ele>
        <time>2018-09-08T14:21:17Z</time>
      </trkpt>
      <trkpt lat="46.09869" lon="6.37651">
        <ele>672.93219</ele>
        <time>2018-09-08T14:21:19Z</time>
      </trkpt>
      <trkpt lat="46.09854" lon="6.37677">
        <ele>668.919983</ele>
        <time>2018-09-08T14:21:22Z</time>
      </trkpt>
      <trkpt lat="46.09832" lon="6.37718">
        <ele>663.343262</ele>
        <time>2018-09-08T14:21:27Z</time>
      </trkpt>
      <trkpt lat="46.09815" lon="6.37746">
        <ele>660.322815</ele>
        <time>2018-09-08T14:21:30Z</time>
      </trkpt>
      <trkpt lat="46.09805" lon="6.37762">
        <ele>658.984375</ele>
        <time>2018-09-08T14:21:32Z</time>
      </trkpt>
      <trkpt lat="46.09802" lon="6.3777">
        <ele>658.828186</ele>
        <time>2018-09-08T14:21:33Z</time>
      </trkpt>
      <trkpt lat="46.09796" lon="6.37783">
        <ele>658.679871</ele>
        <time>2018-09-08T14:21:35Z</time>
      </trkpt>
      <trkpt lat="46.09793" lon="6.37789">
        <ele>658.638489</ele>
        <time>2018-09-08T14:21:36Z</time>
      </trkpt>
      <trkpt lat="46.09788" lon="6.37793">
        <ele>658.548584</ele>
        <time>2018-09-08T14:21:37Z</time>
      </trkpt>
      <trkpt lat="46.09782" lon="6.37796">
        <ele>657.970215</ele>
        <time>2018-09-08T14:21:38Z</time>
      </trkpt>
      <trkpt lat="46.09776" lon="6.37798">
        <ele>656.881653</ele>
        <time>2018-09-08T14:21:39Z</time>
      </trkpt>
      <trkpt lat="46.0977" lon="6.37798">
        <ele>655.395996</ele>
        <time>2018-09-08T14:21:40Z</time>
      </trkpt>
      <trkpt lat="46.09762" lon="6.37798">
        <ele>653.559265</ele>
        <time>2018-09-08T14:21:41Z</time>
      </trkpt>
      <trkpt lat="46.09747" lon="6.37799">
        <ele>649.966125</ele>
        <time>2018-09-08T14:21:43Z</time>
      </trkpt>
      <trkpt lat="46.09715" lon="6.37811">
        <ele>645.343384</ele>
        <time>2018-09-08T14:21:47Z</time>
      </trkpt>
      <trkpt lat="46.09709" lon="6.37815">
        <ele>644.649414</ele>
        <time>2018-09-08T14:21:48Z</time>
      </trkpt>
      <trkpt lat="46.09702" lon="6.37821">
        <ele>644.351013</ele>
        <time>2018-09-08T14:21:49Z</time>
      </trkpt>
      <trkpt lat="46.09681" lon="6.37842">
        <ele>643.206116</ele>
        <time>2018-09-08T14:21:52Z</time>
      </trkpt>
      <trkpt lat="46.09658" lon="6.37862">
        <ele>640.552979</ele>
        <time>2018-09-08T14:21:55Z</time>
      </trkpt>
      <trkpt lat="46.09637" lon="6.37883">
        <ele>638.075012</ele>
        <time>2018-09-08T14:21:58Z</time>
      </trkpt>
      <trkpt lat="46.09618" lon="6.37902">
        <ele>635.615479</ele>
        <time>2018-09-08T14:22:01Z</time>
      </trkpt>
      <trkpt lat="46.09602" lon="6.37917">
        <ele>633.284607</ele>
        <time>2018-09-08T14:22:04Z</time>
      </trkpt>
      <trkpt lat="46.09592" lon="6.37925">
        <ele>631.689575</ele>
        <time>2018-09-08T14:22:06Z</time>
      </trkpt>
      <trkpt lat="46.09587" lon="6.37928">
        <ele>630.766907</ele>
        <time>2018-09-08T14:22:07Z</time>
      </trkpt>
      <trkpt lat="46.09583" lon="6.3793">
        <ele>629.796387</ele>
        <time>2018-09-08T14:22:08Z</time>
      </trkpt>
      <trkpt lat="46.09579" lon="6.37931">
        <ele>628.735413</ele>
        <time>2018-09-08T14:22:09Z</time>
      </trkpt>
      <trkpt lat="46.09575" lon="6.37932">
        <ele>627.800049</ele>
        <time>2018-09-08T14:22:10Z</time>
      </trkpt>
      <trkpt lat="46.09572" lon="6.37934">
        <ele>627.105957</ele>
        <time>2018-09-08T14:22:11Z</time>
      </trkpt>
      <trkpt lat="46.09564" lon="6.37943">
        <ele>626.097717</ele>
        <time>2018-09-08T14:22:14Z</time>
      </trkpt>
      <trkpt lat="46.09562" lon="6.37948">
        <ele>626.25885</ele>
        <time>2018-09-08T14:22:15Z</time>
      </trkpt>
      <trkpt lat="46.09561" lon="6.37953">
        <ele>626.544983</ele>
        <time>2018-09-08T14:22:16Z</time>
      </trkpt>
      <trkpt lat="46.0956" lon="6.37959">
        <ele>626.945007</ele>
        <time>2018-09-08T14:22:17Z</time>
      </trkpt>
      <trkpt lat="46.09559" lon="6.37964">
        <ele>627.498779</ele>
        <time>2018-09-08T14:22:18Z</time>
      </trkpt>
      <trkpt lat="46.09559" lon="6.37969">
        <ele>628.210022</ele>
        <time>2018-09-08T14:22:19Z</time>
      </trkpt>
      <trkpt lat="46.09558" lon="6.37975">
        <ele>628.932495</ele>
        <time>2018-09-08T14:22:20Z</time>
      </trkpt>
      <trkpt lat="46.09543" lon="6.38006">
        <ele>629.456238</ele>
        <time>2018-09-08T14:22:30Z</time>
      </trkpt>
      <trkpt lat="46.09527" lon="6.38028">
        <ele>628.447021</ele>
        <time>2018-09-08T14:22:43Z</time>
      </trkpt>
      <trkpt lat="46.09521" lon="6.38037">
        <ele>628.507996</ele>
        <time>2018-09-08T14:22:49Z</time>
      </trkpt>
      <trkpt lat="46.0952" lon="6.38039">
        <ele>628.645569</ele>
        <time>2018-09-08T14:22:50Z</time>
      </trkpt>
      <trkpt lat="46.09519" lon="6.38041">
        <ele>628.658386</ele>
        <time>2018-09-08T14:22:51Z</time>
      </trkpt>
      <trkpt lat="46.09518" lon="6.38043">
        <ele>628.774353</ele>
        <time>2018-09-08T14:22:52Z</time>
      </trkpt>
      <trkpt lat="46.09517" lon="6.38045">
        <ele>628.908752</ele>
        <time>2018-09-08T14:22:53Z</time>
      </trkpt>
      <trkpt lat="46.09516" lon="6.38047">
        <ele>628.953613</ele>
        <time>2018-09-08T14:22:54Z</time>
      </trkpt>
      <trkpt lat="46.09515" lon="6.3805">
        <ele>629.185181</ele>
        <time>2018-09-08T14:22:55Z</time>
      </trkpt>
      <trkpt lat="46.09514" lon="6.38052">
        <ele>629.423218</ele>
        <time>2018-09-08T14:22:56Z</time>
      </trkpt>
      <trkpt lat="46.09513" lon="6.38054">
        <ele>629.525269</ele>
        <time>2018-09-08T14:22:57Z</time>
      </trkpt>
      <trkpt lat="46.095" lon="6.38094">
        <ele>633.114319</ele>
        <time>2018-09-08T14:23:12Z</time>
      </trkpt>
      <trkpt lat="46.09473" lon="6.38127">
        <ele>631.747742</ele>
        <time>2018-09-08T14:23:29Z</time>
      </trkpt>
      <trkpt lat="46.09464" lon="6.38136">
        <ele>630.898743</ele>
        <time>2018-09-08T14:23:34Z</time>
      </trkpt>
      <trkpt lat="46.09456" lon="6.38149">
        <ele>631.564392</ele>
        <time>2018-09-08T14:23:45Z</time>
      </trkpt>
      <trkpt lat="46.09454" lon="6.38152">
        <ele>631.367493</ele>
        <time>2018-09-08T14:24:35Z</time>
      </trkpt>
      <trkpt lat="46.09454" lon="6.38153">
        <ele>631.849121</ele>
        <time>2018-09-08T14:25:16Z</time>
      </trkpt>
      <trkpt lat="46.09455" lon="6.38151">
        <ele>631.466064</ele>
        <time>2018-09-08T14:26:00Z</time>
      </trkpt>
      <trkpt lat="46.09453" lon="6.38151">
        <ele>630.883179</ele>
        <time>2018-09-08T14:26:38Z</time>
      </trkpt>
      <trkpt lat="46.09452" lon="6.38151">
        <ele>630.497803</ele>
        <time>2018-09-08T14:27:15Z</time>
      </trkpt>
      <trkpt lat="46.09451" lon="6.3815">
        <ele>630.049011</ele>
        <time>2018-09-08T14:27:49Z</time>
      </trkpt>
      <trkpt lat="46.09448" lon="6.38151">
        <ele>629.273376</ele>
        <time>2018-09-08T14:28:25Z</time>
      </trkpt>
      <trkpt lat="46.09446" lon="6.38154">
        <ele>629.02478</ele>
        <time>2018-09-08T14:28:26Z</time>
      </trkpt>
      <trkpt lat="46.09443" lon="6.38157">
        <ele>628.679504</ele>
        <time>2018-09-08T14:28:27Z</time>
      </trkpt>
      <trkpt lat="46.0944" lon="6.38161">
        <ele>628.276794</ele>
        <time>2018-09-08T14:28:28Z</time>
      </trkpt>
      <trkpt lat="46.09437" lon="6.38165">
        <ele>627.98999</ele>
        <time>2018-09-08T14:28:29Z</time>
      </trkpt>
      <trkpt lat="46.09435" lon="6.3817">
        <ele>627.954224</ele>
        <time>2018-09-08T14:28:30Z</time>
      </trkpt>
      <trkpt lat="46.09432" lon="6.38175">
        <ele>627.846008</ele>
        <time>2018-09-08T14:28:31Z</time>
      </trkpt>
      <trkpt lat="46.0943" lon="6.38179">
        <ele>627.505188</ele>
        <time>2018-09-08T14:28:32Z</time>
      </trkpt>
      <trkpt lat="46.09402" lon="6.38219">
        <ele>623.112</ele>
        <time>2018-09-08T14:28:42Z</time>
      </trkpt>
      <trkpt lat="46.09388" lon="6.38248">
        <ele>621.163452</ele>
        <time>2018-09-08T14:28:50Z</time>
      </trkpt>
      <trkpt lat="46.09378" lon="6.3826">
        <ele>617.921143</ele>
        <time>2018-09-08T14:28:56Z</time>
      </trkpt>
      <trkpt lat="46.09369" lon="6.38279">
        <ele>615.347229</ele>
        <time>2018-09-08T14:29:04Z</time>
      </trkpt>
      <trkpt lat="46.09365" lon="6.3829">
        <ele>615.125183</ele>
        <time>2018-09-08T14:29:07Z</time>
      </trkpt>
      <trkpt lat="46.09359" lon="6.38307">
        <ele>614.217957</ele>
        <time>2018-09-08T14:29:11Z</time>
      </trkpt>
      <trkpt lat="46.09352" lon="6.38319">
        <ele>612.09375</ele>
        <time>2018-09-08T14:29:14Z</time>
      </trkpt>
      <trkpt lat="46.09349" lon="6.38324">
        <ele>611.150635</ele>
        <time>2018-09-08T14:29:15Z</time>
      </trkpt>
      <trkpt lat="46.09346" lon="6.38328">
        <ele>610.139893</ele>
        <time>2018-09-08T14:29:16Z</time>
      </trkpt>
      <trkpt lat="46.09343" lon="6.38331">
        <ele>608.997375</ele>
        <time>2018-09-08T14:29:17Z</time>
      </trkpt>
      <trkpt lat="46.0933" lon="6.38348">
        <ele>604.669983</ele>
        <time>2018-09-08T14:29:22Z</time>
      </trkpt>
      <trkpt lat="46.09318" lon="6.38367">
        <ele>601.687012</ele>
        <time>2018-09-08T14:29:26Z</time>
      </trkpt>
      <trkpt lat="46.09315" lon="6.38372">
        <ele>600.809082</ele>
        <time>2018-09-08T14:29:27Z</time>
      </trkpt>
      <trkpt lat="46.09312" lon="6.38375">
        <ele>599.770874</ele>
        <time>2018-09-08T14:29:28Z</time>
      </trkpt>
      <trkpt lat="46.09309" lon="6.38378">
        <ele>598.815002</ele>
        <time>2018-09-08T14:29:29Z</time>
      </trkpt>
      <trkpt lat="46.09305" lon="6.38382">
        <ele>597.75824</ele>
        <time>2018-09-08T14:29:30Z</time>
      </trkpt>
      <trkpt lat="46.09302" lon="6.38386">
        <ele>596.779114</ele>
        <time>2018-09-08T14:29:31Z</time>
      </trkpt>
      <trkpt lat="46.09299" lon="6.38389">
        <ele>595.360596</ele>
        <time>2018-09-08T14:29:32Z</time>
      </trkpt>
      <trkpt lat="46.09294" lon="6.38391">
        <ele>593.564514</ele>
        <time>2018-09-08T14:29:33Z</time>
      </trkpt>
      <trkpt lat="46.09279" lon="6.38404">
        <ele>588.146362</ele>
        <time>2018-09-08T14:29:37Z</time>
      </trkpt>
      <trkpt lat="46.09275" lon="6.38407">
        <ele>586.933777</ele>
        <time>2018-09-08T14:29:38Z</time>
      </trkpt>
      <trkpt lat="46.0927" lon="6.3841">
        <ele>586.158447</ele>
        <time>2018-09-08T14:29:39Z</time>
      </trkpt>
      <trkpt lat="46.09265" lon="6.38413">
        <ele>585.067505</ele>
        <time>2018-09-08T14:29:40Z</time>
      </trkpt>
      <trkpt lat="46.0926" lon="6.38416">
        <ele>583.989258</ele>
        <time>2018-09-08T14:29:41Z</time>
      </trkpt>
      <trkpt lat="46.09256" lon="6.3842">
        <ele>583.200745</ele>
        <time>2018-09-08T14:29:42Z</time>
      </trkpt>
      <trkpt lat="46.09251" lon="6.38423">
        <ele>582.533691</ele>
        <time>2018-09-08T14:29:43Z</time>
      </trkpt>
      <trkpt lat="46.09248" lon="6.38428">
        <ele>582.422974</ele>
        <time>2018-09-08T14:29:44Z</time>
      </trkpt>
      <trkpt lat="46.09245" lon="6.38434">
        <ele>582.574036</ele>
        <time>2018-09-08T14:29:45Z</time>
      </trkpt>
      <trkpt lat="46.09242" lon="6.3844">
        <ele>582.832397</ele>
        <time>2018-09-08T14:29:46Z</time>
      </trkpt>
      <trkpt lat="46.09233" lon="6.38457">
        <ele>583.631653</ele>
        <time>2018-09-08T14:29:49Z</time>
      </trkpt>
      <trkpt lat="46.0923" lon="6.38461">
        <ele>583.137634</ele>
        <time>2018-09-08T14:29:50Z</time>
      </trkpt>
      <trkpt lat="46.09227" lon="6.38463">
        <ele>582.435913</ele>
        <time>2018-09-08T14:29:51Z</time>
      </trkpt>
      <trkpt lat="46.09222" lon="6.38465">
        <ele>581.309387</ele>
        <time>2018-09-08T14:29:52Z</time>
      </trkpt>
      <trkpt lat="46.09219" lon="6.38467">
        <ele>580.442749</ele>
        <time>2018-09-08T14:29:53Z</time>
      </trkpt>
      <trkpt lat="46.09215" lon="6.38467">
        <ele>579.466187</ele>
        <time>2018-09-08T14:29:54Z</time>
      </trkpt>
      <trkpt lat="46.09212" lon="6.38469">
        <ele>578.74054</ele>
        <time>2018-09-08T14:29:55Z</time>
      </trkpt>
      <trkpt lat="46.09209" lon="6.38474">
        <ele>578.313049</ele>
        <time>2018-09-08T14:29:56Z</time>
      </trkpt>
      <trkpt lat="46.09206" lon="6.38479">
        <ele>578.046936</ele>
        <time>2018-09-08T14:29:57Z</time>
      </trkpt>
      <trkpt lat="46.09203" lon="6.38484">
        <ele>577.801514</ele>
        <time>2018-09-08T14:29:58Z</time>
      </trkpt>
      <trkpt lat="46.0919" lon="6.38503">
        <ele>575.891907</ele>
        <time>2018-09-08T14:30:01Z</time>
      </trkpt>
      <trkpt lat="46.09184" lon="6.38507">
        <ele>574.639648</ele>
        <time>2018-09-08T14:30:02Z</time>
      </trkpt>
      <trkpt lat="46.09179" lon="6.3851">
        <ele>573.570679</ele>
        <time>2018-09-08T14:30:03Z</time>
      </trkpt>
      <trkpt lat="46.09175" lon="6.38514">
        <ele>572.78186</ele>
        <time>2018-09-08T14:30:04Z</time>
      </trkpt>
      <trkpt lat="46.09171" lon="6.38518">
        <ele>572.125732</ele>
        <time>2018-09-08T14:30:05Z</time>
      </trkpt>
      <trkpt lat="46.09167" lon="6.38523">
        <ele>571.333862</ele>
        <time>2018-09-08T14:30:06Z</time>
      </trkpt>
      <trkpt lat="46.09163" lon="6.38527">
        <ele>570.508728</ele>
        <time>2018-09-08T14:30:07Z</time>
      </trkpt>
      <trkpt lat="46.09153" lon="6.38535">
        <ele>567.971436</ele>
        <time>2018-09-08T14:30:10Z</time>
      </trkpt>
      <trkpt lat="46.09145" lon="6.38542">
        <ele>565.362122</ele>
        <time>2018-09-08T14:30:21Z</time>
      </trkpt>
      <trkpt lat="46.09122" lon="6.3855">
        <ele>557.200012</ele>
        <time>2018-09-08T14:30:29Z</time>
      </trkpt>
      <trkpt lat="46.09116" lon="6.38552">
        <ele>555.359985</ele>
        <time>2018-09-08T14:30:30Z</time>
      </trkpt>
      <trkpt lat="46.09111" lon="6.38552">
        <ele>553.599976</ele>
        <time>2018-09-08T14:30:31Z</time>
      </trkpt>
      <trkpt lat="46.09098" lon="6.38553">
        <ele>548.880005</ele>
        <time>2018-09-08T14:30:34Z</time>
      </trkpt>
      <trkpt lat="46.09092" lon="6.38558">
        <ele>546.880005</ele>
        <time>2018-09-08T14:30:36Z</time>
      </trkpt>
      <trkpt lat="46.0909" lon="6.38564">
        <ele>546</ele>
        <time>2018-09-08T14:30:37Z</time>
      </trkpt>
      <trkpt lat="46.09086" lon="6.38575">
        <ele>545.028748</ele>
        <time>2018-09-08T14:30:39Z</time>
      </trkpt>
      <trkpt lat="46.09085" lon="6.38582">
        <ele>545.71875</ele>
        <time>2018-09-08T14:30:40Z</time>
      </trkpt>
      <trkpt lat="46.09085" lon="6.38587">
        <ele>546.671265</ele>
        <time>2018-09-08T14:30:41Z</time>
      </trkpt>
      <trkpt lat="46.09086" lon="6.38603">
        <ele>549.307495</ele>
        <time>2018-09-08T14:30:50Z</time>
      </trkpt>
      <trkpt lat="46.09085" lon="6.38605">
        <ele>549.193726</ele>
        <time>2018-09-08T14:30:55Z</time>
      </trkpt>
      <trkpt lat="46.09085" lon="6.38607">
        <ele>549.508728</ele>
        <time>2018-09-08T14:30:56Z</time>
      </trkpt>
      <trkpt lat="46.09084" lon="6.3861">
        <ele>549.73999</ele>
        <time>2018-09-08T14:30:57Z</time>
      </trkpt>
      <trkpt lat="46.09084" lon="6.38612">
        <ele>549.934998</ele>
        <time>2018-09-08T14:30:58Z</time>
      </trkpt>
      <trkpt lat="46.09083" lon="6.38615">
        <ele>550.222473</ele>
        <time>2018-09-08T14:30:59Z</time>
      </trkpt>
      <trkpt lat="46.09082" lon="6.38618">
        <ele>550.51001</ele>
        <time>2018-09-08T14:31:00Z</time>
      </trkpt>
      <trkpt lat="46.09082" lon="6.38621">
        <ele>550.682495</ele>
        <time>2018-09-08T14:31:01Z</time>
      </trkpt>
      <trkpt lat="46.09054" lon="6.38669">
        <ele>549.763062</ele>
        <time>2018-09-08T14:31:16Z</time>
      </trkpt>
      <trkpt lat="46.09038" lon="6.38732">
        <ele>550.890015</ele>
        <time>2018-09-08T14:31:32Z</time>
      </trkpt>
      <trkpt lat="46.09034" lon="6.38776">
        <ele>550.64502</ele>
        <time>2018-09-08T14:31:45Z</time>
      </trkpt>
      <trkpt lat="46.0904" lon="6.38828">
        <ele>552.981567</ele>
        <time>2018-09-08T14:32:01Z</time>
      </trkpt>
      <trkpt lat="46.09053" lon="6.38871">
        <ele>558.47998</ele>
        <time>2018-09-08T14:32:16Z</time>
      </trkpt>
      <trkpt lat="46.09061" lon="6.38913">
        <ele>561.39032</ele>
        <time>2018-09-08T14:32:29Z</time>
      </trkpt>
      <trkpt lat="46.09061" lon="6.38966">
        <ele>561.162537</ele>
        <time>2018-09-08T14:32:47Z</time>
      </trkpt>
      <trkpt lat="46.09074" lon="6.39009">
        <ele>567.540283</ele>
        <time>2018-09-08T14:33:03Z</time>
      </trkpt>
      <trkpt lat="46.09078" lon="6.39051">
        <ele>571.243408</ele>
        <time>2018-09-08T14:33:18Z</time>
      </trkpt>
      <trkpt lat="46.09086" lon="6.39096">
        <ele>576.486572</ele>
        <time>2018-09-08T14:33:33Z</time>
      </trkpt>
      <trkpt lat="46.09084" lon="6.39138">
        <ele>578.065796</ele>
        <time>2018-09-08T14:33:47Z</time>
      </trkpt>
      <trkpt lat="46.09083" lon="6.39176">
        <ele>579.444763</ele>
        <time>2018-09-08T14:34:00Z</time>
      </trkpt>
      <trkpt lat="46.09089" lon="6.39217">
        <ele>583.013367</ele>
        <time>2018-09-08T14:34:13Z</time>
      </trkpt>
      <trkpt lat="46.09096" lon="6.39264">
        <ele>585.221863</ele>
        <time>2018-09-08T14:34:28Z</time>
      </trkpt>
      <trkpt lat="46.09096" lon="6.39308">
        <ele>585.575745</ele>
        <time>2018-09-08T14:34:43Z</time>
      </trkpt>
      <trkpt lat="46.09089" lon="6.39355">
        <ele>584.399231</ele>
        <time>2018-09-08T14:34:59Z</time>
      </trkpt>
      <trkpt lat="46.09086" lon="6.39394">
        <ele>584.290771</ele>
        <time>2018-09-08T14:35:13Z</time>
      </trkpt>
      <trkpt lat="46.09086" lon="6.39398">
        <ele>584.205444</ele>
        <time>2018-09-08T14:35:15Z</time>
      </trkpt>
      <trkpt lat="46.09094" lon="6.39439">
        <ele>586.450195</ele>
        <time>2018-09-08T14:35:29Z</time>
      </trkpt>
      <trkpt lat="46.09102" lon="6.39485">
        <ele>588.028992</ele>
        <time>2018-09-08T14:35:45Z</time>
      </trkpt>
      <trkpt lat="46.09101" lon="6.39531">
        <ele>587.796448</ele>
        <time>2018-09-08T14:36:01Z</time>
      </trkpt>
      <trkpt lat="46.09109" lon="6.3955">
        <ele>590.294373</ele>
        <time>2018-09-08T14:36:14Z</time>
      </trkpt>
      <trkpt lat="46.09108" lon="6.39552">
        <ele>590.14679</ele>
        <time>2018-09-08T14:36:48Z</time>
      </trkpt>
      <trkpt lat="46.09104" lon="6.39556">
        <ele>588.951477</ele>
        <time>2018-09-08T14:37:21Z</time>
      </trkpt>
      <trkpt lat="46.09102" lon="6.39556">
        <ele>588.221741</ele>
        <time>2018-09-08T14:37:22Z</time>
      </trkpt>
      <trkpt lat="46.091" lon="6.39557">
        <ele>587.408142</ele>
        <time>2018-09-08T14:37:23Z</time>
      </trkpt>
      <trkpt lat="46.09098" lon="6.39559">
        <ele>586.615723</ele>
        <time>2018-09-08T14:37:24Z</time>
      </trkpt>
      <trkpt lat="46.09096" lon="6.3956">
        <ele>585.920593</ele>
        <time>2018-09-08T14:37:25Z</time>
      </trkpt>
      <trkpt lat="46.09094" lon="6.39562">
        <ele>585.374329</ele>
        <time>2018-09-08T14:37:26Z</time>
      </trkpt>
      <trkpt lat="46.09092" lon="6.39565">
        <ele>584.820923</ele>
        <time>2018-09-08T14:37:27Z</time>
      </trkpt>
      <trkpt lat="46.0909" lon="6.39568">
        <ele>584.101074</ele>
        <time>2018-09-08T14:37:28Z</time>
      </trkpt>
      <trkpt lat="46.09077" lon="6.39592">
        <ele>579.267334</ele>
        <time>2018-09-08T14:37:35Z</time>
      </trkpt>
      <trkpt lat="46.09069" lon="6.396">
        <ele>576.479004</ele>
        <time>2018-09-08T14:37:38Z</time>
      </trkpt>
      <trkpt lat="46.09061" lon="6.39609">
        <ele>573.228455</ele>
        <time>2018-09-08T14:37:42Z</time>
      </trkpt>
      <trkpt lat="46.09054" lon="6.39618">
        <ele>570.629639</ele>
        <time>2018-09-08T14:37:45Z</time>
      </trkpt>
      <trkpt lat="46.09051" lon="6.39622">
        <ele>569.706238</ele>
        <time>2018-09-08T14:37:46Z</time>
      </trkpt>
      <trkpt lat="46.09049" lon="6.39627">
        <ele>568.872498</ele>
        <time>2018-09-08T14:37:47Z</time>
      </trkpt>
      <trkpt lat="46.09047" lon="6.39632">
        <ele>568.193726</ele>
        <time>2018-09-08T14:37:48Z</time>
      </trkpt>
      <trkpt lat="46.09045" lon="6.39637">
        <ele>567.523743</ele>
        <time>2018-09-08T14:37:49Z</time>
      </trkpt>
      <trkpt lat="46.09043" lon="6.39641">
        <ele>567.005005</ele>
        <time>2018-09-08T14:37:50Z</time>
      </trkpt>
      <trkpt lat="46.09042" lon="6.39646">
        <ele>566.554993</ele>
        <time>2018-09-08T14:37:51Z</time>
      </trkpt>
      <trkpt lat="46.09041" lon="6.3965">
        <ele>566.27124</ele>
        <time>2018-09-08T14:37:52Z</time>
      </trkpt>
      <trkpt lat="46.09041" lon="6.39653">
        <ele>566.150024</ele>
        <time>2018-09-08T14:37:53Z</time>
      </trkpt>
      <trkpt lat="46.0904" lon="6.39654">
        <ele>565.97998</ele>
        <time>2018-09-08T14:38:05Z</time>
      </trkpt>
      <trkpt lat="46.09033" lon="6.39684">
        <ele>563.252502</ele>
        <time>2018-09-08T14:38:20Z</time>
      </trkpt>
      <trkpt lat="46.0903" lon="6.39693">
        <ele>562.367493</ele>
        <time>2018-09-08T14:38:22Z</time>
      </trkpt>
      <trkpt lat="46.09028" lon="6.39696">
        <ele>561.793762</ele>
        <time>2018-09-08T14:38:23Z</time>
      </trkpt>
      <trkpt lat="46.09027" lon="6.39697">
        <ele>561.316223</ele>
        <time>2018-09-08T14:38:24Z</time>
      </trkpt>
      <trkpt lat="46.09026" lon="6.39698">
        <ele>560.998718</ele>
        <time>2018-09-08T14:38:25Z</time>
      </trkpt>
      <trkpt lat="46.09025" lon="6.397">
        <ele>560.602478</ele>
        <time>2018-09-08T14:38:26Z</time>
      </trkpt>
      <trkpt lat="46.0902" lon="6.39708">
        <ele>558.825012</ele>
        <time>2018-09-08T14:38:29Z</time>
      </trkpt>
      <trkpt lat="46.09014" lon="6.39726">
        <ele>556.890015</ele>
        <time>2018-09-08T14:38:36Z</time>
      </trkpt>
      <trkpt lat="46.09012" lon="6.39745">
        <ele>555.90509</ele>
        <time>2018-09-08T14:38:40Z</time>
      </trkpt>
      <trkpt lat="46.09008" lon="6.39757">
        <ele>554.587158</ele>
        <time>2018-09-08T14:38:42Z</time>
      </trkpt>
      <trkpt lat="46.09007" lon="6.39764">
        <ele>553.840088</ele>
        <time>2018-09-08T14:38:43Z</time>
      </trkpt>
      <trkpt lat="46.09005" lon="6.3977">
        <ele>553.261658</ele>
        <time>2018-09-08T14:38:44Z</time>
      </trkpt>
      <trkpt lat="46.09001" lon="6.39781">
        <ele>551.699646</ele>
        <time>2018-09-08T14:38:46Z</time>
      </trkpt>
      <trkpt lat="46.0899" lon="6.39805">
        <ele>547.467529</ele>
        <time>2018-09-08T14:38:55Z</time>
      </trkpt>
      <trkpt lat="46.08984" lon="6.39816">
        <ele>544.880737</ele>
        <time>2018-09-08T14:38:59Z</time>
      </trkpt>
      <trkpt lat="46.08982" lon="6.39819">
        <ele>544.248108</ele>
        <time>2018-09-08T14:39:00Z</time>
      </trkpt>
      <trkpt lat="46.08981" lon="6.39829">
        <ele>543.234985</ele>
        <time>2018-09-08T14:39:02Z</time>
      </trkpt>
      <trkpt lat="46.08966" lon="6.39882">
        <ele>535.151062</ele>
        <time>2018-09-08T14:39:13Z</time>
      </trkpt>
      <trkpt lat="46.0896" lon="6.3989">
        <ele>532.188599</ele>
        <time>2018-09-08T14:39:17Z</time>
      </trkpt>
      <trkpt lat="46.08959" lon="6.39891">
        <ele>531.645325</ele>
        <time>2018-09-08T14:39:18Z</time>
      </trkpt>
      <trkpt lat="46.08958" lon="6.39892">
        <ele>531.070923</ele>
        <time>2018-09-08T14:39:19Z</time>
      </trkpt>
      <trkpt lat="46.08957" lon="6.39894">
        <ele>530.523987</ele>
        <time>2018-09-08T14:39:20Z</time>
      </trkpt>
      <trkpt lat="46.08956" lon="6.39897">
        <ele>530.171692</ele>
        <time>2018-09-08T14:39:21Z</time>
      </trkpt>
      <trkpt lat="46.08956" lon="6.39899">
        <ele>529.811951</ele>
        <time>2018-09-08T14:39:22Z</time>
      </trkpt>
      <trkpt lat="46.08955" lon="6.39901">
        <ele>529.57135</ele>
        <time>2018-09-08T14:39:23Z</time>
      </trkpt>
      <trkpt lat="46.08955" lon="6.39903">
        <ele>529.082275</ele>
        <time>2018-09-08T14:39:24Z</time>
      </trkpt>
      <trkpt lat="46.08953" lon="6.39907">
        <ele>528.225708</ele>
        <time>2018-09-08T14:39:25Z</time>
      </trkpt>
      <trkpt lat="46.08952" lon="6.39909">
        <ele>527.663269</ele>
        <time>2018-09-08T14:39:26Z</time>
      </trkpt>
      <trkpt lat="46.08948" lon="6.3992">
        <ele>525.343811</ele>
        <time>2018-09-08T14:39:38Z</time>
      </trkpt>
      <trkpt lat="46.08946" lon="6.39923">
        <ele>524.117798</ele>
        <time>2018-09-08T14:39:41Z</time>
      </trkpt>
      <trkpt lat="46.08941" lon="6.39931">
        <ele>522.043762</ele>
        <time>2018-09-08T14:39:52Z</time>
      </trkpt>
      <trkpt lat="46.0894" lon="6.39933">
        <ele>521.507507</ele>
        <time>2018-09-08T14:39:53Z</time>
      </trkpt>
      <trkpt lat="46.08939" lon="6.39936">
        <ele>520.933777</ele>
        <time>2018-09-08T14:39:54Z</time>
      </trkpt>
      <trkpt lat="46.08938" lon="6.39938">
        <ele>520.28125</ele>
        <time>2018-09-08T14:39:55Z</time>
      </trkpt>
      <trkpt lat="46.08936" lon="6.3994">
        <ele>519.741272</ele>
        <time>2018-09-08T14:39:56Z</time>
      </trkpt>
      <trkpt lat="46.08934" lon="6.39943">
        <ele>518.515015</ele>
        <time>2018-09-08T14:39:58Z</time>
      </trkpt>
      <trkpt lat="46.08927" lon="6.39946">
        <ele>515.803772</ele>
        <time>2018-09-08T14:40:01Z</time>
      </trkpt>
      <trkpt lat="46.0892" lon="6.39951">
        <ele>512.69873</ele>
        <time>2018-09-08T14:40:05Z</time>
      </trkpt>
      <trkpt lat="46.08919" lon="6.39952">
        <ele>512.188782</ele>
        <time>2018-09-08T14:40:06Z</time>
      </trkpt>
      <trkpt lat="46.08918" lon="6.39954">
        <ele>511.738739</ele>
        <time>2018-09-08T14:40:07Z</time>
      </trkpt>
      <trkpt lat="46.08917" lon="6.39956">
        <ele>511.446259</ele>
        <time>2018-09-08T14:40:08Z</time>
      </trkpt>
      <trkpt lat="46.08916" lon="6.39959">
        <ele>511.037506</ele>
        <time>2018-09-08T14:40:09Z</time>
      </trkpt>
      <trkpt lat="46.08915" lon="6.39964">
        <ele>510.373749</ele>
        <time>2018-09-08T14:40:10Z</time>
      </trkpt>
      <trkpt lat="46.08913" lon="6.39968">
        <ele>509.350006</ele>
        <time>2018-09-08T14:40:11Z</time>
      </trkpt>
      <trkpt lat="46.0891" lon="6.39972">
        <ele>508.168732</ele>
        <time>2018-09-08T14:40:12Z</time>
      </trkpt>
      <trkpt lat="46.08909" lon="6.39974">
        <ele>507.696259</ele>
        <time>2018-09-08T14:40:13Z</time>
      </trkpt>
      <trkpt lat="46.08908" lon="6.39973">
        <ele>507.287506</ele>
        <time>2018-09-08T14:40:18Z</time>
      </trkpt>
      <trkpt lat="46.08906" lon="6.39972">
        <ele>506.466248</ele>
        <time>2018-09-08T14:40:36Z</time>
      </trkpt>
      <trkpt lat="46.08907" lon="6.39974">
        <ele>506.878754</ele>
        <time>2018-09-08T14:41:05Z</time>
      </trkpt>
      <trkpt lat="46.08907" lon="6.3998">
        <ele>506.515015</ele>
        <time>2018-09-08T14:41:24Z</time>
      </trkpt>
      <trkpt lat="46.08906" lon="6.39984">
        <ele>506.173737</ele>
        <time>2018-09-08T14:41:39Z</time>
      </trkpt>
      <trkpt lat="46.08906" lon="6.39986">
        <ele>505.87439</ele>
        <time>2018-09-08T14:41:40Z</time>
      </trkpt>
      <trkpt lat="46.08905" lon="6.39991">
        <ele>505.467194</ele>
        <time>2018-09-08T14:41:41Z</time>
      </trkpt>
      <trkpt lat="46.08904" lon="6.39996">
        <ele>504.858398</ele>
        <time>2018-09-08T14:41:42Z</time>
      </trkpt>
      <trkpt lat="46.08902" lon="6.40001">
        <ele>504.23999</ele>
        <time>2018-09-08T14:41:43Z</time>
      </trkpt>
      <trkpt lat="46.08896" lon="6.40033">
        <ele>501.25</ele>
        <time>2018-09-08T14:41:51Z</time>
      </trkpt>
      <trkpt lat="46.08895" lon="6.4004">
        <ele>500.867493</ele>
        <time>2018-09-08T14:41:52Z</time>
      </trkpt>
      <trkpt lat="46.08895" lon="6.40047">
        <ele>500.75</ele>
        <time>2018-09-08T14:41:53Z</time>
      </trkpt>
      <trkpt lat="46.08895" lon="6.40053">
        <ele>500.772186</ele>
        <time>2018-09-08T14:41:54Z</time>
      </trkpt>
      <trkpt lat="46.08894" lon="6.4006">
        <ele>500.682159</ele>
        <time>2018-09-08T14:41:55Z</time>
      </trkpt>
      <trkpt lat="46.08893" lon="6.40065">
        <ele>500.575409</ele>
        <time>2018-09-08T14:41:56Z</time>
      </trkpt>
      <trkpt lat="46.08886" lon="6.40113">
        <ele>499.749115</ele>
        <time>2018-09-08T14:42:09Z</time>
      </trkpt>
      <trkpt lat="46.08889" lon="6.40153">
        <ele>504.032623</ele>
        <time>2018-09-08T14:42:23Z</time>
      </trkpt>
      <trkpt lat="46.08894" lon="6.40174">
        <ele>507.776001</ele>
        <time>2018-09-08T14:42:31Z</time>
      </trkpt>
      <trkpt lat="46.08895" lon="6.40177">
        <ele>508.32901</ele>
        <time>2018-09-08T14:42:32Z</time>
      </trkpt>
      <trkpt lat="46.08896" lon="6.4018">
        <ele>508.681213</ele>
        <time>2018-09-08T14:42:33Z</time>
      </trkpt>
      <trkpt lat="46.089" lon="6.40225">
        <ele>511.736115</ele>
        <time>2018-09-08T14:42:47Z</time>
      </trkpt>
      <trkpt lat="46.08884" lon="6.4027">
        <ele>509.842133</ele>
        <time>2018-09-08T14:42:56Z</time>
      </trkpt>
      <trkpt lat="46.08868" lon="6.4032">
        <ele>508.490417</ele>
        <time>2018-09-08T14:43:03Z</time>
      </trkpt>
      <trkpt lat="46.08865" lon="6.40327">
        <ele>507.769531</ele>
        <time>2018-09-08T14:43:04Z</time>
      </trkpt>
      <trkpt lat="46.0886" lon="6.40334">
        <ele>506.954193</ele>
        <time>2018-09-08T14:43:05Z</time>
      </trkpt>
      <trkpt lat="46.0883" lon="6.40378">
        <ele>499.975037</ele>
        <time>2018-09-08T14:43:11Z</time>
      </trkpt>
      <trkpt lat="46.08821" lon="6.40394">
        <ele>497.231567</ele>
        <time>2018-09-08T14:43:13Z</time>
      </trkpt>
      <trkpt lat="46.08818" lon="6.40403">
        <ele>496.571838</ele>
        <time>2018-09-08T14:43:14Z</time>
      </trkpt>
      <trkpt lat="46.08816" lon="6.40414">
        <ele>496.459076</ele>
        <time>2018-09-08T14:43:15Z</time>
      </trkpt>
      <trkpt lat="46.08813" lon="6.40458">
        <ele>495.62915</ele>
        <time>2018-09-08T14:43:19Z</time>
      </trkpt>
      <trkpt lat="46.08813" lon="6.40469">
        <ele>495.344666</ele>
        <time>2018-09-08T14:43:20Z</time>
      </trkpt>
      <trkpt lat="46.08813" lon="6.40479">
        <ele>495.388489</ele>
        <time>2018-09-08T14:43:21Z</time>
      </trkpt>
      <trkpt lat="46.08815" lon="6.40489">
        <ele>495.687866</ele>
        <time>2018-09-08T14:43:22Z</time>
      </trkpt>
      <trkpt lat="46.0882" lon="6.40506">
        <ele>496.174103</ele>
        <time>2018-09-08T14:43:24Z</time>
      </trkpt>
      <trkpt lat="46.08821" lon="6.40515">
        <ele>496.123291</ele>
        <time>2018-09-08T14:43:25Z</time>
      </trkpt>
      <trkpt lat="46.08822" lon="6.40524">
        <ele>495.730927</ele>
        <time>2018-09-08T14:43:26Z</time>
      </trkpt>
      <trkpt lat="46.08822" lon="6.40534">
        <ele>495.267151</ele>
        <time>2018-09-08T14:43:27Z</time>
      </trkpt>
      <trkpt lat="46.08822" lon="6.40549">
        <ele>494.308014</ele>
        <time>2018-09-08T14:43:29Z</time>
      </trkpt>
      <trkpt lat="46.08821" lon="6.40555">
        <ele>493.835724</ele>
        <time>2018-09-08T14:43:30Z</time>
      </trkpt>
      <trkpt lat="46.0882" lon="6.4056">
        <ele>493.247711</ele>
        <time>2018-09-08T14:43:31Z</time>
      </trkpt>
      <trkpt lat="46.08817" lon="6.40562">
        <ele>492.327515</ele>
        <time>2018-09-08T14:43:32Z</time>
      </trkpt>
      <trkpt lat="46.08812" lon="6.40561">
        <ele>491.397491</ele>
        <time>2018-09-08T14:43:33Z</time>
      </trkpt>
      <trkpt lat="46.08808" lon="6.40558">
        <ele>490.519745</ele>
        <time>2018-09-08T14:43:34Z</time>
      </trkpt>
      <trkpt lat="46.08803" lon="6.40554">
        <ele>489.582062</ele>
        <time>2018-09-08T14:43:35Z</time>
      </trkpt>
      <trkpt lat="46.08798" lon="6.40551">
        <ele>488.503418</ele>
        <time>2018-09-08T14:43:36Z</time>
      </trkpt>
      <trkpt lat="46.08792" lon="6.40549">
        <ele>487.285187</ele>
        <time>2018-09-08T14:43:37Z</time>
      </trkpt>
      <trkpt lat="46.08786" lon="6.40548">
        <ele>486.239227</ele>
        <time>2018-09-08T14:43:38Z</time>
      </trkpt>
      <trkpt lat="46.0878" lon="6.40549">
        <ele>485.196686</ele>
        <time>2018-09-08T14:43:39Z</time>
      </trkpt>
      <trkpt lat="46.08776" lon="6.40555">
        <ele>484.514038</ele>
        <time>2018-09-08T14:43:40Z</time>
      </trkpt>
      <trkpt lat="46.08774" lon="6.40563">
        <ele>484.024994</ele>
        <time>2018-09-08T14:43:41Z</time>
      </trkpt>
      <trkpt lat="46.08773" lon="6.40572">
        <ele>483.607483</ele>
        <time>2018-09-08T14:43:42Z</time>
      </trkpt>
      <trkpt lat="46.08772" lon="6.40581">
        <ele>483.26001</ele>
        <time>2018-09-08T14:43:43Z</time>
      </trkpt>
      <trkpt lat="46.0877" lon="6.40598">
        <ele>482.44751</ele>
        <time>2018-09-08T14:43:45Z</time>
      </trkpt>
      <trkpt lat="46.08768" lon="6.40606">
        <ele>481.862488</ele>
        <time>2018-09-08T14:43:46Z</time>
      </trkpt>
      <trkpt lat="46.08763" lon="6.40614">
        <ele>480.982513</ele>
        <time>2018-09-08T14:43:47Z</time>
      </trkpt>
      <trkpt lat="46.08757" lon="6.4062">
        <ele>479.887512</ele>
        <time>2018-09-08T14:43:48Z</time>
      </trkpt>
      <trkpt lat="46.08751" lon="6.40624">
        <ele>478.941284</ele>
        <time>2018-09-08T14:43:49Z</time>
      </trkpt>
      <trkpt lat="46.08731" lon="6.40638">
        <ele>477.236328</ele>
        <time>2018-09-08T14:43:52Z</time>
      </trkpt>
      <trkpt lat="46.08725" lon="6.40645">
        <ele>476.872803</ele>
        <time>2018-09-08T14:43:53Z</time>
      </trkpt>
      <trkpt lat="46.08721" lon="6.40653">
        <ele>476.674377</ele>
        <time>2018-09-08T14:43:54Z</time>
      </trkpt>
      <trkpt lat="46.08711" lon="6.40672">
        <ele>476.217072</ele>
        <time>2018-09-08T14:43:56Z</time>
      </trkpt>
      <trkpt lat="46.08705" lon="6.4068">
        <ele>475.762756</ele>
        <time>2018-09-08T14:43:57Z</time>
      </trkpt>
      <trkpt lat="46.08698" lon="6.40686">
        <ele>475.121185</ele>
        <time>2018-09-08T14:43:58Z</time>
      </trkpt>
      <trkpt lat="46.08672" lon="6.40708">
        <ele>472.386993</ele>
        <time>2018-09-08T14:44:02Z</time>
      </trkpt>
      <trkpt lat="46.08659" lon="6.40718">
        <ele>470.894806</ele>
        <time>2018-09-08T14:44:04Z</time>
      </trkpt>
      <trkpt lat="46.08653" lon="6.40724">
        <ele>470.227539</ele>
        <time>2018-09-08T14:44:05Z</time>
      </trkpt>
      <trkpt lat="46.08649" lon="6.40731">
        <ele>469.674988</ele>
        <time>2018-09-08T14:44:06Z</time>
      </trkpt>
      <trkpt lat="46.08645" lon="6.4074">
        <ele>469.350006</ele>
        <time>2018-09-08T14:44:07Z</time>
      </trkpt>
      <trkpt lat="46.08643" lon="6.4075">
        <ele>469.132355</ele>
        <time>2018-09-08T14:44:08Z</time>
      </trkpt>
      <trkpt lat="46.08642" lon="6.4076">
        <ele>468.97406</ele>
        <time>2018-09-08T14:44:09Z</time>
      </trkpt>
      <trkpt lat="46.08637" lon="6.40781">
        <ele>468.461731</ele>
        <time>2018-09-08T14:44:11Z</time>
      </trkpt>
      <trkpt lat="46.08633" lon="6.4079">
        <ele>467.991425</ele>
        <time>2018-09-08T14:44:12Z</time>
      </trkpt>
      <trkpt lat="46.08629" lon="6.40797">
        <ele>467.392853</ele>
        <time>2018-09-08T14:44:13Z</time>
      </trkpt>
      <trkpt lat="46.08623" lon="6.40804">
        <ele>466.629791</ele>
        <time>2018-09-08T14:44:14Z</time>
      </trkpt>
      <trkpt lat="46.08617" lon="6.40809">
        <ele>465.804993</ele>
        <time>2018-09-08T14:44:15Z</time>
      </trkpt>
      <trkpt lat="46.08612" lon="6.40815">
        <ele>464.988739</ele>
        <time>2018-09-08T14:44:16Z</time>
      </trkpt>
      <trkpt lat="46.08607" lon="6.40822">
        <ele>464.21875</ele>
        <time>2018-09-08T14:44:17Z</time>
      </trkpt>
      <trkpt lat="46.08575" lon="6.40862">
        <ele>460.138</ele>
        <time>2018-09-08T14:44:23Z</time>
      </trkpt>
      <trkpt lat="46.08564" lon="6.40872">
        <ele>458.890961</ele>
        <time>2018-09-08T14:44:25Z</time>
      </trkpt>
      <trkpt lat="46.0854" lon="6.40892">
        <ele>457.457916</ele>
        <time>2018-09-08T14:44:29Z</time>
      </trkpt>
      <trkpt lat="46.08512" lon="6.40914">
        <ele>456.854004</ele>
        <time>2018-09-08T14:44:33Z</time>
      </trkpt>
      <trkpt lat="46.08479" lon="6.40956">
        <ele>456.511902</ele>
        <time>2018-09-08T14:44:40Z</time>
      </trkpt>
      <trkpt lat="46.08475" lon="6.40959">
        <ele>456.39975</ele>
        <time>2018-09-08T14:44:41Z</time>
      </trkpt>
      <trkpt lat="46.08471" lon="6.40961">
        <ele>456.266907</ele>
        <time>2018-09-08T14:44:42Z</time>
      </trkpt>
      <trkpt lat="46.08466" lon="6.40963">
        <ele>456.12851</ele>
        <time>2018-09-08T14:44:43Z</time>
      </trkpt>
      <trkpt lat="46.08463" lon="6.40967">
        <ele>456.016632</ele>
        <time>2018-09-08T14:44:44Z</time>
      </trkpt>
      <trkpt lat="46.08461" lon="6.40971">
        <ele>456</ele>
        <time>2018-09-08T14:44:45Z</time>
      </trkpt>
      <trkpt lat="46.0846" lon="6.40977">
        <ele>456</ele>
        <time>2018-09-08T14:44:46Z</time>
      </trkpt>
      <trkpt lat="46.08461" lon="6.40982">
        <ele>456</ele>
        <time>2018-09-08T14:44:47Z</time>
      </trkpt>
      <trkpt lat="46.08462" lon="6.40987">
        <ele>456</ele>
        <time>2018-09-08T14:44:48Z</time>
      </trkpt>
      <trkpt lat="46.08463" lon="6.40992">
        <ele>456.105011</ele>
        <time>2018-09-08T14:44:49Z</time>
      </trkpt>
      <trkpt lat="46.08463" lon="6.40997">
        <ele>456.205017</ele>
        <time>2018-09-08T14:44:50Z</time>
      </trkpt>
      <trkpt lat="46.08463" lon="6.41001">
        <ele>456.26001</ele>
        <time>2018-09-08T14:44:51Z</time>
      </trkpt>
      <trkpt lat="46.08462" lon="6.41006">
        <ele>456.311249</ele>
        <time>2018-09-08T14:44:52Z</time>
      </trkpt>
      <trkpt lat="46.0845" lon="6.41078">
        <ele>457.322876</ele>
        <time>2018-09-08T14:45:06Z</time>
      </trkpt>
      <trkpt lat="46.08423" lon="6.41102">
        <ele>457.179443</ele>
        <time>2018-09-08T14:45:16Z</time>
      </trkpt>
      <trkpt lat="46.08338" lon="6.41101">
        <ele>457</ele>
        <time>2018-09-08T14:45:35Z</time>
      </trkpt>
      <trkpt lat="46.08329" lon="6.41103">
        <ele>457</ele>
        <time>2018-09-08T14:45:37Z</time>
      </trkpt>
      <trkpt lat="46.08324" lon="6.41106">
        <ele>457</ele>
        <time>2018-09-08T14:45:38Z</time>
      </trkpt>
      <trkpt lat="46.08321" lon="6.4111">
        <ele>457</ele>
        <time>2018-09-08T14:45:39Z</time>
      </trkpt>
      <trkpt lat="46.08318" lon="6.41116">
        <ele>457</ele>
        <time>2018-09-08T14:45:40Z</time>
      </trkpt>
      <trkpt lat="46.08315" lon="6.41121">
        <ele>457</ele>
        <time>2018-09-08T14:45:41Z</time>
      </trkpt>
      <trkpt lat="46.08268" lon="6.41228">
        <ele>456.075012</ele>
        <time>2018-09-08T14:46:00Z</time>
      </trkpt>
      <trkpt lat="46.08257" lon="6.41252">
        <ele>456</ele>
        <time>2018-09-08T14:46:06Z</time>
      </trkpt>
      <trkpt lat="46.08252" lon="6.41252">
        <ele>456</ele>
        <time>2018-09-08T14:46:12Z</time>
      </trkpt>
      <trkpt lat="46.0825" lon="6.41252">
        <ele>456</ele>
        <time>2018-09-08T14:46:13Z</time>
      </trkpt>
      <trkpt lat="46.08248" lon="6.41253">
        <ele>456</ele>
        <time>2018-09-08T14:46:14Z</time>
      </trkpt>
      <trkpt lat="46.08246" lon="6.41252">
        <ele>456</ele>
        <time>2018-09-08T14:46:15Z</time>
      </trkpt>
      <trkpt lat="46.08243" lon="6.41252">
        <ele>456</ele>
        <time>2018-09-08T14:46:16Z</time>
      </trkpt>
      <trkpt lat="46.08186" lon="6.41249">
        <ele>456.307678</ele>
        <time>2018-09-08T14:46:30Z</time>
      </trkpt>
      <trkpt lat="46.08158" lon="6.41254">
        <ele>456.446259</ele>
        <time>2018-09-08T14:46:36Z</time>
      </trkpt>
      <trkpt lat="46.08141" lon="6.41254">
        <ele>456.477509</ele>
        <time>2018-09-08T14:46:40Z</time>
      </trkpt>
      <trkpt lat="46.08125" lon="6.4125">
        <ele>456.436249</ele>
        <time>2018-09-08T14:46:44Z</time>
      </trkpt>
      <trkpt lat="46.08116" lon="6.41251">
        <ele>456.450012</ele>
        <time>2018-09-08T14:46:46Z</time>
      </trkpt>
      <trkpt lat="46.08113" lon="6.41254">
        <ele>456.51001</ele>
        <time>2018-09-08T14:46:47Z</time>
      </trkpt>
      <trkpt lat="46.08111" lon="6.4126">
        <ele>456.59375</ele>
        <time>2018-09-08T14:46:48Z</time>
      </trkpt>
      <trkpt lat="46.08108" lon="6.41265">
        <ele>456.676239</ele>
        <time>2018-09-08T14:46:49Z</time>
      </trkpt>
      <trkpt lat="46.08105" lon="6.4127">
        <ele>456.756256</ele>
        <time>2018-09-08T14:46:50Z</time>
      </trkpt>
      <trkpt lat="46.0807" lon="6.4134">
        <ele>458.777496</ele>
        <time>2018-09-08T14:47:05Z</time>
      </trkpt>
      <trkpt lat="46.08042" lon="6.41374">
        <ele>459.440002</ele>
        <time>2018-09-08T14:47:16Z</time>
      </trkpt>
      <trkpt lat="46.0804" lon="6.41373">
        <ele>459.424988</ele>
        <time>2018-09-08T14:47:17Z</time>
      </trkpt>
      <trkpt lat="46.08037" lon="6.41371">
        <ele>459.402496</ele>
        <time>2018-09-08T14:47:18Z</time>
      </trkpt>
      <trkpt lat="46.08035" lon="6.4137">
        <ele>459.380005</ele>
        <time>2018-09-08T14:47:19Z</time>
      </trkpt>
      <trkpt lat="46.08033" lon="6.41368">
        <ele>459.36499</ele>
        <time>2018-09-08T14:47:20Z</time>
      </trkpt>
      <trkpt lat="46.08031" lon="6.41368">
        <ele>459.35376</ele>
        <time>2018-09-08T14:47:21Z</time>
      </trkpt>
      <trkpt lat="46.08022" lon="6.41361">
        <ele>459.262512</ele>
        <time>2018-09-08T14:47:25Z</time>
      </trkpt>
      <trkpt lat="46.08019" lon="6.41362">
        <ele>459.277496</ele>
        <time>2018-09-08T14:47:26Z</time>
      </trkpt>
      <trkpt lat="46.08015" lon="6.41364">
        <ele>459.311249</ele>
        <time>2018-09-08T14:47:27Z</time>
      </trkpt>
      <trkpt lat="46.07965" lon="6.41406">
        <ele>460.762665</ele>
        <time>2018-09-08T14:47:45Z</time>
      </trkpt>
      <trkpt lat="46.0794" lon="6.4137">
        <ele>460.14035</ele>
        <time>2018-09-08T14:47:57Z</time>
      </trkpt>
      <trkpt lat="46.07929" lon="6.41334">
        <ele>459.524536</ele>
        <time>2018-09-08T14:48:04Z</time>
      </trkpt>
      <trkpt lat="46.07926" lon="6.41329">
        <ele>459.568329</ele>
        <time>2018-09-08T14:48:05Z</time>
      </trkpt>
      <trkpt lat="46.07919" lon="6.4132">
        <ele>459.724182</ele>
        <time>2018-09-08T14:48:08Z</time>
      </trkpt>
      <trkpt lat="46.07917" lon="6.41318">
        <ele>459.789825</ele>
        <time>2018-09-08T14:48:09Z</time>
      </trkpt>
      <trkpt lat="46.07915" lon="6.41316">
        <ele>459.830688</ele>
        <time>2018-09-08T14:48:10Z</time>
      </trkpt>
      <trkpt lat="46.07914" lon="6.41314">
        <ele>459.880066</ele>
        <time>2018-09-08T14:48:11Z</time>
      </trkpt>
      <trkpt lat="46.07911" lon="6.41313">
        <ele>459.959351</ele>
        <time>2018-09-08T14:48:12Z</time>
      </trkpt>
      <trkpt lat="46.07908" lon="6.41312">
        <ele>459.806091</ele>
        <time>2018-09-08T14:48:13Z</time>
      </trkpt>
      <trkpt lat="46.07905" lon="6.41312">
        <ele>459.438232</ele>
        <time>2018-09-08T14:48:14Z</time>
      </trkpt>
      <trkpt lat="46.07872" lon="6.41305">
        <ele>456.274597</ele>
        <time>2018-09-08T14:48:21Z</time>
      </trkpt>
      <trkpt lat="46.07836" lon="6.41295">
        <ele>452.347839</ele>
        <time>2018-09-08T14:48:28Z</time>
      </trkpt>
      <trkpt lat="46.07832" lon="6.41293">
        <ele>451.88205</ele>
        <time>2018-09-08T14:48:29Z</time>
      </trkpt>
      <trkpt lat="46.07829" lon="6.41291">
        <ele>451.55246</ele>
        <time>2018-09-08T14:48:30Z</time>
      </trkpt>
      <trkpt lat="46.07826" lon="6.41288">
        <ele>451.255768</ele>
        <time>2018-09-08T14:48:31Z</time>
      </trkpt>
      <trkpt lat="46.07816" lon="6.41281">
        <ele>450.627991</ele>
        <time>2018-09-08T14:48:38Z</time>
      </trkpt>
      <trkpt lat="46.07814" lon="6.41281">
        <ele>450.500885</ele>
        <time>2018-09-08T14:48:39Z</time>
      </trkpt>
      <trkpt lat="46.07812" lon="6.41282">
        <ele>450.291992</ele>
        <time>2018-09-08T14:48:40Z</time>
      </trkpt>
      <trkpt lat="46.07809" lon="6.41283">
        <ele>450.070007</ele>
        <time>2018-09-08T14:48:41Z</time>
      </trkpt>
      <trkpt lat="46.07807" lon="6.41285">
        <ele>449.838287</ele>
        <time>2018-09-08T14:48:42Z</time>
      </trkpt>
      <trkpt lat="46.07804" lon="6.41286">
        <ele>449.619263</ele>
        <time>2018-09-08T14:48:43Z</time>
      </trkpt>
      <trkpt lat="46.07801" lon="6.41287">
        <ele>449.434631</ele>
        <time>2018-09-08T14:48:44Z</time>
      </trkpt>
      <trkpt lat="46.07798" lon="6.41287">
        <ele>449.262512</ele>
        <time>2018-09-08T14:48:45Z</time>
      </trkpt>
      <trkpt lat="46.07795" lon="6.41286">
        <ele>449.068878</ele>
        <time>2018-09-08T14:48:46Z</time>
      </trkpt>
      <trkpt lat="46.07735" lon="6.41278">
        <ele>448</ele>
        <time>2018-09-08T14:49:01Z</time>
      </trkpt>
      <trkpt lat="46.0773" lon="6.41278">
        <ele>447.980011</ele>
        <time>2018-09-08T14:49:08Z</time>
      </trkpt>
      <trkpt lat="46.07728" lon="6.41278">
        <ele>447.929993</ele>
        <time>2018-09-08T14:49:09Z</time>
      </trkpt>
      <trkpt lat="46.07725" lon="6.41278">
        <ele>447.875</ele>
        <time>2018-09-08T14:49:10Z</time>
      </trkpt>
      <trkpt lat="46.07697" lon="6.41278">
        <ele>447.25</ele>
        <time>2018-09-08T14:49:18Z</time>
      </trkpt>
      <trkpt lat="46.07657" lon="6.41277">
        <ele>447</ele>
        <time>2018-09-08T14:49:28Z</time>
      </trkpt>
      <trkpt lat="46.07656" lon="6.4128">
        <ele>447</ele>
        <time>2018-09-08T14:49:29Z</time>
      </trkpt>
      <trkpt lat="46.07656" lon="6.41284">
        <ele>447</ele>
        <time>2018-09-08T14:49:30Z</time>
      </trkpt>
      <trkpt lat="46.07657" lon="6.41288">
        <ele>447</ele>
        <time>2018-09-08T14:49:31Z</time>
      </trkpt>
      <trkpt lat="46.07659" lon="6.41293">
        <ele>447</ele>
        <time>2018-09-08T14:49:32Z</time>
      </trkpt>
      <trkpt lat="46.07685" lon="6.41372">
        <ele>447.065002</ele>
        <time>2018-09-08T14:49:48Z</time>
      </trkpt>
      <trkpt lat="46.07688" lon="6.41386">
        <ele>447.149994</ele>
        <time>2018-09-08T14:49:51Z</time>
      </trkpt>
      <trkpt lat="46.07687" lon="6.41391">
        <ele>447.125</ele>
        <time>2018-09-08T14:49:52Z</time>
      </trkpt>
      <trkpt lat="46.07684" lon="6.41395">
        <ele>447.065002</ele>
        <time>2018-09-08T14:49:53Z</time>
      </trkpt>
      <trkpt lat="46.07678" lon="6.41401">
        <ele>447</ele>
        <time>2018-09-08T14:49:55Z</time>
      </trkpt>
      <trkpt lat="46.07676" lon="6.41406">
        <ele>447</ele>
        <time>2018-09-08T14:49:56Z</time>
      </trkpt>
      <trkpt lat="46.07675" lon="6.41412">
        <ele>447</ele>
        <time>2018-09-08T14:49:57Z</time>
      </trkpt>
      <trkpt lat="46.07677" lon="6.41419">
        <ele>447</ele>
        <time>2018-09-08T14:49:58Z</time>
      </trkpt>
      <trkpt lat="46.07679" lon="6.41425">
        <ele>447</ele>
        <time>2018-09-08T14:49:59Z</time>
      </trkpt>
      <trkpt lat="46.07681" lon="6.4143">
        <ele>447.01001</ele>
        <time>2018-09-08T14:50:00Z</time>
      </trkpt>
      <trkpt lat="46.07683" lon="6.41436">
        <ele>447.059998</ele>
        <time>2018-09-08T14:50:01Z</time>
      </trkpt>
      <trkpt lat="46.07699" lon="6.41473">
        <ele>447.279938</ele>
        <time>2018-09-08T14:50:11Z</time>
      </trkpt>
      <trkpt lat="46.07697" lon="6.41476">
        <ele>447.240875</ele>
        <time>2018-09-08T14:50:12Z</time>
      </trkpt>
      <trkpt lat="46.07695" lon="6.41479">
        <ele>447.200256</ele>
        <time>2018-09-08T14:50:13Z</time>
      </trkpt>
      <trkpt lat="46.07693" lon="6.41481">
        <ele>447.168762</ele>
        <time>2018-09-08T14:50:14Z</time>
      </trkpt>
      <trkpt lat="46.07681" lon="6.41499">
        <ele>447.014526</ele>
        <time>2018-09-08T14:50:22Z</time>
      </trkpt>
      <trkpt lat="46.07701" lon="6.41555">
        <ele>447</ele>
        <time>2018-09-08T14:50:32Z</time>
      </trkpt>
      <trkpt lat="46.07738" lon="6.41653">
        <ele>447.944489</ele>
        <time>2018-09-08T14:50:49Z</time>
      </trkpt>
      <trkpt lat="46.07776" lon="6.41756">
        <ele>448</ele>
        <time>2018-09-08T14:51:05Z</time>
      </trkpt>
      <trkpt lat="46.07778" lon="6.41763">
        <ele>448</ele>
        <time>2018-09-08T14:51:06Z</time>
      </trkpt>
      <trkpt lat="46.07808" lon="6.41871">
        <ele>448</ele>
        <time>2018-09-08T14:51:21Z</time>
      </trkpt>
      <trkpt lat="46.07813" lon="6.41898">
        <ele>448</ele>
        <time>2018-09-08T14:51:25Z</time>
      </trkpt>
      <trkpt lat="46.07841" lon="6.42066">
        <ele>448</ele>
        <time>2018-09-08T14:51:47Z</time>
      </trkpt>
      <trkpt lat="46.07842" lon="6.42178">
        <ele>448</ele>
        <time>2018-09-08T14:52:05Z</time>
      </trkpt>
      <trkpt lat="46.07849" lon="6.42192">
        <ele>448</ele>
        <time>2018-09-08T14:52:10Z</time>
      </trkpt>
      <trkpt lat="46.07851" lon="6.42197">
        <ele>448</ele>
        <time>2018-09-08T14:52:11Z</time>
      </trkpt>
      <trkpt lat="46.07853" lon="6.42203">
        <ele>448</ele>
        <time>2018-09-08T14:52:12Z</time>
      </trkpt>
      <trkpt lat="46.07853" lon="6.4221">
        <ele>448</ele>
        <time>2018-09-08T14:52:13Z</time>
      </trkpt>
      <trkpt lat="46.07854" lon="6.42216">
        <ele>448</ele>
        <time>2018-09-08T14:52:14Z</time>
      </trkpt>
      <trkpt lat="46.07858" lon="6.42275">
        <ele>448</ele>
        <time>2018-09-08T14:52:23Z</time>
      </trkpt>
      <trkpt lat="46.07852" lon="6.42302">
        <ele>448</ele>
        <time>2018-09-08T14:52:27Z</time>
      </trkpt>
      <trkpt lat="46.07846" lon="6.42356">
        <ele>448</ele>
        <time>2018-09-08T14:52:34Z</time>
      </trkpt>
      <trkpt lat="46.07842" lon="6.4248">
        <ele>448</ele>
        <time>2018-09-08T14:52:50Z</time>
      </trkpt>
      <trkpt lat="46.07836" lon="6.42525">
        <ele>447.689941</ele>
        <time>2018-09-08T14:52:56Z</time>
      </trkpt>
      <trkpt lat="46.07834" lon="6.42578">
        <ele>447.329987</ele>
        <time>2018-09-08T14:53:03Z</time>
      </trkpt>
      <trkpt lat="46.07827" lon="6.42631">
        <ele>447.230011</ele>
        <time>2018-09-08T14:53:12Z</time>
      </trkpt>
      <trkpt lat="46.07813" lon="6.42755">
        <ele>447.065216</ele>
        <time>2018-09-08T14:53:29Z</time>
      </trkpt>
      <trkpt lat="46.07797" lon="6.42897">
        <ele>447.826935</ele>
        <time>2018-09-08T14:53:48Z</time>
      </trkpt>
      <trkpt lat="46.07791" lon="6.42961">
        <ele>448</ele>
        <time>2018-09-08T14:53:57Z</time>
      </trkpt>
      <trkpt lat="46.07797" lon="6.43001">
        <ele>448</ele>
        <time>2018-09-08T14:54:03Z</time>
      </trkpt>
      <trkpt lat="46.0778" lon="6.43164">
        <ele>448</ele>
        <time>2018-09-08T14:54:25Z</time>
      </trkpt>
      <trkpt lat="46.07777" lon="6.43185">
        <ele>448</ele>
        <time>2018-09-08T14:54:28Z</time>
      </trkpt>
      <trkpt lat="46.07763" lon="6.43307">
        <ele>448</ele>
        <time>2018-09-08T14:54:46Z</time>
      </trkpt>
      <trkpt lat="46.07742" lon="6.43503">
        <ele>449</ele>
        <time>2018-09-08T14:55:13Z</time>
      </trkpt>
      <trkpt lat="46.07726" lon="6.43658">
        <ele>449</ele>
        <time>2018-09-08T14:55:34Z</time>
      </trkpt>
      <trkpt lat="46.0771" lon="6.43793">
        <ele>449</ele>
        <time>2018-09-08T14:55:53Z</time>
      </trkpt>
      <trkpt lat="46.07695" lon="6.43928">
        <ele>449</ele>
        <time>2018-09-08T14:56:13Z</time>
      </trkpt>
      <trkpt lat="46.07684" lon="6.44013">
        <ele>449</ele>
        <time>2018-09-08T14:56:29Z</time>
      </trkpt>
      <trkpt lat="46.07666" lon="6.44034">
        <ele>449</ele>
        <time>2018-09-08T14:56:38Z</time>
      </trkpt>
      <trkpt lat="46.07663" lon="6.44033">
        <ele>449</ele>
        <time>2018-09-08T14:56:39Z</time>
      </trkpt>
      <trkpt lat="46.07657" lon="6.44028">
        <ele>449</ele>
        <time>2018-09-08T14:56:41Z</time>
      </trkpt>
      <trkpt lat="46.07653" lon="6.44025">
        <ele>449</ele>
        <time>2018-09-08T14:56:42Z</time>
      </trkpt>
      <trkpt lat="46.0762" lon="6.44">
        <ele>448.730011</ele>
        <time>2018-09-08T14:56:52Z</time>
      </trkpt>
      <trkpt lat="46.07618" lon="6.44">
        <ele>448.684998</ele>
        <time>2018-09-08T14:56:53Z</time>
      </trkpt>
      <trkpt lat="46.07613" lon="6.44003">
        <ele>448.575012</ele>
        <time>2018-09-08T14:56:56Z</time>
      </trkpt>
      <trkpt lat="46.07611" lon="6.44003">
        <ele>448.545013</ele>
        <time>2018-09-08T14:56:57Z</time>
      </trkpt>
      <trkpt lat="46.07611" lon="6.44011">
        <ele>448.545013</ele>
        <time>2018-09-08T14:57:01Z</time>
      </trkpt>
      <trkpt lat="46.07607" lon="6.44052">
        <ele>448.656616</ele>
        <time>2018-09-08T14:57:13Z</time>
      </trkpt>
      <trkpt lat="46.07609" lon="6.44117">
        <ele>449</ele>
        <time>2018-09-08T14:57:28Z</time>
      </trkpt>
      <trkpt lat="46.07609" lon="6.44172">
        <ele>449</ele>
        <time>2018-09-08T14:57:39Z</time>
      </trkpt>
      <trkpt lat="46.07607" lon="6.442">
        <ele>449</ele>
        <time>2018-09-08T14:57:44Z</time>
      </trkpt>
      <trkpt lat="46.07588" lon="6.44316">
        <ele>449</ele>
        <time>2018-09-08T14:58:04Z</time>
      </trkpt>
      <trkpt lat="46.07581" lon="6.44372">
        <ele>449</ele>
        <time>2018-09-08T14:58:16Z</time>
      </trkpt>
      <trkpt lat="46.07569" lon="6.44465">
        <ele>448.278503</ele>
        <time>2018-09-08T14:58:33Z</time>
      </trkpt>
      <trkpt lat="46.0756" lon="6.4451">
        <ele>448.179993</ele>
        <time>2018-09-08T14:58:41Z</time>
      </trkpt>
      <trkpt lat="46.07558" lon="6.44521">
        <ele>448.225006</ele>
        <time>2018-09-08T14:58:43Z</time>
      </trkpt>
      <trkpt lat="46.07554" lon="6.44558">
        <ele>448.279999</ele>
        <time>2018-09-08T14:58:50Z</time>
      </trkpt>
      <trkpt lat="46.07552" lon="6.44571">
        <ele>448.325012</ele>
        <time>2018-09-08T14:58:54Z</time>
      </trkpt>
      <trkpt lat="46.07548" lon="6.44604">
        <ele>448.380005</ele>
        <time>2018-09-08T14:59:05Z</time>
      </trkpt>
      <trkpt lat="46.07549" lon="6.44612">
        <ele>448.379181</ele>
        <time>2018-09-08T14:59:08Z</time>
      </trkpt>
      <trkpt lat="46.07549" lon="6.44615">
        <ele>448.392792</ele>
        <time>2018-09-08T14:59:09Z</time>
      </trkpt>
      <trkpt lat="46.0755" lon="6.44618">
        <ele>448.393677</ele>
        <time>2018-09-08T14:59:10Z</time>
      </trkpt>
      <trkpt lat="46.07552" lon="6.4462">
        <ele>448.382233</ele>
        <time>2018-09-08T14:59:11Z</time>
      </trkpt>
      <trkpt lat="46.07555" lon="6.44622">
        <ele>448.362335</ele>
        <time>2018-09-08T14:59:12Z</time>
      </trkpt>
      <trkpt lat="46.07598" lon="6.44644">
        <ele>449.61441</ele>
        <time>2018-09-08T14:59:25Z</time>
      </trkpt>
      <trkpt lat="46.07622" lon="6.4462">
        <ele>450.510834</ele>
        <time>2018-09-08T14:59:33Z</time>
      </trkpt>
      <trkpt lat="46.07625" lon="6.44616">
        <ele>450.697906</ele>
        <time>2018-09-08T14:59:34Z</time>
      </trkpt>
      <trkpt lat="46.07628" lon="6.44614">
        <ele>451.029266</ele>
        <time>2018-09-08T14:59:35Z</time>
      </trkpt>
      <trkpt lat="46.07632" lon="6.44613">
        <ele>451.395386</ele>
        <time>2018-09-08T14:59:36Z</time>
      </trkpt>
      <trkpt lat="46.07636" lon="6.44614">
        <ele>451.791687</ele>
        <time>2018-09-08T14:59:37Z</time>
      </trkpt>
      <trkpt lat="46.07639" lon="6.44615">
        <ele>452.244904</ele>
        <time>2018-09-08T14:59:38Z</time>
      </trkpt>
      <trkpt lat="46.07643" lon="6.44617">
        <ele>452.686066</ele>
        <time>2018-09-08T14:59:39Z</time>
      </trkpt>
      <trkpt lat="46.07645" lon="6.44621">
        <ele>453.051819</ele>
        <time>2018-09-08T14:59:40Z</time>
      </trkpt>
      <trkpt lat="46.07647" lon="6.44626">
        <ele>453.336639</ele>
        <time>2018-09-08T14:59:41Z</time>
      </trkpt>
      <trkpt lat="46.07648" lon="6.44631">
        <ele>453.549377</ele>
        <time>2018-09-08T14:59:42Z</time>
      </trkpt>
      <trkpt lat="46.07648" lon="6.44637">
        <ele>453.688995</ele>
        <time>2018-09-08T14:59:43Z</time>
      </trkpt>
      <trkpt lat="46.07648" lon="6.44642">
        <ele>453.753448</ele>
        <time>2018-09-08T14:59:44Z</time>
      </trkpt>
      <trkpt lat="46.07647" lon="6.44646">
        <ele>453.814423</ele>
        <time>2018-09-08T14:59:45Z</time>
      </trkpt>
      <trkpt lat="46.07642" lon="6.44706">
        <ele>455.086395</ele>
        <time>2018-09-08T14:59:58Z</time>
      </trkpt>
      <trkpt lat="46.0764" lon="6.44714">
        <ele>455.259247</ele>
        <time>2018-09-08T15:00:00Z</time>
      </trkpt>
      <trkpt lat="46.07631" lon="6.44767">
        <ele>456.585205</ele>
        <time>2018-09-08T15:00:13Z</time>
      </trkpt>
      <trkpt lat="46.07634" lon="6.44777">
        <ele>457.758759</ele>
        <time>2018-09-08T15:00:16Z</time>
      </trkpt>
      <trkpt lat="46.07636" lon="6.4478">
        <ele>458.214508</ele>
        <time>2018-09-08T15:00:17Z</time>
      </trkpt>
      <trkpt lat="46.07637" lon="6.44782">
        <ele>458.481781</ele>
        <time>2018-09-08T15:00:18Z</time>
      </trkpt>
      <trkpt lat="46.07636" lon="6.44784">
        <ele>458.570007</ele>
        <time>2018-09-08T15:00:19Z</time>
      </trkpt>
      <trkpt lat="46.07636" lon="6.44786">
        <ele>458.592499</ele>
        <time>2018-09-08T15:00:20Z</time>
      </trkpt>
      <trkpt lat="46.07635" lon="6.44788">
        <ele>458.607452</ele>
        <time>2018-09-08T15:00:21Z</time>
      </trkpt>
      <trkpt lat="46.07629" lon="6.44838">
        <ele>459.380737</ele>
        <time>2018-09-08T15:00:33Z</time>
      </trkpt>
      <trkpt lat="46.07629" lon="6.44898">
        <ele>460.935028</ele>
        <time>2018-09-08T15:00:49Z</time>
      </trkpt>
      <trkpt lat="46.07632" lon="6.44958">
        <ele>460.725586</ele>
        <time>2018-09-08T15:01:01Z</time>
      </trkpt>
      <trkpt lat="46.07637" lon="6.4501">
        <ele>458.218475</ele>
        <time>2018-09-08T15:01:09Z</time>
      </trkpt>
      <trkpt lat="46.0764" lon="6.45017">
        <ele>458.030975</ele>
        <time>2018-09-08T15:01:10Z</time>
      </trkpt>
      <trkpt lat="46.07643" lon="6.45023">
        <ele>457.907501</ele>
        <time>2018-09-08T15:01:11Z</time>
      </trkpt>
      <trkpt lat="46.07648" lon="6.45029">
        <ele>457.90625</ele>
        <time>2018-09-08T15:01:12Z</time>
      </trkpt>
      <trkpt lat="46.07652" lon="6.45033">
        <ele>457.976257</ele>
        <time>2018-09-08T15:01:13Z</time>
      </trkpt>
      <trkpt lat="46.07656" lon="6.45038">
        <ele>458.051239</ele>
        <time>2018-09-08T15:01:14Z</time>
      </trkpt>
      <trkpt lat="46.07665" lon="6.45047">
        <ele>458.201263</ele>
        <time>2018-09-08T15:01:16Z</time>
      </trkpt>
      <trkpt lat="46.07668" lon="6.45053">
        <ele>458.051239</ele>
        <time>2018-09-08T15:01:17Z</time>
      </trkpt>
      <trkpt lat="46.0767" lon="6.4506">
        <ele>457.744995</ele>
        <time>2018-09-08T15:01:18Z</time>
      </trkpt>
      <trkpt lat="46.07672" lon="6.45067">
        <ele>457.398743</ele>
        <time>2018-09-08T15:01:19Z</time>
      </trkpt>
      <trkpt lat="46.07673" lon="6.45073">
        <ele>457.068787</ele>
        <time>2018-09-08T15:01:20Z</time>
      </trkpt>
      <trkpt lat="46.07674" lon="6.45081">
        <ele>456.896118</ele>
        <time>2018-09-08T15:01:21Z</time>
      </trkpt>
      <trkpt lat="46.07677" lon="6.45108">
        <ele>456.020569</ele>
        <time>2018-09-08T15:01:25Z</time>
      </trkpt>
      <trkpt lat="46.07676" lon="6.45115">
        <ele>455.708344</ele>
        <time>2018-09-08T15:01:26Z</time>
      </trkpt>
      <trkpt lat="46.07675" lon="6.45123">
        <ele>455.339386</ele>
        <time>2018-09-08T15:01:27Z</time>
      </trkpt>
      <trkpt lat="46.07674" lon="6.45131">
        <ele>454.915283</ele>
        <time>2018-09-08T15:01:28Z</time>
      </trkpt>
      <trkpt lat="46.07673" lon="6.4514">
        <ele>454.605011</ele>
        <time>2018-09-08T15:01:29Z</time>
      </trkpt>
      <trkpt lat="46.07671" lon="6.45168">
        <ele>454.119995</ele>
        <time>2018-09-08T15:01:32Z</time>
      </trkpt>
      <trkpt lat="46.07668" lon="6.45185">
        <ele>453.772491</ele>
        <time>2018-09-08T15:01:34Z</time>
      </trkpt>
      <trkpt lat="46.07666" lon="6.45193">
        <ele>453.561249</ele>
        <time>2018-09-08T15:01:35Z</time>
      </trkpt>
      <trkpt lat="46.07663" lon="6.45199">
        <ele>453.347504</ele>
        <time>2018-09-08T15:01:36Z</time>
      </trkpt>
      <trkpt lat="46.0766" lon="6.45204">
        <ele>453.134155</ele>
        <time>2018-09-08T15:01:37Z</time>
      </trkpt>
      <trkpt lat="46.07656" lon="6.45209">
        <ele>452.93866</ele>
        <time>2018-09-08T15:01:38Z</time>
      </trkpt>
      <trkpt lat="46.07652" lon="6.45214">
        <ele>452.748657</ele>
        <time>2018-09-08T15:01:39Z</time>
      </trkpt>
      <trkpt lat="46.07648" lon="6.45218">
        <ele>452.572845</ele>
        <time>2018-09-08T15:01:40Z</time>
      </trkpt>
      <trkpt lat="46.07621" lon="6.45251">
        <ele>452.225006</ele>
        <time>2018-09-08T15:01:47Z</time>
      </trkpt>
      <trkpt lat="46.07618" lon="6.45255">
        <ele>452.290009</ele>
        <time>2018-09-08T15:01:48Z</time>
      </trkpt>
      <trkpt lat="46.07599" lon="6.4534">
        <ele>453</ele>
        <time>2018-09-08T15:02:02Z</time>
      </trkpt>
      <trkpt lat="46.07597" lon="6.45442">
        <ele>453</ele>
        <time>2018-09-08T15:02:19Z</time>
      </trkpt>
      <trkpt lat="46.07597" lon="6.45448">
        <ele>453</ele>
        <time>2018-09-08T15:02:20Z</time>
      </trkpt>
      <trkpt lat="46.07595" lon="6.45483">
        <ele>453</ele>
        <time>2018-09-08T15:02:26Z</time>
      </trkpt>
      <trkpt lat="46.07589" lon="6.45512">
        <ele>453</ele>
        <time>2018-09-08T15:02:31Z</time>
      </trkpt>
      <trkpt lat="46.0756" lon="6.45552">
        <ele>453</ele>
        <time>2018-09-08T15:02:43Z</time>
      </trkpt>
      <trkpt lat="46.07549" lon="6.45553">
        <ele>453</ele>
        <time>2018-09-08T15:02:47Z</time>
      </trkpt>
      <trkpt lat="46.07547" lon="6.45556">
        <ele>453</ele>
        <time>2018-09-08T15:02:48Z</time>
      </trkpt>
      <trkpt lat="46.07545" lon="6.4556">
        <ele>453</ele>
        <time>2018-09-08T15:02:49Z</time>
      </trkpt>
      <trkpt lat="46.07541" lon="6.45576">
        <ele>453</ele>
        <time>2018-09-08T15:02:52Z</time>
      </trkpt>
      <trkpt lat="46.07527" lon="6.45688">
        <ele>453</ele>
        <time>2018-09-08T15:03:10Z</time>
      </trkpt>
      <trkpt lat="46.07517" lon="6.45781">
        <ele>452.894989</ele>
        <time>2018-09-08T15:03:25Z</time>
      </trkpt>
      <trkpt lat="46.07503" lon="6.45908">
        <ele>453.107513</ele>
        <time>2018-09-08T15:03:46Z</time>
      </trkpt>
      <trkpt lat="46.07486" lon="6.46067">
        <ele>456.165009</ele>
        <time>2018-09-08T15:04:11Z</time>
      </trkpt>
      <trkpt lat="46.0747" lon="6.46208">
        <ele>457</ele>
        <time>2018-09-08T15:04:34Z</time>
      </trkpt>
      <trkpt lat="46.07457" lon="6.46335">
        <ele>457.760132</ele>
        <time>2018-09-08T15:04:53Z</time>
      </trkpt>
      <trkpt lat="46.07443" lon="6.46471">
        <ele>457.795013</ele>
        <time>2018-09-08T15:05:14Z</time>
      </trkpt>
      <trkpt lat="46.07437" lon="6.46543">
        <ele>457.734985</ele>
        <time>2018-09-08T15:05:26Z</time>
      </trkpt>
      <trkpt lat="46.07436" lon="6.46567">
        <ele>457.725006</ele>
        <time>2018-09-08T15:05:30Z</time>
      </trkpt>
      <trkpt lat="46.07436" lon="6.46578">
        <ele>457.730011</ele>
        <time>2018-09-08T15:05:32Z</time>
      </trkpt>
      <trkpt lat="46.0743" lon="6.46614">
        <ele>457.640015</ele>
        <time>2018-09-08T15:05:39Z</time>
      </trkpt>
      <trkpt lat="46.07429" lon="6.4662">
        <ele>457.625</ele>
        <time>2018-09-08T15:05:40Z</time>
      </trkpt>
      <trkpt lat="46.07428" lon="6.46627">
        <ele>457.589996</ele>
        <time>2018-09-08T15:05:41Z</time>
      </trkpt>
      <trkpt lat="46.07427" lon="6.46634">
        <ele>457.570007</ele>
        <time>2018-09-08T15:05:42Z</time>
      </trkpt>
      <trkpt lat="46.07426" lon="6.46642">
        <ele>457.554993</ele>
        <time>2018-09-08T15:05:43Z</time>
      </trkpt>
      <trkpt lat="46.07411" lon="6.46788">
        <ele>457.061615</ele>
        <time>2018-09-08T15:06:01Z</time>
      </trkpt>
      <trkpt lat="46.07401" lon="6.46923">
        <ele>457</ele>
        <time>2018-09-08T15:06:19Z</time>
      </trkpt>
      <trkpt lat="46.07396" lon="6.47054">
        <ele>457</ele>
        <time>2018-09-08T15:06:37Z</time>
      </trkpt>
      <trkpt lat="46.07398" lon="6.47099">
        <ele>457</ele>
        <time>2018-09-08T15:06:43Z</time>
      </trkpt>
      <trkpt lat="46.07398" lon="6.47106">
        <ele>457</ele>
        <time>2018-09-08T15:06:44Z</time>
      </trkpt>
      <trkpt lat="46.07399" lon="6.47114">
        <ele>457</ele>
        <time>2018-09-08T15:06:45Z</time>
      </trkpt>
      <trkpt lat="46.07399" lon="6.47121">
        <ele>457</ele>
        <time>2018-09-08T15:06:46Z</time>
      </trkpt>
      <trkpt lat="46.074" lon="6.47128">
        <ele>457</ele>
        <time>2018-09-08T15:06:47Z</time>
      </trkpt>
      <trkpt lat="46.074" lon="6.47136">
        <ele>457</ele>
        <time>2018-09-08T15:06:48Z</time>
      </trkpt>
      <trkpt lat="46.074" lon="6.47144">
        <ele>457</ele>
        <time>2018-09-08T15:06:49Z</time>
      </trkpt>
      <trkpt lat="46.07403" lon="6.47195">
        <ele>457</ele>
        <time>2018-09-08T15:06:56Z</time>
      </trkpt>
      <trkpt lat="46.07406" lon="6.472">
        <ele>457</ele>
        <time>2018-09-08T15:06:57Z</time>
      </trkpt>
      <trkpt lat="46.0741" lon="6.47201">
        <ele>457</ele>
        <time>2018-09-08T15:06:58Z</time>
      </trkpt>
      <trkpt lat="46.07415" lon="6.47202">
        <ele>457</ele>
        <time>2018-09-08T15:06:59Z</time>
      </trkpt>
      <trkpt lat="46.07421" lon="6.47201">
        <ele>457</ele>
        <time>2018-09-08T15:07:00Z</time>
      </trkpt>
      <trkpt lat="46.0749" lon="6.47199">
        <ele>458</ele>
        <time>2018-09-08T15:07:13Z</time>
      </trkpt>
      <trkpt lat="46.075" lon="6.472">
        <ele>458</ele>
        <time>2018-09-08T15:07:15Z</time>
      </trkpt>
      <trkpt lat="46.07524" lon="6.47197">
        <ele>458</ele>
        <time>2018-09-08T15:07:20Z</time>
      </trkpt>
      <trkpt lat="46.07584" lon="6.47196">
        <ele>458.490204</ele>
        <time>2018-09-08T15:07:34Z</time>
      </trkpt>
      <trkpt lat="46.07593" lon="6.47199">
        <ele>458.693268</ele>
        <time>2018-09-08T15:07:37Z</time>
      </trkpt>
      <trkpt lat="46.07595" lon="6.47201">
        <ele>458.760468</ele>
        <time>2018-09-08T15:07:39Z</time>
      </trkpt>
      <trkpt lat="46.07598" lon="6.47206">
        <ele>458.839996</ele>
        <time>2018-09-08T15:07:45Z</time>
      </trkpt>
      <trkpt lat="46.07594" lon="6.47253">
        <ele>458.785004</ele>
        <time>2018-09-08T15:07:58Z</time>
      </trkpt>
      <trkpt lat="46.07573" lon="6.47306">
        <ele>458.369995</ele>
        <time>2018-09-08T15:08:11Z</time>
      </trkpt>
      <trkpt lat="46.07549" lon="6.47357">
        <ele>458</ele>
        <time>2018-09-08T15:08:23Z</time>
      </trkpt>
      <trkpt lat="46.07506" lon="6.47387">
        <ele>457.947144</ele>
        <time>2018-09-08T15:08:36Z</time>
      </trkpt>
      <trkpt lat="46.07492" lon="6.47444">
        <ele>457.670013</ele>
        <time>2018-09-08T15:08:47Z</time>
      </trkpt>
      <trkpt lat="46.07472" lon="6.47491">
        <ele>457.111511</ele>
        <time>2018-09-08T15:08:58Z</time>
      </trkpt>
      <trkpt lat="46.0747" lon="6.47501">
        <ele>457.057587</ele>
        <time>2018-09-08T15:09:00Z</time>
      </trkpt>
      <trkpt lat="46.07481" lon="6.47521">
        <ele>457</ele>
        <time>2018-09-08T15:09:06Z</time>
      </trkpt>
      <trkpt lat="46.0749" lon="6.47554">
        <ele>457</ele>
        <time>2018-09-08T15:09:16Z</time>
      </trkpt>
      <trkpt lat="46.07489" lon="6.47584">
        <ele>456.995697</ele>
        <time>2018-09-08T15:09:25Z</time>
      </trkpt>
      <trkpt lat="46.07494" lon="6.47616">
        <ele>456.92807</ele>
        <time>2018-09-08T15:09:35Z</time>
      </trkpt>
      <trkpt lat="46.07497" lon="6.47629">
        <ele>456.964813</ele>
        <time>2018-09-08T15:09:41Z</time>
      </trkpt>
      <trkpt lat="46.07492" lon="6.47643">
        <ele>456.860504</ele>
        <time>2018-09-08T15:09:53Z</time>
      </trkpt>
      <trkpt lat="46.07485" lon="6.47658">
        <ele>456.584503</ele>
        <time>2018-09-08T15:09:58Z</time>
      </trkpt>
      <trkpt lat="46.07483" lon="6.47661">
        <ele>456.510254</ele>
        <time>2018-09-08T15:09:59Z</time>
      </trkpt>
      <trkpt lat="46.07487" lon="6.47705">
        <ele>456.07901</ele>
        <time>2018-09-08T15:10:08Z</time>
      </trkpt>
      <trkpt lat="46.07522" lon="6.47836">
        <ele>457</ele>
        <time>2018-09-08T15:10:28Z</time>
      </trkpt>
      <trkpt lat="46.07524" lon="6.47842">
        <ele>457</ele>
        <time>2018-09-08T15:10:29Z</time>
      </trkpt>
      <trkpt lat="46.07526" lon="6.47847">
        <ele>457.049988</ele>
        <time>2018-09-08T15:10:30Z</time>
      </trkpt>
      <trkpt lat="46.0753" lon="6.47859">
        <ele>457.220001</ele>
        <time>2018-09-08T15:10:32Z</time>
      </trkpt>
      <trkpt lat="46.07533" lon="6.4787">
        <ele>457.388763</ele>
        <time>2018-09-08T15:10:34Z</time>
      </trkpt>
      <trkpt lat="46.07569" lon="6.47964">
        <ele>458</ele>
        <time>2018-09-08T15:10:50Z</time>
      </trkpt>
      <trkpt lat="46.07578" lon="6.47992">
        <ele>458.480011</ele>
        <time>2018-09-08T15:10:55Z</time>
      </trkpt>
      <trkpt lat="46.07578" lon="6.47998">
        <ele>458.674988</ele>
        <time>2018-09-08T15:10:56Z</time>
      </trkpt>
      <trkpt lat="46.07577" lon="6.48003">
        <ele>458.8125</ele>
        <time>2018-09-08T15:10:57Z</time>
      </trkpt>
      <trkpt lat="46.07574" lon="6.48007">
        <ele>458.890198</ele>
        <time>2018-09-08T15:10:58Z</time>
      </trkpt>
      <trkpt lat="46.07571" lon="6.4801">
        <ele>458.89444</ele>
        <time>2018-09-08T15:10:59Z</time>
      </trkpt>
      <trkpt lat="46.07567" lon="6.48012">
        <ele>458.890381</ele>
        <time>2018-09-08T15:11:00Z</time>
      </trkpt>
      <trkpt lat="46.07564" lon="6.48015">
        <ele>458.876495</ele>
        <time>2018-09-08T15:11:01Z</time>
      </trkpt>
      <trkpt lat="46.07557" lon="6.48021">
        <ele>458.824524</ele>
        <time>2018-09-08T15:11:03Z</time>
      </trkpt>
      <trkpt lat="46.07554" lon="6.48026">
        <ele>458.843384</ele>
        <time>2018-09-08T15:11:04Z</time>
      </trkpt>
      <trkpt lat="46.07553" lon="6.48032">
        <ele>458.906952</ele>
        <time>2018-09-08T15:11:05Z</time>
      </trkpt>
      <trkpt lat="46.07548" lon="6.48069">
        <ele>459.496338</ele>
        <time>2018-09-08T15:11:14Z</time>
      </trkpt>
      <trkpt lat="46.07541" lon="6.48135">
        <ele>460.629852</ele>
        <time>2018-09-08T15:11:31Z</time>
      </trkpt>
      <trkpt lat="46.07531" lon="6.48184">
        <ele>461.599457</ele>
        <time>2018-09-08T15:11:45Z</time>
      </trkpt>
      <trkpt lat="46.07531" lon="6.48187">
        <ele>461.690277</ele>
        <time>2018-09-08T15:11:46Z</time>
      </trkpt>
      <trkpt lat="46.07541" lon="6.48194">
        <ele>461.999573</ele>
        <time>2018-09-08T15:11:52Z</time>
      </trkpt>
      <trkpt lat="46.07559" lon="6.48217">
        <ele>462.655151</ele>
        <time>2018-09-08T15:12:05Z</time>
      </trkpt>
      <trkpt lat="46.07562" lon="6.48218">
        <ele>462.703369</ele>
        <time>2018-09-08T15:12:07Z</time>
      </trkpt>
      <trkpt lat="46.07564" lon="6.4822">
        <ele>462.742493</ele>
        <time>2018-09-08T15:12:08Z</time>
      </trkpt>
      <trkpt lat="46.07588" lon="6.48265">
        <ele>463</ele>
        <time>2018-09-08T15:12:21Z</time>
      </trkpt>
      <trkpt lat="46.07631" lon="6.48344">
        <ele>463.802612</ele>
        <time>2018-09-08T15:12:40Z</time>
      </trkpt>
      <trkpt lat="46.07669" lon="6.48419">
        <ele>464.831848</ele>
        <time>2018-09-08T15:12:57Z</time>
      </trkpt>
      <trkpt lat="46.07666" lon="6.48471">
        <ele>465</ele>
        <time>2018-09-08T15:13:06Z</time>
      </trkpt>
      <trkpt lat="46.07665" lon="6.48476">
        <ele>465</ele>
        <time>2018-09-08T15:13:07Z</time>
      </trkpt>
      <trkpt lat="46.07665" lon="6.48482">
        <ele>465</ele>
        <time>2018-09-08T15:13:08Z</time>
      </trkpt>
      <trkpt lat="46.07664" lon="6.48487">
        <ele>465</ele>
        <time>2018-09-08T15:13:09Z</time>
      </trkpt>
      <trkpt lat="46.07663" lon="6.48493">
        <ele>465</ele>
        <time>2018-09-08T15:13:10Z</time>
      </trkpt>
      <trkpt lat="46.07663" lon="6.48499">
        <ele>465</ele>
        <time>2018-09-08T15:13:11Z</time>
      </trkpt>
      <trkpt lat="46.07663" lon="6.48505">
        <ele>465</ele>
        <time>2018-09-08T15:13:12Z</time>
      </trkpt>
      <trkpt lat="46.07664" lon="6.4851">
        <ele>465</ele>
        <time>2018-09-08T15:13:13Z</time>
      </trkpt>
      <trkpt lat="46.07666" lon="6.48514">
        <ele>465</ele>
        <time>2018-09-08T15:13:14Z</time>
      </trkpt>
      <trkpt lat="46.07667" lon="6.48516">
        <ele>465</ele>
        <time>2018-09-08T15:13:15Z</time>
      </trkpt>
      <trkpt lat="46.07669" lon="6.48518">
        <ele>465</ele>
        <time>2018-09-08T15:13:16Z</time>
      </trkpt>
      <trkpt lat="46.07671" lon="6.48525">
        <ele>465</ele>
        <time>2018-09-08T15:13:19Z</time>
      </trkpt>
      <trkpt lat="46.07673" lon="6.48564">
        <ele>465</ele>
        <time>2018-09-08T15:13:27Z</time>
      </trkpt>
      <trkpt lat="46.07681" lon="6.48566">
        <ele>465</ele>
        <time>2018-09-08T15:13:29Z</time>
      </trkpt>
      <trkpt lat="46.07767" lon="6.48585">
        <ele>465.951324</ele>
        <time>2018-09-08T15:13:50Z</time>
      </trkpt>
      <trkpt lat="46.07866" lon="6.48612">
        <ele>466.974365</ele>
        <time>2018-09-08T15:14:12Z</time>
      </trkpt>
      <trkpt lat="46.07896" lon="6.48622">
        <ele>467.254242</ele>
        <time>2018-09-08T15:14:20Z</time>
      </trkpt>
      <trkpt lat="46.07899" lon="6.48625">
        <ele>467.256012</ele>
        <time>2018-09-08T15:14:21Z</time>
      </trkpt>
      <trkpt lat="46.07903" lon="6.48628">
        <ele>467.256714</ele>
        <time>2018-09-08T15:14:22Z</time>
      </trkpt>
      <trkpt lat="46.07908" lon="6.48631">
        <ele>467.261414</ele>
        <time>2018-09-08T15:14:23Z</time>
      </trkpt>
      <trkpt lat="46.07912" lon="6.48633">
        <ele>467.263245</ele>
        <time>2018-09-08T15:14:24Z</time>
      </trkpt>
      <trkpt lat="46.07976" lon="6.48694">
        <ele>467.66629</ele>
        <time>2018-09-08T15:14:41Z</time>
      </trkpt>
      <trkpt lat="46.08028" lon="6.48763">
        <ele>467.789124</ele>
        <time>2018-09-08T15:14:57Z</time>
      </trkpt>
      <trkpt lat="46.0803" lon="6.48769">
        <ele>467.801208</ele>
        <time>2018-09-08T15:14:58Z</time>
      </trkpt>
      <trkpt lat="46.08032" lon="6.48776">
        <ele>467.809509</ele>
        <time>2018-09-08T15:14:59Z</time>
      </trkpt>
      <trkpt lat="46.08033" lon="6.48782">
        <ele>467.811798</ele>
        <time>2018-09-08T15:15:00Z</time>
      </trkpt>
      <trkpt lat="46.08034" lon="6.48789">
        <ele>467.804993</ele>
        <time>2018-09-08T15:15:01Z</time>
      </trkpt>
      <trkpt lat="46.08034" lon="6.48796">
        <ele>467.72049</ele>
        <time>2018-09-08T15:15:02Z</time>
      </trkpt>
      <trkpt lat="46.08033" lon="6.48802">
        <ele>467.626068</ele>
        <time>2018-09-08T15:15:03Z</time>
      </trkpt>
      <trkpt lat="46.08031" lon="6.48809">
        <ele>467.526306</ele>
        <time>2018-09-08T15:15:04Z</time>
      </trkpt>
      <trkpt lat="46.08029" lon="6.48815">
        <ele>467.430206</ele>
        <time>2018-09-08T15:15:05Z</time>
      </trkpt>
      <trkpt lat="46.08027" lon="6.4882">
        <ele>467.338348</ele>
        <time>2018-09-08T15:15:06Z</time>
      </trkpt>
      <trkpt lat="46.0801" lon="6.48866">
        <ele>466.852325</ele>
        <time>2018-09-08T15:15:14Z</time>
      </trkpt>
      <trkpt lat="46.08009" lon="6.48873">
        <ele>466.779938</ele>
        <time>2018-09-08T15:15:15Z</time>
      </trkpt>
      <trkpt lat="46.08008" lon="6.48879">
        <ele>466.708954</ele>
        <time>2018-09-08T15:15:16Z</time>
      </trkpt>
      <trkpt lat="46.08008" lon="6.48885">
        <ele>466.637756</ele>
        <time>2018-09-08T15:15:17Z</time>
      </trkpt>
      <trkpt lat="46.08008" lon="6.48892">
        <ele>466.575653</ele>
        <time>2018-09-08T15:15:18Z</time>
      </trkpt>
      <trkpt lat="46.08009" lon="6.48898">
        <ele>466.527863</ele>
        <time>2018-09-08T15:15:19Z</time>
      </trkpt>
      <trkpt lat="46.0801" lon="6.48904">
        <ele>466.495209</ele>
        <time>2018-09-08T15:15:20Z</time>
      </trkpt>
      <trkpt lat="46.08012" lon="6.4891">
        <ele>466.47934</ele>
        <time>2018-09-08T15:15:21Z</time>
      </trkpt>
      <trkpt lat="46.08014" lon="6.48915">
        <ele>466.47702</ele>
        <time>2018-09-08T15:15:22Z</time>
      </trkpt>
      <trkpt lat="46.08054" lon="6.49027">
        <ele>466.155762</ele>
        <time>2018-09-08T15:15:41Z</time>
      </trkpt>
      <trkpt lat="46.08057" lon="6.49038">
        <ele>466.096313</ele>
        <time>2018-09-08T15:15:43Z</time>
      </trkpt>
      <trkpt lat="46.0809" lon="6.49111">
        <ele>466.320007</ele>
        <time>2018-09-08T15:15:58Z</time>
      </trkpt>
      <trkpt lat="46.08094" lon="6.49112">
        <ele>466.404999</ele>
        <time>2018-09-08T15:15:59Z</time>
      </trkpt>
      <trkpt lat="46.08098" lon="6.49112">
        <ele>466.48999</ele>
        <time>2018-09-08T15:16:00Z</time>
      </trkpt>
      <trkpt lat="46.08102" lon="6.49109">
        <ele>466.575012</ele>
        <time>2018-09-08T15:16:01Z</time>
      </trkpt>
      <trkpt lat="46.08105" lon="6.49106">
        <ele>466.649994</ele>
        <time>2018-09-08T15:16:02Z</time>
      </trkpt>
      <trkpt lat="46.08109" lon="6.49102">
        <ele>466.725006</ele>
        <time>2018-09-08T15:16:03Z</time>
      </trkpt>
      <trkpt lat="46.08112" lon="6.49098">
        <ele>466.799988</ele>
        <time>2018-09-08T15:16:04Z</time>
      </trkpt>
      <trkpt lat="46.08135" lon="6.49073">
        <ele>467</ele>
        <time>2018-09-08T15:16:10Z</time>
      </trkpt>
      <trkpt lat="46.0814" lon="6.49068">
        <ele>467</ele>
        <time>2018-09-08T15:16:11Z</time>
      </trkpt>
      <trkpt lat="46.08145" lon="6.49065">
        <ele>467</ele>
        <time>2018-09-08T15:16:12Z</time>
      </trkpt>
      <trkpt lat="46.08151" lon="6.49062">
        <ele>467</ele>
        <time>2018-09-08T15:16:13Z</time>
      </trkpt>
      <trkpt lat="46.08156" lon="6.4906">
        <ele>467</ele>
        <time>2018-09-08T15:16:14Z</time>
      </trkpt>
      <trkpt lat="46.08222" lon="6.49066">
        <ele>468</ele>
        <time>2018-09-08T15:16:26Z</time>
      </trkpt>
      <trkpt lat="46.08227" lon="6.49069">
        <ele>468</ele>
        <time>2018-09-08T15:16:27Z</time>
      </trkpt>
      <trkpt lat="46.08314" lon="6.49162">
        <ele>468</ele>
        <time>2018-09-08T15:16:48Z</time>
      </trkpt>
      <trkpt lat="46.08376" lon="6.49227">
        <ele>468</ele>
        <time>2018-09-08T15:17:04Z</time>
      </trkpt>
      <trkpt lat="46.08381" lon="6.49228">
        <ele>468</ele>
        <time>2018-09-08T15:17:05Z</time>
      </trkpt>
      <trkpt lat="46.08385" lon="6.49228">
        <ele>468</ele>
        <time>2018-09-08T15:17:06Z</time>
      </trkpt>
      <trkpt lat="46.08389" lon="6.49227">
        <ele>468.049988</ele>
        <time>2018-09-08T15:17:07Z</time>
      </trkpt>
      <trkpt lat="46.084" lon="6.49233">
        <ele>468.299988</ele>
        <time>2018-09-08T15:52:39Z</time>
      </trkpt>
      <trkpt lat="46.08404" lon="6.49238">
        <ele>468.390015</ele>
        <time>2018-09-08T15:52:40Z</time>
      </trkpt>
      <trkpt lat="46.08408" lon="6.49242">
        <ele>468.475006</ele>
        <time>2018-09-08T15:52:41Z</time>
      </trkpt>
      <trkpt lat="46.08411" lon="6.49246">
        <ele>468.559998</ele>
        <time>2018-09-08T15:52:42Z</time>
      </trkpt>
      <trkpt lat="46.08456" lon="6.49304">
        <ele>469.327118</ele>
        <time>2018-09-08T15:52:55Z</time>
      </trkpt>
      <trkpt lat="46.08536" lon="6.49406">
        <ele>469.524994</ele>
        <time>2018-09-08T15:53:17Z</time>
      </trkpt>
      <trkpt lat="46.08612" lon="6.49503">
        <ele>469.946991</ele>
        <time>2018-09-08T15:53:37Z</time>
      </trkpt>
      <trkpt lat="46.08641" lon="6.49541">
        <ele>470.819275</ele>
        <time>2018-09-08T15:53:45Z</time>
      </trkpt>
      <trkpt lat="46.08709" lon="6.49627">
        <ele>471.898468</ele>
        <time>2018-09-08T15:54:03Z</time>
      </trkpt>
      <trkpt lat="46.08755" lon="6.49685">
        <ele>473.082489</ele>
        <time>2018-09-08T15:54:15Z</time>
      </trkpt>
      <trkpt lat="46.08758" lon="6.49688">
        <ele>473.230011</ele>
        <time>2018-09-08T15:54:16Z</time>
      </trkpt>
      <trkpt lat="46.08763" lon="6.49688">
        <ele>473.418762</ele>
        <time>2018-09-08T15:54:17Z</time>
      </trkpt>
      <trkpt lat="46.08767" lon="6.49686">
        <ele>473.647491</ele>
        <time>2018-09-08T15:54:18Z</time>
      </trkpt>
      <trkpt lat="46.08771" lon="6.49682">
        <ele>473.887512</ele>
        <time>2018-09-08T15:54:19Z</time>
      </trkpt>
      <trkpt lat="46.08775" lon="6.49678">
        <ele>474.11499</ele>
        <time>2018-09-08T15:54:20Z</time>
      </trkpt>
      <trkpt lat="46.08829" lon="6.49617">
        <ele>476.017883</ele>
        <time>2018-09-08T15:54:34Z</time>
      </trkpt>
      <trkpt lat="46.08833" lon="6.49615">
        <ele>476.039764</ele>
        <time>2018-09-08T15:54:35Z</time>
      </trkpt>
      <trkpt lat="46.08837" lon="6.49613">
        <ele>476.062256</ele>
        <time>2018-09-08T15:54:36Z</time>
      </trkpt>
      <trkpt lat="46.0884" lon="6.49613">
        <ele>476.078613</ele>
        <time>2018-09-08T15:54:37Z</time>
      </trkpt>
      <trkpt lat="46.08843" lon="6.49618">
        <ele>476.066559</ele>
        <time>2018-09-08T15:54:43Z</time>
      </trkpt>
      <trkpt lat="46.08872" lon="6.49686">
        <ele>475.24585</ele>
        <time>2018-09-08T15:54:57Z</time>
      </trkpt>
      <trkpt lat="46.08909" lon="6.4978">
        <ele>476.054993</ele>
        <time>2018-09-08T15:55:13Z</time>
      </trkpt>
      <trkpt lat="46.08956" lon="6.49895">
        <ele>476.183838</ele>
        <time>2018-09-08T15:55:32Z</time>
      </trkpt>
      <trkpt lat="46.09004" lon="6.50018">
        <ele>476.345001</ele>
        <time>2018-09-08T15:55:52Z</time>
      </trkpt>
      <trkpt lat="46.09004" lon="6.50024">
        <ele>476.36499</ele>
        <time>2018-09-08T15:55:53Z</time>
      </trkpt>
      <trkpt lat="46.09004" lon="6.50031">
        <ele>476.355011</ele>
        <time>2018-09-08T15:55:54Z</time>
      </trkpt>
      <trkpt lat="46.09002" lon="6.50037">
        <ele>476.320007</ele>
        <time>2018-09-08T15:55:55Z</time>
      </trkpt>
      <trkpt lat="46.08999" lon="6.50043">
        <ele>476.269989</ele>
        <time>2018-09-08T15:55:56Z</time>
      </trkpt>
      <trkpt lat="46.08996" lon="6.50047">
        <ele>476.195007</ele>
        <time>2018-09-08T15:55:57Z</time>
      </trkpt>
      <trkpt lat="46.08993" lon="6.50051">
        <ele>476.119995</ele>
        <time>2018-09-08T15:55:58Z</time>
      </trkpt>
      <trkpt lat="46.08989" lon="6.50054">
        <ele>476.035004</ele>
        <time>2018-09-08T15:55:59Z</time>
      </trkpt>
      <trkpt lat="46.08931" lon="6.50098">
        <ele>474.953735</ele>
        <time>2018-09-08T15:56:13Z</time>
      </trkpt>
      <trkpt lat="46.08927" lon="6.50102">
        <ele>474.951263</ele>
        <time>2018-09-08T15:56:14Z</time>
      </trkpt>
      <trkpt lat="46.08924" lon="6.50107">
        <ele>474.966248</ele>
        <time>2018-09-08T15:56:15Z</time>
      </trkpt>
      <trkpt lat="46.08922" lon="6.50113">
        <ele>475.001251</ele>
        <time>2018-09-08T15:56:16Z</time>
      </trkpt>
      <trkpt lat="46.0892" lon="6.50119">
        <ele>475.05249</ele>
        <time>2018-09-08T15:56:17Z</time>
      </trkpt>
      <trkpt lat="46.08918" lon="6.50125">
        <ele>475.122498</ele>
        <time>2018-09-08T15:56:18Z</time>
      </trkpt>
      <trkpt lat="46.08917" lon="6.50132">
        <ele>475.20874</ele>
        <time>2018-09-08T15:56:19Z</time>
      </trkpt>
      <trkpt lat="46.08916" lon="6.50139">
        <ele>475.306244</ele>
        <time>2018-09-08T15:56:20Z</time>
      </trkpt>
      <trkpt lat="46.08916" lon="6.50146">
        <ele>475.413757</ele>
        <time>2018-09-08T15:56:21Z</time>
      </trkpt>
      <trkpt lat="46.08916" lon="6.50153">
        <ele>475.5</ele>
        <time>2018-09-08T15:56:22Z</time>
      </trkpt>
      <trkpt lat="46.08916" lon="6.5016">
        <ele>475.515015</ele>
        <time>2018-09-08T15:56:23Z</time>
      </trkpt>
      <trkpt lat="46.08917" lon="6.50167">
        <ele>475.529999</ele>
        <time>2018-09-08T15:56:24Z</time>
      </trkpt>
      <trkpt lat="46.08932" lon="6.50343">
        <ele>476.01001</ele>
        <time>2018-09-08T15:56:49Z</time>
      </trkpt>
      <trkpt lat="46.08941" lon="6.50516">
        <ele>475.750366</ele>
        <time>2018-09-08T15:57:11Z</time>
      </trkpt>
      <trkpt lat="46.08942" lon="6.50556">
        <ele>476.0896</ele>
        <time>2018-09-08T15:57:16Z</time>
      </trkpt>
      <trkpt lat="46.08936" lon="6.50619">
        <ele>476.468842</ele>
        <time>2018-09-08T15:57:18Z</time>
      </trkpt>
      <trkpt lat="46.08917" lon="6.50726">
        <ele>476.984985</ele>
        <time>2018-09-08T15:57:24Z</time>
      </trkpt>
    </trkseg>
  </trk>
</gpx>